Wetterdaten: Donnerstag, 12.04.2018
Datum Zeit Temp. A. Pool Temp. Feuchte A. Luftdruck Regen Wind Richtung Richtung Sonnenschein ET UV Solar Taupunkt Windchill Windben Empfang
12.04.2018 00:00 14,6 C 10,0 C 58 % 1002,8 hPa 0,0 l/m 5,0 km/h (1 Bft) O 82 0 min 0,000 mm 0,0 UV-I 0 W/m 6,4 C 14,6 C 6,4 km/h (2 Bft) 100,00 %
12.04.2018 00:01 14,6 C 10,0 C 57 % 1002,8 hPa 0,0 l/m 6,8 km/h (2 Bft) O 90 0 min 0,000 mm 0,0 UV-I 0 W/m 6,2 C 14,4 C 9,7 km/h (2 Bft) 94,12 %
12.04.2018 00:02 14,6 C 10,0 C 57 % 1002,8 hPa 0,0 l/m 6,4 km/h (2 Bft) O-SO 111 0 min 0,000 mm 0,0 UV-I 0 W/m 6,2 C 14,6 C 9,7 km/h (2 Bft) 100,00 %
12.04.2018 00:03 14,6 C 10,0 C 57 % 1002,8 hPa 0,0 l/m 6,8 km/h (2 Bft) O-SO 111 0 min 0,000 mm 0,0 UV-I 0 W/m 6,2 C 14,4 C 9,7 km/h (2 Bft) 97,50 %
12.04.2018 00:04 14,7 C 10,0 C 57 % 1002,7 hPa 0,0 l/m 4,9 km/h (1 Bft) O-SO 110 0 min 0,000 mm 0,0 UV-I 0 W/m 6,3 C 14,7 C 6,4 km/h (2 Bft) 97,87 %
12.04.2018 00:05 14,6 C 10,0 C 57 % 1002,7 hPa 0,0 l/m 4,3 km/h (1 Bft) O-SO 110 0 min 0,000 mm 0,0 UV-I 0 W/m 6,2 C 14,6 C 4,8 km/h (1 Bft) 91,67 %
12.04.2018 00:06 14,6 C 10,0 C 57 % 1002,7 hPa 0,0 l/m 6,1 km/h (2 Bft) O-SO 104 0 min 0,000 mm 0,0 UV-I 0 W/m 6,2 C 14,6 C 9,7 km/h (2 Bft) 100,00 %
12.04.2018 00:07 14,6 C 10,0 C 57 % 1002,8 hPa 0,0 l/m 5,1 km/h (1 Bft) O-SO 113 0 min 0,000 mm 0,0 UV-I 0 W/m 6,2 C 14,6 C 9,7 km/h (2 Bft) 100,00 %
12.04.2018 00:08 14,6 C 10,0 C 56 % 1002,8 hPa 0,0 l/m 6,7 km/h (2 Bft) O 101 0 min 0,000 mm 0,0 UV-I 0 W/m 5,9 C 14,4 C 11,3 km/h (2 Bft) 100,00 %
12.04.2018 00:09 14,7 C 10,0 C 56 % 1002,7 hPa 0,0 l/m 6,3 km/h (2 Bft) O 82 0 min 0,000 mm 0,0 UV-I 0 W/m 6,0 C 14,7 C 12,9 km/h (3 Bft) 100,00 %
12.04.2018 00:10 14,8 C 10,0 C 55 % 1002,8 hPa 0,0 l/m 10,0 km/h (2 Bft) O-SO 121 0 min 0,000 mm 0,0 UV-I 0 W/m 5,8 C 12,9 C 14,5 km/h (3 Bft) 100,00 %
12.04.2018 00:11 15,1 C 10,0 C 54 % 1002,7 hPa 0,0 l/m 9,1 km/h (2 Bft) O-NO 74 0 min 0,000 mm 0,0 UV-I 0 W/m 5,9 C 13,6 C 12,9 km/h (3 Bft) 100,00 %
12.04.2018 00:12 15,2 C 10,0 C 54 % 1002,7 hPa 0,0 l/m 8,6 km/h (2 Bft) O-SO 102 0 min 0,000 mm 0,0 UV-I 0 W/m 6,0 C 14,0 C 12,9 km/h (3 Bft) 96,15 %
12.04.2018 00:13 15,3 C 10,0 C 54 % 1002,7 hPa 0,0 l/m 5,1 km/h (1 Bft) O 86 0 min 0,000 mm 0,0 UV-I 0 W/m 6,0 C 15,3 C 6,4 km/h (2 Bft) 100,00 %
12.04.2018 00:14 15,3 C 10,0 C 53 % 1002,7 hPa 0,0 l/m 5,6 km/h (1 Bft) O 94 0 min 0,000 mm 0,0 UV-I 0 W/m 5,8 C 15,3 C 6,4 km/h (2 Bft) 100,00 %
12.04.2018 00:15 15,3 C 10,0 C 53 % 1002,7 hPa 0,0 l/m 4,1 km/h (1 Bft) O-SO 102 0 min 0,000 mm 0,0 UV-I 0 W/m 5,8 C 15,3 C 4,8 km/h (1 Bft) 100,00 %
12.04.2018 00:16 15,4 C 10,0 C 53 % 1002,7 hPa 0,0 l/m 4,5 km/h (1 Bft) O-SO 103 0 min 0,000 mm 0,0 UV-I 0 W/m 5,9 C 15,4 C 6,4 km/h (2 Bft) 100,00 %
12.04.2018 00:17 15,4 C 10,0 C 53 % 1002,6 hPa 0,0 l/m 5,4 km/h (1 Bft) O 91 0 min 0,000 mm 0,0 UV-I 0 W/m 5,9 C 15,4 C 6,4 km/h (2 Bft) 100,00 %
12.04.2018 00:18 15,3 C 10,0 C 54 % 1002,6 hPa 0,0 l/m 5,1 km/h (1 Bft) O-SO 113 0 min 0,000 mm 0,0 UV-I 0 W/m 6,0 C 15,3 C 6,4 km/h (2 Bft) 100,00 %
12.04.2018 00:19 15,2 C 10,0 C 54 % 1002,7 hPa 0,0 l/m 4,8 km/h (1 Bft) O-SO 102 0 min 0,000 mm 0,0 UV-I 0 W/m 6,0 C 15,2 C 6,4 km/h (2 Bft) 100,00 %
12.04.2018 00:20 15,2 C 10,0 C 55 % 1002,7 hPa 0,0 l/m 6,1 km/h (2 Bft) O-NO 71 0 min 0,000 mm 0,0 UV-I 0 W/m 6,2 C 15,2 C 11,3 km/h (2 Bft) 100,00 %
12.04.2018 00:21 15,1 C 10,0 C 54 % 1002,6 hPa 0,0 l/m 8,5 km/h (2 Bft) O-SO 107 0 min 0,000 mm 0,0 UV-I 0 W/m 5,9 C 13,9 C 11,3 km/h (2 Bft) 96,30 %
12.04.2018 00:22 15,1 C 10,0 C 54 % 1002,6 hPa 0,0 l/m 9,9 km/h (2 Bft) O 101 0 min 0,000 mm 0,0 UV-I 0 W/m 5,9 C 13,3 C 16,1 km/h (3 Bft) 100,00 %
12.04.2018 00:23 15,1 C 10,0 C 55 % 1002,6 hPa 0,0 l/m 7,7 km/h (2 Bft) O-SO 113 0 min 0,000 mm 0,0 UV-I 0 W/m 6,1 C 14,4 C 14,5 km/h (3 Bft) 100,00 %
12.04.2018 00:24 15,2 C 10,0 C 54 % 1002,7 hPa 0,0 l/m 11,0 km/h (2 Bft) O-SO 120 0 min 0,000 mm 0,0 UV-I 0 W/m 6,0 C 12,9 C 14,5 km/h (3 Bft) 100,00 %
12.04.2018 00:25 15,3 C 10,0 C 54 % 1002,6 hPa 0,0 l/m 10,9 km/h (2 Bft) O-SO 115 0 min 0,000 mm 0,0 UV-I 0 W/m 6,0 C 13,1 C 19,3 km/h (3 Bft) 100,00 %
12.04.2018 00:26 15,3 C 10,0 C 54 % 1002,6 hPa 0,0 l/m 15,2 km/h (3 Bft) O 100 0 min 0,000 mm 0,0 UV-I 0 W/m 6,0 C 11,5 C 20,9 km/h (4 Bft) 100,00 %
12.04.2018 00:27 15,4 C 10,0 C 54 % 1002,6 hPa 0,0 l/m 15,1 km/h (3 Bft) O-SO 105 0 min 0,000 mm 0,0 UV-I 0 W/m 6,1 C 11,6 C 20,9 km/h (4 Bft) 100,00 %
12.04.2018 00:28 15,6 C 10,0 C 53 % 1002,5 hPa 0,0 l/m 13,1 km/h (3 Bft) O-SO 113 0 min 0,000 mm 0,0 UV-I 0 W/m 6,1 C 12,6 C 17,7 km/h (3 Bft) 100,00 %
12.04.2018 00:29 15,6 C 10,0 C 53 % 1002,6 hPa 0,0 l/m 12,1 km/h (2 Bft) O 91 0 min 0,000 mm 0,0 UV-I 0 W/m 6,1 C 12,9 C 14,5 km/h (3 Bft) 100,00 %
12.04.2018 00:30 15,6 C 10,0 C 53 % 1002,6 hPa 0,0 l/m 15,3 km/h (3 Bft) O 90 0 min 0,000 mm 0,0 UV-I 0 W/m 6,1 C 11,8 C 19,3 km/h (3 Bft) 100,00 %
12.04.2018 00:31 15,6 C 10,0 C 53 % 1002,5 hPa 0,0 l/m 12,8 km/h (3 Bft) O 96 0 min 0,000 mm 0,0 UV-I 0 W/m 6,1 C 12,7 C 17,7 km/h (3 Bft) 100,00 %
12.04.2018 00:32 15,6 C 10,0 C 54 % 1002,6 hPa 0,0 l/m 16,6 km/h (3 Bft) O 89 0 min 0,000 mm 0,0 UV-I 0 W/m 6,3 C 11,4 C 20,9 km/h (4 Bft) 100,00 %
12.04.2018 00:33 15,6 C 10,0 C 54 % 1002,6 hPa 0,0 l/m 14,4 km/h (3 Bft) O 90 0 min 0,000 mm 0,0 UV-I 0 W/m 6,3 C 12,1 C 17,7 km/h (3 Bft) 100,00 %
12.04.2018 00:34 15,5 C 10,0 C 55 % 1002,6 hPa 0,0 l/m 11,7 km/h (2 Bft) O-NO 62 0 min 0,000 mm 0,0 UV-I 0 W/m 6,5 C 13,0 C 17,7 km/h (3 Bft) 100,00 %
12.04.2018 00:35 15,4 C 10,0 C 55 % 1002,6 hPa 0,0 l/m 13,7 km/h (3 Bft) O-NO 78 0 min 0,000 mm 0,0 UV-I 0 W/m 6,4 C 12,1 C 17,7 km/h (3 Bft) 100,00 %
12.04.2018 00:36 15,3 C 10,0 C 55 % 1002,6 hPa 0,0 l/m 15,8 km/h (3 Bft) O-NO 67 0 min 0,000 mm 0,0 UV-I 0 W/m 6,3 C 11,3 C 17,7 km/h (3 Bft) 100,00 %
12.04.2018 00:37 15,2 C 10,0 C 56 % 1002,6 hPa 0,0 l/m 13,6 km/h (3 Bft) O 86 0 min 0,000 mm 0,0 UV-I 0 W/m 6,5 C 11,9 C 16,1 km/h (3 Bft) 100,00 %
12.04.2018 00:38 15,1 C 10,0 C 57 % 1002,6 hPa 0,0 l/m 11,9 km/h (2 Bft) O 80 0 min 0,000 mm 0,0 UV-I 0 W/m 6,6 C 12,4 C 14,5 km/h (3 Bft) 100,00 %
12.04.2018 00:39 14,9 C 10,0 C 57 % 1002,6 hPa 0,0 l/m 15,3 km/h (3 Bft) O-NO 67 0 min 0,000 mm 0,0 UV-I 0 W/m 6,5 C 11,0 C 19,3 km/h (3 Bft) 100,00 %
12.04.2018 00:40 14,9 C 10,0 C 57 % 1002,6 hPa 0,0 l/m 16,0 km/h (3 Bft) O-NO 69 0 min 0,000 mm 0,0 UV-I 0 W/m 6,5 C 10,7 C 19,3 km/h (3 Bft) 100,00 %
12.04.2018 00:41 14,8 C 10,0 C 57 % 1002,6 hPa 0,0 l/m 14,2 km/h (3 Bft) O 82 0 min 0,000 mm 0,0 UV-I 0 W/m 6,4 C 11,2 C 16,1 km/h (3 Bft) 100,00 %
12.04.2018 00:42 14,8 C 10,0 C 58 % 1002,6 hPa 0,0 l/m 16,2 km/h (3 Bft) O-NO 69 0 min 0,000 mm 0,0 UV-I 0 W/m 6,6 C 10,6 C 19,3 km/h (3 Bft) 100,00 %
12.04.2018 00:43 14,8 C 10,0 C 57 % 1002,6 hPa 0,0 l/m 16,3 km/h (3 Bft) O-NO 74 0 min 0,000 mm 0,0 UV-I 0 W/m 6,4 C 10,5 C 17,7 km/h (3 Bft) 96,30 %
12.04.2018 00:44 14,8 C 10,0 C 58 % 1002,6 hPa 0,0 l/m 17,6 km/h (3 Bft) O-NO 67 0 min 0,000 mm 0,0 UV-I 0 W/m 6,6 C 10,1 C 20,9 km/h (4 Bft) 100,00 %
12.04.2018 00:45 14,8 C 10,0 C 58 % 1002,6 hPa 0,0 l/m 15,1 km/h (3 Bft) O 82 0 min 0,000 mm 0,0 UV-I 0 W/m 6,6 C 10,9 C 19,3 km/h (3 Bft) 100,00 %
12.04.2018 00:46 14,8 C 10,0 C 58 % 1002,6 hPa 0,0 l/m 13,8 km/h (3 Bft) O-NO 59 0 min 0,000 mm 0,0 UV-I 0 W/m 6,6 C 11,4 C 19,3 km/h (3 Bft) 100,00 %
12.04.2018 00:47 14,8 C 10,0 C 58 % 1002,6 hPa 0,0 l/m 13,7 km/h (3 Bft) O-NO 63 0 min 0,000 mm 0,0 UV-I 0 W/m 6,6 C 11,4 C 17,7 km/h (3 Bft) 100,00 %
12.04.2018 00:48 14,8 C 10,0 C 57 % 1002,6 hPa 0,0 l/m 15,0 km/h (3 Bft) O-NO 73 0 min 0,000 mm 0,0 UV-I 0 W/m 6,4 C 10,9 C 19,3 km/h (3 Bft) 100,00 %
12.04.2018 00:49 14,9 C 10,0 C 57 % 1002,6 hPa 0,0 l/m 14,4 km/h (3 Bft) O 86 0 min 0,000 mm 0,0 UV-I 0 W/m 6,5 C 11,3 C 19,3 km/h (3 Bft) 100,00 %
12.04.2018 00:50 14,9 C 10,0 C 58 % 1002,6 hPa 0,0 l/m 12,7 km/h (3 Bft) O 86 0 min 0,000 mm 0,0 UV-I 0 W/m 6,7 C 11,9 C 16,1 km/h (3 Bft) 100,00 %
12.04.2018 00:51 14,8 C 10,0 C 58 % 1002,7 hPa 0,0 l/m 12,7 km/h (3 Bft) O 94 0 min 0,000 mm 0,0 UV-I 0 W/m 6,6 C 11,8 C 16,1 km/h (3 Bft) 100,00 %
12.04.2018 00:52 14,8 C 10,0 C 58 % 1002,7 hPa 0,0 l/m 12,8 km/h (3 Bft) O 83 0 min 0,000 mm 0,0 UV-I 0 W/m 6,6 C 11,7 C 16,1 km/h (3 Bft) 100,00 %
12.04.2018 00:53 14,8 C 10,0 C 58 % 1002,6 hPa 0,0 l/m 12,3 km/h (3 Bft) O 82 0 min 0,000 mm 0,0 UV-I 0 W/m 6,6 C 11,9 C 17,7 km/h (3 Bft) 100,00 %
12.04.2018 00:54 14,8 C 10,0 C 58 % 1002,6 hPa 0,0 l/m 12,5 km/h (3 Bft) O-SO 105 0 min 0,000 mm 0,0 UV-I 0 W/m 6,6 C 11,8 C 16,1 km/h (3 Bft) 100,00 %
12.04.2018 00:55 14,8 C 10,0 C 58 % 1002,6 hPa 0,0 l/m 12,5 km/h (3 Bft) O-NO 77 0 min 0,000 mm 0,0 UV-I 0 W/m 6,6 C 11,8 C 17,7 km/h (3 Bft) 100,00 %
12.04.2018 00:56 14,7 C 10,0 C 58 % 1002,6 hPa 0,0 l/m 12,4 km/h (3 Bft) O 92 0 min 0,000 mm 0,0 UV-I 0 W/m 6,5 C 11,8 C 20,9 km/h (4 Bft) 100,00 %
12.04.2018 00:57 14,8 C 10,0 C 58 % 1002,6 hPa 0,0 l/m 16,3 km/h (3 Bft) O 101 0 min 0,000 mm 0,0 UV-I 0 W/m 6,6 C 10,5 C 22,5 km/h (4 Bft) 100,00 %
12.04.2018 00:58 14,9 C 10,0 C 57 % 1002,5 hPa 0,0 l/m 12,6 km/h (3 Bft) O 97 0 min 0,000 mm 0,0 UV-I 0 W/m 6,5 C 11,9 C 14,5 km/h (3 Bft) 100,00 %
12.04.2018 00:59 14,9 C 10,0 C 57 % 1002,5 hPa 0,0 l/m 14,8 km/h (3 Bft) O-SO 102 0 min 0,000 mm 0,0 UV-I 0 W/m 6,5 C 11,1 C 19,3 km/h (3 Bft) 100,00 %
12.04.2018 01:00 15,0 C 10,0 C 57 % 1002,5 hPa 0,0 l/m 13,3 km/h (3 Bft) O-SO 111 0 min 0,076 mm 0,0 UV-I 0 W/m 6,6 C 11,8 C 16,1 km/h (3 Bft) 100,00 %
12.04.2018 01:01 15,0 C 10,0 C 57 % 1002,5 hPa 0,0 l/m 14,0 km/h (3 Bft) SO 134 0 min 0,000 mm 0,0 UV-I 0 W/m 6,6 C 11,5 C 20,9 km/h (4 Bft) 100,00 %
12.04.2018 01:02 15,1 C 10,0 C 57 % 1002,5 hPa 0,0 l/m 19,4 km/h (3 Bft) O-SO 114 0 min 0,000 mm 0,0 UV-I 0 W/m 6,6 C 10,0 C 29,0 km/h (5 Bft) 100,00 %
12.04.2018 01:03 15,1 C 10,0 C 57 % 1002,5 hPa 0,0 l/m 17,7 km/h (3 Bft) SO 131 0 min 0,000 mm 0,0 UV-I 0 W/m 6,6 C 10,5 C 22,5 km/h (4 Bft) 96,15 %
12.04.2018 01:04 15,2 C 10,0 C 57 % 1002,5 hPa 0,0 l/m 11,9 km/h (2 Bft) SO 130 0 min 0,000 mm 0,0 UV-I 0 W/m 6,7 C 12,5 C 16,1 km/h (3 Bft) 100,00 %
12.04.2018 01:05 15,2 C 10,0 C 56 % 1002,5 hPa 0,0 l/m 10,7 km/h (2 Bft) O 98 0 min 0,000 mm 0,0 UV-I 0 W/m 6,5 C 13,0 C 12,9 km/h (3 Bft) 100,00 %
12.04.2018 01:06 15,2 C 10,0 C 56 % 1002,5 hPa 0,0 l/m 11,5 km/h (2 Bft) O-SO 103 0 min 0,000 mm 0,0 UV-I 0 W/m 6,5 C 12,7 C 19,3 km/h (3 Bft) 100,00 %
12.04.2018 01:07 15,2 C 10,0 C 57 % 1002,5 hPa 0,0 l/m 16,9 km/h (3 Bft) O-SO 113 0 min 0,000 mm 0,0 UV-I 0 W/m 6,7 C 10,8 C 20,9 km/h (4 Bft) 100,00 %
12.04.2018 01:08 15,2 C 10,0 C 57 % 1002,5 hPa 0,0 l/m 16,7 km/h (3 Bft) O-SO 106 0 min 0,000 mm 0,0 UV-I 0 W/m 6,7 C 10,9 C 22,5 km/h (4 Bft) 100,00 %
12.04.2018 01:09 15,2 C 10,0 C 56 % 1002,5 hPa 0,0 l/m 18,4 km/h (3 Bft) O 94 0 min 0,000 mm 0,0 UV-I 0 W/m 6,5 C 10,4 C 22,5 km/h (4 Bft) 100,00 %
12.04.2018 01:10 15,2 C 10,0 C 56 % 1002,5 hPa 0,0 l/m 15,6 km/h (3 Bft) O 95 0 min 0,000 mm 0,0 UV-I 0 W/m 6,5 C 11,2 C 20,9 km/h (4 Bft) 100,00 %
12.04.2018 01:11 15,2 C 10,0 C 56 % 1002,5 hPa 0,0 l/m 15,9 km/h (3 Bft) O 83 0 min 0,000 mm 0,0 UV-I 0 W/m 6,5 C 11,1 C 24,1 km/h (4 Bft) 100,00 %
12.04.2018 01:12 15,2 C 10,0 C 57 % 1002,5 hPa 0,0 l/m 15,4 km/h (3 Bft) O 98 0 min 0,000 mm 0,0 UV-I 0 W/m 6,7 C 11,3 C 22,5 km/h (4 Bft) 100,00 %
12.04.2018 01:13 15,2 C 10,0 C 57 % 1002,5 hPa 0,0 l/m 13,4 km/h (3 Bft) O-SO 111 0 min 0,000 mm 0,0 UV-I 0 W/m 6,7 C 12,0 C 19,3 km/h (3 Bft) 100,00 %
12.04.2018 01:14 15,2 C 10,0 C 57 % 1002,5 hPa 0,0 l/m 12,9 km/h (3 Bft) O-SO 107 0 min 0,000 mm 0,0 UV-I 0 W/m 6,7 C 12,2 C 16,1 km/h (3 Bft) 100,00 %
12.04.2018 01:15 15,2 C 10,0 C 57 % 1002,5 hPa 0,0 l/m 16,7 km/h (3 Bft) O-SO 109 0 min 0,000 mm 0,0 UV-I 0 W/m 6,7 C 10,9 C 27,4 km/h (4 Bft) 100,00 %
12.04.2018 01:16 15,2 C 10,0 C 57 % 1002,5 hPa 0,0 l/m 16,9 km/h (3 Bft) O-SO 119 0 min 0,000 mm 0,0 UV-I 0 W/m 6,7 C 10,8 C 20,9 km/h (4 Bft) 100,00 %
12.04.2018 01:17 15,2 C 10,0 C 57 % 1002,5 hPa 0,0 l/m 17,5 km/h (3 Bft) O 83 0 min 0,000 mm 0,0 UV-I 0 W/m 6,7 C 10,7 C 24,1 km/h (4 Bft) 100,00 %
12.04.2018 01:18 15,1 C 10,0 C 57 % 1002,5 hPa 0,0 l/m 19,0 km/h (3 Bft) O 96 0 min 0,000 mm 0,0 UV-I 0 W/m 6,6 C 10,1 C 25,7 km/h (4 Bft) 100,00 %
12.04.2018 01:19 15,1 C 10,0 C 57 % 1002,5 hPa 0,0 l/m 18,2 km/h (3 Bft) O-SO 106 0 min 0,000 mm 0,0 UV-I 0 W/m 6,6 C 10,4 C 22,5 km/h (4 Bft) 100,00 %
12.04.2018 01:20 15,1 C 10,0 C 57 % 1002,5 hPa 0,0 l/m 19,0 km/h (3 Bft) O-SO 105 0 min 0,000 mm 0,0 UV-I 0 W/m 6,6 C 10,1 C 24,1 km/h (4 Bft) 100,00 %
12.04.2018 01:21 15,1 C 10,0 C 57 % 1002,5 hPa 0,0 l/m 17,0 km/h (3 Bft) O 84 0 min 0,000 mm 0,0 UV-I 0 W/m 6,6 C 10,7 C 24,1 km/h (4 Bft) 100,00 %
12.04.2018 01:22 15,1 C 10,0 C 58 % 1002,4 hPa 0,0 l/m 17,5 km/h (3 Bft) O-NO 74 0 min 0,000 mm 0,0 UV-I 0 W/m 6,9 C 10,5 C 22,5 km/h (4 Bft) 96,15 %
12.04.2018 01:23 15,0 C 10,0 C 58 % 1002,4 hPa 0,0 l/m 15,0 km/h (3 Bft) O 85 0 min 0,000 mm 0,0 UV-I 0 W/m 6,8 C 11,2 C 22,5 km/h (4 Bft) 95,83 %
12.04.2018 01:24 15,0 C 10,0 C 58 % 1002,4 hPa 0,0 l/m 14,5 km/h (3 Bft) O 90 0 min 0,000 mm 0,0 UV-I 0 W/m 6,8 C 11,4 C 19,3 km/h (3 Bft) 96,15 %
12.04.2018 01:25 15,0 C 10,0 C 58 % 1002,4 hPa 0,0 l/m 15,9 km/h (3 Bft) O-NO 69 0 min 0,000 mm 0,0 UV-I 0 W/m 6,8 C 10,9 C 20,9 km/h (4 Bft) 92,59 %
12.04.2018 01:26 14,9 C 10,0 C 58 % 1002,3 hPa 0,0 l/m 17,6 km/h (3 Bft) O-NO 75 0 min 0,000 mm 0,0 UV-I 0 W/m 6,7 C 10,3 C 22,5 km/h (4 Bft) 99,40 %
12.04.2018 01:27 14,9 C 10,0 C 58 % 1002,3 hPa 0,0 l/m 15,8 km/h (3 Bft) O 92 0 min 0,000 mm 0,0 UV-I 0 W/m 6,7 C 10,8 C 19,3 km/h (3 Bft) 93,18 %
12.04.2018 01:28 14,9 C 10,0 C 59 % 1002,3 hPa 0,0 l/m 13,8 km/h (3 Bft) O-NO 60 0 min 0,000 mm 0,0 UV-I 0 W/m 7,0 C 11,5 C 17,7 km/h (3 Bft) 96,15 %
12.04.2018 01:29 14,8 C 10,0 C 59 % 1002,3 hPa 0,0 l/m 11,6 km/h (2 Bft) O 90 0 min 0,000 mm 0,0 UV-I 0 W/m 6,9 C 12,2 C 17,7 km/h (3 Bft) 96,30 %
12.04.2018 01:30 14,8 C 10,0 C 59 % 1002,3 hPa 0,0 l/m 13,1 km/h (3 Bft) O-NO 69 0 min 0,000 mm 0,0 UV-I 0 W/m 6,9 C 11,6 C 14,5 km/h (3 Bft) 90,91 %
12.04.2018 01:31 14,8 C 10,0 C 59 % 1002,3 hPa 0,0 l/m 13,5 km/h (3 Bft) O-NO 61 0 min 0,000 mm 0,0 UV-I 0 W/m 6,9 C 11,5 C 20,9 km/h (4 Bft) 96,97 %
12.04.2018 01:32 14,7 C 10,0 C 59 % 1002,2 hPa 0,0 l/m 13,9 km/h (3 Bft) O-NO 74 0 min 0,000 mm 0,0 UV-I 0 W/m 6,8 C 11,2 C 17,7 km/h (3 Bft) 88,46 %
12.04.2018 01:33 14,7 C 10,0 C 59 % 1002,2 hPa 0,0 l/m 15,2 km/h (3 Bft) O-NO 73 0 min 0,000 mm 0,0 UV-I 0 W/m 6,8 C 10,8 C 17,7 km/h (3 Bft) 100,00 %
12.04.2018 01:34 14,7 C 10,0 C 59 % 1002,3 hPa 0,0 l/m 13,4 km/h (3 Bft) O-NO 68 0 min 0,000 mm 0,0 UV-I 0 W/m 6,8 C 11,4 C 19,3 km/h (3 Bft) 96,15 %
12.04.2018 01:35 14,7 C 10,0 C 59 % 1002,3 hPa 0,0 l/m 14,2 km/h (3 Bft) O 84 0 min 0,000 mm 0,0 UV-I 0 W/m 6,8 C 11,1 C 19,3 km/h (3 Bft) 96,30 %
12.04.2018 01:36 14,7 C 10,0 C 60 % 1002,2 hPa 0,0 l/m 13,7 km/h (3 Bft) O-NO 69 0 min 0,000 mm 0,0 UV-I 0 W/m 7,0 C 11,3 C 17,7 km/h (3 Bft) 91,30 %
12.04.2018 01:37 14,6 C 10,0 C 60 % 1002,2 hPa 0,0 l/m 16,5 km/h (3 Bft) O 84 0 min 0,000 mm 0,0 UV-I 0 W/m 6,9 C 10,2 C 22,5 km/h (4 Bft) 95,83 %
12.04.2018 01:38 14,6 C 10,0 C 60 % 1002,3 hPa 0,0 l/m 13,6 km/h (3 Bft) O 84 0 min 0,000 mm 0,0 UV-I 0 W/m 6,9 C 11,2 C 17,7 km/h (3 Bft) 95,83 %
12.04.2018 01:39 14,6 C 10,0 C 61 % 1002,3 hPa 0,0 l/m 11,7 km/h (2 Bft) O 82 0 min 0,000 mm 0,0 UV-I 0 W/m 7,2 C 11,9 C 16,1 km/h (3 Bft) 91,30 %
12.04.2018 01:40 14,5 C 10,0 C 61 % 1002,3 hPa 0,0 l/m 10,3 km/h (2 Bft) O 100 0 min 0,000 mm 0,0 UV-I 0 W/m 7,1 C 12,4 C 14,5 km/h (3 Bft) 95,83 %
12.04.2018 01:41 14,4 C 10,0 C 61 % 1002,3 hPa 0,0 l/m 10,4 km/h (2 Bft) O 97 0 min 0,000 mm 0,0 UV-I 0 W/m 7,0 C 12,3 C 16,1 km/h (3 Bft) 92,31 %
12.04.2018 01:42 14,4 C 10,0 C 61 % 1002,2 hPa 0,0 l/m 12,4 km/h (3 Bft) O-NO 72 0 min 0,000 mm 0,0 UV-I 0 W/m 7,0 C 11,4 C 16,1 km/h (3 Bft) 100,00 %
12.04.2018 01:43 14,4 C 10,0 C 61 % 1002,2 hPa 0,0 l/m 12,5 km/h (3 Bft) O-NO 77 0 min 0,000 mm 0,0 UV-I 0 W/m 7,0 C 11,4 C 16,1 km/h (3 Bft) 92,86 %
12.04.2018 01:44 14,4 C 10,0 C 61 % 1002,2 hPa 0,0 l/m 13,0 km/h (3 Bft) O 90 0 min 0,000 mm 0,0 UV-I 0 W/m 7,0 C 11,2 C 17,7 km/h (3 Bft) 96,30 %
12.04.2018 01:45 14,4 C 10,0 C 61 % 1002,3 hPa 0,0 l/m 12,9 km/h (3 Bft) O 101 0 min 0,000 mm 0,0 UV-I 0 W/m 7,0 C 11,2 C 14,5 km/h (3 Bft) 88,46 %
12.04.2018 01:46 14,4 C 10,0 C 61 % 1002,2 hPa 0,0 l/m 11,7 km/h (2 Bft) O 95 0 min 0,000 mm 0,0 UV-I 0 W/m 7,0 C 11,7 C 14,5 km/h (3 Bft) 92,59 %
12.04.2018 01:47 14,4 C 10,0 C 61 % 1002,2 hPa 0,0 l/m 10,9 km/h (2 Bft) O 92 0 min 0,000 mm 0,0 UV-I 0 W/m 7,0 C 12,0 C 16,1 km/h (3 Bft) 95,65 %
12.04.2018 01:48 14,3 C 10,0 C 62 % 1002,2 hPa 0,0 l/m 11,5 km/h (2 Bft) O-SO 103 0 min 0,000 mm 0,0 UV-I 0 W/m 7,1 C 11,7 C 12,9 km/h (3 Bft) 100,00 %
12.04.2018 01:49 14,3 C 10,0 C 62 % 1002,2 hPa 0,0 l/m 10,2 km/h (2 Bft) O 91 0 min 0,000 mm 0,0 UV-I 0 W/m 7,1 C 12,3 C 12,9 km/h (3 Bft) 92,31 %
12.04.2018 01:50 14,3 C 10,0 C 62 % 1002,2 hPa 0,0 l/m 13,8 km/h (3 Bft) O-SO 107 0 min 0,000 mm 0,0 UV-I 0 W/m 7,1 C 10,8 C 19,3 km/h (3 Bft) 90,00 %
12.04.2018 01:51 14,3 C 10,0 C 62 % 1002,2 hPa 0,0 l/m 14,8 km/h (3 Bft) O-NO 76 0 min 0,000 mm 0,0 UV-I 0 W/m 7,1 C 10,4 C 20,9 km/h (4 Bft) 100,00 %
12.04.2018 01:52 14,4 C 10,0 C 61 % 1002,1 hPa 0,0 l/m 16,5 km/h (3 Bft) O 84 0 min 0,000 mm 0,0 UV-I 0 W/m 7,0 C 10,0 C 20,9 km/h (4 Bft) 91,67 %
12.04.2018 01:53 14,4 C 10,0 C 61 % 1002,1 hPa 0,0 l/m 15,8 km/h (3 Bft) O 101 0 min 0,000 mm 0,0 UV-I 0 W/m 7,0 C 10,2 C 19,3 km/h (3 Bft) 100,00 %
12.04.2018 01:54 14,5 C 10,0 C 61 % 1002,1 hPa 0,0 l/m 14,0 km/h (3 Bft) O 97 0 min 0,000 mm 0,0 UV-I 0 W/m 7,1 C 10,9 C 19,3 km/h (3 Bft) 89,66 %
12.04.2018 01:55 14,6 C 10,0 C 61 % 1002,1 hPa 0,0 l/m 14,1 km/h (3 Bft) O-SO 105 0 min 0,000 mm 0,0 UV-I 0 W/m 7,2 C 11,0 C 17,7 km/h (3 Bft) 100,00 %
12.04.2018 01:56 14,6 C 10,0 C 61 % 1002,1 hPa 0,0 l/m 16,1 km/h (3 Bft) O-SO 107 0 min 0,000 mm 0,0 UV-I 0 W/m 7,2 C 10,3 C 20,9 km/h (4 Bft) 91,67 %
12.04.2018 01:57 14,6 C 10,0 C 60 % 1002,1 hPa 0,0 l/m 14,2 km/h (3 Bft) O-SO 106 0 min 0,000 mm 0,0 UV-I 0 W/m 6,9 C 11,0 C 19,3 km/h (3 Bft) 96,55 %
12.04.2018 01:58 14,6 C 10,0 C 61 % 1002,2 hPa 0,0 l/m 15,9 km/h (3 Bft) O 98 0 min 0,000 mm 0,0 UV-I 0 W/m 7,2 C 10,4 C 20,9 km/h (4 Bft) 100,00 %
12.04.2018 01:59 14,6 C 10,0 C 61 % 1002,1 hPa 0,0 l/m 15,0 km/h (3 Bft) O 101 0 min 0,000 mm 0,0 UV-I 0 W/m 7,2 C 10,7 C 19,3 km/h (3 Bft) 100,00 %
12.04.2018 02:00 14,7 C 10,0 C 60 % 1002,1 hPa 0,0 l/m 16,4 km/h (3 Bft) O-NO 76 0 min 0,076 mm 0,0 UV-I 0 W/m 7,0 C 10,4 C 20,9 km/h (4 Bft) 92,86 %
12.04.2018 02:01 14,7 C 10,0 C 60 % 1002,1 hPa 0,0 l/m 14,7 km/h (3 Bft) O-SO 102 0 min 0,000 mm 0,0 UV-I 0 W/m 7,0 C 10,9 C 19,3 km/h (3 Bft) 95,24 %
12.04.2018 02:02 14,7 C 10,0 C 60 % 1002,1 hPa 0,0 l/m 17,8 km/h (3 Bft) O 92 0 min 0,000 mm 0,0 UV-I 0 W/m 7,0 C 10,0 C 22,5 km/h (4 Bft) 100,00 %
12.04.2018 02:03 14,7 C 10,0 C 60 % 1002,1 hPa 0,0 l/m 11,8 km/h (2 Bft) O-SO 108 0 min 0,000 mm 0,0 UV-I 0 W/m 7,0 C 12,0 C 14,5 km/h (3 Bft) 100,00 %
12.04.2018 02:04 14,7 C 10,0 C 60 % 1002,1 hPa 0,0 l/m 12,6 km/h (3 Bft) O 84 0 min 0,000 mm 0,0 UV-I 0 W/m 7,0 C 11,7 C 17,7 km/h (3 Bft) 97,56 %
12.04.2018 02:05 14,7 C 10,0 C 61 % 1002,1 hPa 0,0 l/m 12,6 km/h (3 Bft) O 100 0 min 0,000 mm 0,0 UV-I 0 W/m 7,3 C 11,7 C 16,1 km/h (3 Bft) 91,67 %
12.04.2018 02:06 14,6 C 10,0 C 61 % 1002,1 hPa 0,0 l/m 12,6 km/h (3 Bft) O-NO 78 0 min 0,000 mm 0,0 UV-I 0 W/m 7,2 C 11,6 C 14,5 km/h (3 Bft) 100,00 %
12.04.2018 02:07 14,6 C 10,0 C 61 % 1002,0 hPa 0,0 l/m 10,3 km/h (2 Bft) O 94 0 min 0,000 mm 0,0 UV-I 0 W/m 7,2 C 12,5 C 16,1 km/h (3 Bft) 95,83 %
12.04.2018 02:08 14,5 C 10,0 C 62 % 1002,1 hPa 0,0 l/m 11,3 km/h (2 Bft) O 92 0 min 0,000 mm 0,0 UV-I 0 W/m 7,3 C 12,0 C 12,9 km/h (3 Bft) 100,00 %
12.04.2018 02:09 14,4 C 10,0 C 62 % 1002,1 hPa 0,0 l/m 11,9 km/h (2 Bft) O-SO 105 0 min 0,000 mm 0,0 UV-I 0 W/m 7,2 C 11,6 C 14,5 km/h (3 Bft) 91,67 %
12.04.2018 02:10 14,3 C 10,0 C 62 % 1002,0 hPa 0,0 l/m 10,3 km/h (2 Bft) O 94 0 min 0,000 mm 0,0 UV-I 0 W/m 7,1 C 12,2 C 14,5 km/h (3 Bft) 96,55 %
12.04.2018 02:11 14,3 C 10,0 C 62 % 1002,0 hPa 0,0 l/m 10,5 km/h (2 Bft) O 94 0 min 0,000 mm 0,0 UV-I 0 W/m 7,1 C 12,1 C 12,9 km/h (3 Bft) 100,00 %
12.04.2018 02:12 14,3 C 10,0 C 63 % 1001,9 hPa 0,0 l/m 11,6 km/h (2 Bft) SO 132 0 min 0,000 mm 0,0 UV-I 0 W/m 7,4 C 11,6 C 14,5 km/h (3 Bft) 96,55 %
12.04.2018 02:13 14,3 C 10,0 C 62 % 1001,9 hPa 0,0 l/m 11,0 km/h (2 Bft) O-SO 112 0 min 0,000 mm 0,0 UV-I 0 W/m 7,1 C 11,9 C 16,1 km/h (3 Bft) 100,00 %
12.04.2018 02:14 14,3 C 10,0 C 62 % 1001,9 hPa 0,0 l/m 13,2 km/h (3 Bft) O 95 0 min 0,000 mm 0,0 UV-I 0 W/m 7,1 C 11,0 C 17,7 km/h (3 Bft) 93,33 %
12.04.2018 02:15 14,3 C 10,0 C 62 % 1001,9 hPa 0,0 l/m 12,7 km/h (3 Bft) O-SO 114 0 min 0,000 mm 0,0 UV-I 0 W/m 7,1 C 11,2 C 16,1 km/h (3 Bft) 100,00 %
12.04.2018 02:16 14,4 C 10,0 C 62 % 1001,8 hPa 0,0 l/m 11,5 km/h (2 Bft) O-SO 106 0 min 0,000 mm 0,0 UV-I 0 W/m 7,2 C 11,8 C 16,1 km/h (3 Bft) 93,75 %
12.04.2018 02:17 14,4 C 10,0 C 62 % 1001,9 hPa 0,0 l/m 14,9 km/h (3 Bft) O 98 0 min 0,000 mm 0,0 UV-I 0 W/m 7,2 C 10,5 C 17,7 km/h (3 Bft) 100,00 %
12.04.2018 02:18 14,3 C 10,0 C 63 % 1001,8 hPa 0,0 l/m 13,3 km/h (3 Bft) O 88 0 min 0,000 mm 0,0 UV-I 0 W/m 7,4 C 11,0 C 17,7 km/h (3 Bft) 91,67 %
12.04.2018 02:19 14,3 C 10,0 C 63 % 1001,7 hPa 0,0 l/m 15,0 km/h (3 Bft) O-NO 70 0 min 0,000 mm 0,0 UV-I 0 W/m 7,4 C 10,3 C 19,3 km/h (3 Bft) 100,00 %
12.04.2018 02:20 14,3 C 10,0 C 63 % 1001,7 hPa 0,0 l/m 13,2 km/h (3 Bft) O-NO 74 0 min 0,000 mm 0,0 UV-I 0 W/m 7,4 C 11,0 C 17,7 km/h (3 Bft) 95,83 %
12.04.2018 02:21 14,3 C 10,0 C 63 % 1001,8 hPa 0,0 l/m 15,4 km/h (3 Bft) O-NO 64 0 min 0,000 mm 0,0 UV-I 0 W/m 7,4 C 10,2 C 19,3 km/h (3 Bft) 100,00 %
12.04.2018 02:22 14,3 C 10,0 C 63 % 1001,7 hPa 0,0 l/m 15,8 km/h (3 Bft) O-NO 68 0 min 0,000 mm 0,0 UV-I 0 W/m 7,4 C 10,1 C 20,9 km/h (4 Bft) 95,83 %
12.04.2018 02:23 14,3 C 10,0 C 63 % 1001,7 hPa 0,0 l/m 15,4 km/h (3 Bft) O-SO 111 0 min 0,000 mm 0,0 UV-I 0 W/m 7,4 C 10,2 C 20,9 km/h (4 Bft) 96,15 %
12.04.2018 02:24 14,2 C 10,0 C 63 % 1001,7 hPa 0,0 l/m 14,0 km/h (3 Bft) O 91 0 min 0,000 mm 0,0 UV-I 0 W/m 7,3 C 10,6 C 20,9 km/h (4 Bft) 96,30 %
12.04.2018 02:25 14,2 C 10,0 C 64 % 1001,7 hPa 0,0 l/m 16,3 km/h (3 Bft) O-SO 102 0 min 0,000 mm 0,0 UV-I 0 W/m 7,5 C 9,8 C 19,3 km/h (3 Bft) 92,86 %
12.04.2018 02:26 14,2 C 10,0 C 63 % 1001,7 hPa 0,0 l/m 17,2 km/h (3 Bft) O-SO 106 0 min 0,000 mm 0,0 UV-I 0 W/m 7,3 C 9,5 C 20,9 km/h (4 Bft) 100,00 %
12.04.2018 02:27 14,2 C 10,0 C 63 % 1001,7 hPa 0,0 l/m 13,4 km/h (3 Bft) O-SO 109 0 min 0,000 mm 0,0 UV-I 0 W/m 7,3 C 10,8 C 19,3 km/h (3 Bft) 96,55 %
12.04.2018 02:28 14,2 C 10,0 C 63 % 1001,6 hPa 0,0 l/m 13,0 km/h (3 Bft) O 81 0 min 0,000 mm 0,0 UV-I 0 W/m 7,3 C 11,0 C 17,7 km/h (3 Bft) 100,00 %
12.04.2018 02:29 14,2 C 10,0 C 63 % 1001,6 hPa 0,0 l/m 15,2 km/h (3 Bft) O-NO 68 0 min 0,000 mm 0,0 UV-I 0 W/m 7,3 C 10,2 C 22,5 km/h (4 Bft) 96,55 %
12.04.2018 02:30 14,2 C 10,0 C 63 % 1001,6 hPa 0,0 l/m 15,4 km/h (3 Bft) O-NO 76 0 min 0,000 mm 0,0 UV-I 0 W/m 7,3 C 10,1 C 20,9 km/h (4 Bft) 100,00 %
12.04.2018 02:31 14,2 C 10,0 C 63 % 1001,6 hPa 0,0 l/m 13,8 km/h (3 Bft) O-NO 75 0 min 0,000 mm 0,0 UV-I 0 W/m 7,3 C 10,6 C 19,3 km/h (3 Bft) 92,31 %
12.04.2018 02:32 14,2 C 10,0 C 64 % 1001,6 hPa 0,0 l/m 13,4 km/h (3 Bft) O 101 0 min 0,000 mm 0,0 UV-I 0 W/m 7,5 C 10,8 C 17,7 km/h (3 Bft) 100,00 %
12.04.2018 02:33 14,2 C 10,0 C 64 % 1001,6 hPa 0,0 l/m 11,8 km/h (2 Bft) O-NO 76 0 min 0,000 mm 0,0 UV-I 0 W/m 7,5 C 11,4 C 17,7 km/h (3 Bft) 100,00 %
12.04.2018 02:34 14,2 C 10,0 C 63 % 1001,6 hPa 0,0 l/m 13,1 km/h (3 Bft) O-NO 66 0 min 0,000 mm 0,0 UV-I 0 W/m 7,3 C 10,9 C 16,1 km/h (3 Bft) 100,00 %
12.04.2018 02:35 14,2 C 10,0 C 64 % 1001,6 hPa 0,0 l/m 12,8 km/h (3 Bft) O 90 0 min 0,000 mm 0,0 UV-I 0 W/m 7,5 C 11,0 C 16,1 km/h (3 Bft) 100,00 %
12.04.2018 02:36 14,1 C 10,0 C 64 % 1001,7 hPa 0,0 l/m 12,0 km/h (2 Bft) O 82 0 min 0,000 mm 0,0 UV-I 0 W/m 7,4 C 11,2 C 12,9 km/h (3 Bft) 100,00 %
12.04.2018 02:37 14,1 C 10,0 C 64 % 1001,6 hPa 0,0 l/m 11,5 km/h (2 Bft) O-NO 70 0 min 0,000 mm 0,0 UV-I 0 W/m 7,4 C 11,4 C 17,7 km/h (3 Bft) 97,92 %
12.04.2018 02:38 14,1 C 10,0 C 64 % 1001,6 hPa 0,0 l/m 13,5 km/h (3 Bft) O 101 0 min 0,000 mm 0,0 UV-I 0 W/m 7,4 C 10,6 C 17,7 km/h (3 Bft) 100,00 %
12.04.2018 02:39 14,1 C 10,0 C 64 % 1001,6 hPa 0,0 l/m 13,7 km/h (3 Bft) O 80 0 min 0,000 mm 0,0 UV-I 0 W/m 7,4 C 10,6 C 19,3 km/h (3 Bft) 100,00 %
12.04.2018 02:40 14,1 C 10,0 C 64 % 1001,6 hPa 0,0 l/m 13,8 km/h (3 Bft) O-SO 108 0 min 0,000 mm 0,0 UV-I 0 W/m 7,4 C 10,5 C 17,7 km/h (3 Bft) 100,00 %
12.04.2018 02:41 14,1 C 10,0 C 65 % 1001,6 hPa 0,0 l/m 12,2 km/h (2 Bft) O 84 0 min 0,000 mm 0,0 UV-I 0 W/m 7,6 C 11,2 C 14,5 km/h (3 Bft) 100,00 %
12.04.2018 02:42 13,9 C 10,0 C 65 % 1001,6 hPa 0,0 l/m 12,7 km/h (3 Bft) O-SO 105 0 min 0,000 mm 0,0 UV-I 0 W/m 7,4 C 10,7 C 17,7 km/h (3 Bft) 100,00 %
12.04.2018 02:43 13,9 C 10,0 C 65 % 1001,6 hPa 0,0 l/m 13,3 km/h (3 Bft) O 96 0 min 0,000 mm 0,0 UV-I 0 W/m 7,4 C 10,5 C 16,1 km/h (3 Bft) 100,00 %
12.04.2018 02:44 14,0 C 10,0 C 65 % 1001,6 hPa 0,0 l/m 13,4 km/h (3 Bft) O 94 0 min 0,000 mm 0,0 UV-I 0 W/m 7,5 C 10,6 C 16,1 km/h (3 Bft) 100,00 %
12.04.2018 02:45 14,0 C 10,0 C 64 % 1001,6 hPa 0,0 l/m 12,3 km/h (3 Bft) O-SO 113 0 min 0,000 mm 0,0 UV-I 0 W/m 7,3 C 11,0 C 16,1 km/h (3 Bft) 100,00 %
12.04.2018 02:46 14,1 C 10,0 C 64 % 1001,6 hPa 0,0 l/m 9,0 km/h (2 Bft) O 101 0 min 0,000 mm 0,0 UV-I 0 W/m 7,4 C 12,6 C 14,5 km/h (3 Bft) 100,00 %
12.04.2018 02:47 14,1 C 10,0 C 64 % 1001,6 hPa 0,0 l/m 10,1 km/h (2 Bft) O 88 0 min 0,000 mm 0,0 UV-I 0 W/m 7,4 C 12,1 C 12,9 km/h (3 Bft) 100,00 %
12.04.2018 02:48 14,1 C 10,0 C 64 % 1001,6 hPa 0,0 l/m 12,0 km/h (2 Bft) O-SO 115 0 min 0,000 mm 0,0 UV-I 0 W/m 7,4 C 11,2 C 17,7 km/h (3 Bft) 100,00 %
12.04.2018 02:49 14,1 C 10,0 C 64 % 1001,6 hPa 0,0 l/m 8,4 km/h (2 Bft) SO 134 0 min 0,000 mm 0,0 UV-I 0 W/m 7,4 C 12,9 C 12,9 km/h (3 Bft) 100,00 %
12.04.2018 02:50 14,2 C 10,0 C 63 % 1001,7 hPa 0,0 l/m 7,1 km/h (2 Bft) SO 132 0 min 0,000 mm 0,0 UV-I 0 W/m 7,3 C 13,8 C 14,5 km/h (3 Bft) 100,00 %
12.04.2018 02:51 14,2 C 10,0 C 63 % 1001,7 hPa 0,0 l/m 8,0 km/h (2 Bft) O-SO 111 0 min 0,000 mm 0,0 UV-I 0 W/m 7,3 C 13,3 C 11,3 km/h (2 Bft) 100,00 %
12.04.2018 02:52 14,2 C 10,0 C 63 % 1001,6 hPa 0,0 l/m 12,2 km/h (2 Bft) O-SO 102 0 min 0,000 mm 0,0 UV-I 0 W/m 7,3 C 11,3 C 14,5 km/h (3 Bft) 100,00 %
12.04.2018 02:53 14,2 C 10,0 C 63 % 1001,6 hPa 0,0 l/m 10,8 km/h (2 Bft) O 88 0 min 0,000 mm 0,0 UV-I 0 W/m 7,3 C 11,9 C 16,1 km/h (3 Bft) 100,00 %
12.04.2018 02:54 14,2 C 10,0 C 63 % 1001,6 hPa 0,0 l/m 12,4 km/h (3 Bft) O 94 0 min 0,000 mm 0,0 UV-I 0 W/m 7,3 C 11,2 C 16,1 km/h (3 Bft) 100,00 %
12.04.2018 02:55 14,2 C 10,0 C 63 % 1001,6 hPa 0,0 l/m 13,9 km/h (3 Bft) O-SO 114 0 min 0,000 mm 0,0 UV-I 0 W/m 7,3 C 10,6 C 16,1 km/h (3 Bft) 100,00 %
12.04.2018 02:56 14,2 C 10,0 C 63 % 1001,6 hPa 0,0 l/m 12,9 km/h (3 Bft) O 100 0 min 0,000 mm 0,0 UV-I 0 W/m 7,3 C 11,0 C 16,1 km/h (3 Bft) 100,00 %
12.04.2018 02:57 14,2 C 10,0 C 63 % 1001,6 hPa 0,0 l/m 13,9 km/h (3 Bft) O-SO 115 0 min 0,000 mm 0,0 UV-I 0 W/m 7,3 C 10,6 C 17,7 km/h (3 Bft) 100,00 %
12.04.2018 02:58 14,1 C 10,0 C 64 % 1001,6 hPa 0,0 l/m 11,4 km/h (2 Bft) SO 136 0 min 0,000 mm 0,0 UV-I 0 W/m 7,4 C 11,5 C 14,5 km/h (3 Bft) 100,00 %
12.04.2018 02:59 14,1 C 10,0 C 64 % 1001,6 hPa 0,0 l/m 9,7 km/h (2 Bft) O-SO 105 0 min 0,000 mm 0,0 UV-I 0 W/m 7,4 C 12,3 C 12,9 km/h (3 Bft) 100,00 %
12.04.2018 03:00 14,1 C 10,0 C 64 % 1001,7 hPa 0,0 l/m 7,6 km/h (2 Bft) SO 131 0 min 0,000 mm 0,0 UV-I 0 W/m 7,4 C 13,4 C 9,7 km/h (2 Bft) 100,00 %
12.04.2018 03:01 14,1 C 10,0 C 64 % 1001,6 hPa 0,0 l/m 10,9 km/h (2 Bft) O-SO 115 0 min 0,051 mm 0,0 UV-I 0 W/m 7,4 C 11,7 C 14,5 km/h (3 Bft) 100,00 %
12.04.2018 03:02 14,0 C 10,0 C 64 % 1001,6 hPa 0,0 l/m 13,2 km/h (3 Bft) O-NO 66 0 min 0,000 mm 0,0 UV-I 0 W/m 7,3 C 10,6 C 16,1 km/h (3 Bft) 100,00 %
12.04.2018 03:03 14,0 C 10,0 C 64 % 1001,6 hPa 0,0 l/m 11,7 km/h (2 Bft) O 100 0 min 0,000 mm 0,0 UV-I 0 W/m 7,3 C 11,2 C 14,5 km/h (3 Bft) 100,00 %
12.04.2018 03:04 14,1 C 10,0 C 64 % 1001,6 hPa 0,0 l/m 9,7 km/h (2 Bft) O-SO 103 0 min 0,000 mm 0,0 UV-I 0 W/m 7,4 C 12,3 C 14,5 km/h (3 Bft) 93,33 %
12.04.2018 03:05 14,1 C 10,0 C 63 % 1001,6 hPa 0,0 l/m 13,0 km/h (3 Bft) O-SO 104 0 min 0,000 mm 0,0 UV-I 0 W/m 7,2 C 10,8 C 16,1 km/h (3 Bft) 100,00 %
12.04.2018 03:06 14,1 C 10,0 C 63 % 1001,6 hPa 0,0 l/m 12,2 km/h (2 Bft) O-NO 69 0 min 0,000 mm 0,0 UV-I 0 W/m 7,2 C 11,2 C 14,5 km/h (3 Bft) 96,30 %
12.04.2018 03:07 14,1 C 10,0 C 63 % 1001,5 hPa 0,0 l/m 14,5 km/h (3 Bft) O 86 0 min 0,000 mm 0,0 UV-I 0 W/m 7,2 C 10,3 C 19,3 km/h (3 Bft) 96,88 %
12.04.2018 03:08 14,1 C 10,0 C 64 % 1001,5 hPa 0,0 l/m 16,0 km/h (3 Bft) O 79 0 min 0,000 mm 0,0 UV-I 0 W/m 7,4 C 9,8 C 19,3 km/h (3 Bft) 100,00 %
12.04.2018 03:09 14,1 C 10,0 C 64 % 1001,5 hPa 0,0 l/m 14,9 km/h (3 Bft) O 96 0 min 0,000 mm 0,0 UV-I 0 W/m 7,4 C 10,1 C 19,3 km/h (3 Bft) 98,18 %
12.04.2018 03:10 14,0 C 10,0 C 64 % 1001,5 hPa 0,0 l/m 15,4 km/h (3 Bft) O 84 0 min 0,000 mm 0,0 UV-I 0 W/m 7,3 C 9,8 C 19,3 km/h (3 Bft) 100,00 %
12.04.2018 03:11 14,0 C 10,0 C 64 % 1001,5 hPa 0,0 l/m 14,4 km/h (3 Bft) O 84 0 min 0,000 mm 0,0 UV-I 0 W/m 7,3 C 10,2 C 17,7 km/h (3 Bft) 100,00 %
12.04.2018 03:12 13,9 C 10,0 C 65 % 1001,5 hPa 0,0 l/m 13,9 km/h (3 Bft) O 79 0 min 0,000 mm 0,0 UV-I 0 W/m 7,4 C 10,3 C 17,7 km/h (3 Bft) 100,00 %
12.04.2018 03:13 13,9 C 10,0 C 65 % 1001,4 hPa 0,0 l/m 13,9 km/h (3 Bft) O-NO 74 0 min 0,000 mm 0,0 UV-I 0 W/m 7,4 C 10,3 C 17,7 km/h (3 Bft) 100,00 %
12.04.2018 03:14 13,9 C 10,0 C 65 % 1001,5 hPa 0,0 l/m 14,7 km/h (3 Bft) O-NO 78 0 min 0,000 mm 0,0 UV-I 0 W/m 7,4 C 10,0 C 19,3 km/h (3 Bft) 100,00 %
12.04.2018 03:15 13,9 C 10,0 C 65 % 1001,4 hPa 0,0 l/m 15,2 km/h (3 Bft) O 85 0 min 0,000 mm 0,0 UV-I 0 W/m 7,4 C 9,8 C 17,7 km/h (3 Bft) 100,00 %
12.04.2018 03:16 13,8 C 10,0 C 65 % 1001,4 hPa 0,0 l/m 13,8 km/h (3 Bft) O 82 0 min 0,000 mm 0,0 UV-I 0 W/m 7,3 C 10,2 C 16,1 km/h (3 Bft) 98,25 %
12.04.2018 03:17 13,8 C 10,0 C 65 % 1001,5 hPa 0,0 l/m 15,3 km/h (3 Bft) O 86 0 min 0,000 mm 0,0 UV-I 0 W/m 7,3 C 9,6 C 19,3 km/h (3 Bft) 100,00 %
12.04.2018 03:18 13,8 C 10,0 C 65 % 1001,5 hPa 0,0 l/m 15,0 km/h (3 Bft) O 90 0 min 0,000 mm 0,0 UV-I 0 W/m 7,3 C 9,7 C 19,3 km/h (3 Bft) 100,00 %
12.04.2018 03:19 13,8 C 10,0 C 65 % 1001,5 hPa 0,0 l/m 11,6 km/h (2 Bft) O-NO 75 0 min 0,000 mm 0,0 UV-I 0 W/m 7,3 C 11,1 C 17,7 km/h (3 Bft) 100,00 %
12.04.2018 03:20 13,8 C 10,0 C 65 % 1001,6 hPa 0,0 l/m 14,7 km/h (3 Bft) O 93 0 min 0,000 mm 0,0 UV-I 0 W/m 7,3 C 9,8 C 20,9 km/h (4 Bft) 100,00 %
12.04.2018 03:21 13,8 C 10,0 C 65 % 1001,5 hPa 0,0 l/m 14,9 km/h (3 Bft) O-NO 72 0 min 0,000 mm 0,0 UV-I 0 W/m 7,3 C 9,8 C 17,7 km/h (3 Bft) 100,00 %
12.04.2018 03:22 13,8 C 10,0 C 65 % 1001,5 hPa 0,0 l/m 14,9 km/h (3 Bft) O 91 0 min 0,000 mm 0,0 UV-I 0 W/m 7,3 C 9,8 C 19,3 km/h (3 Bft) 100,00 %
12.04.2018 03:23 13,8 C 10,0 C 65 % 1001,5 hPa 0,0 l/m 14,5 km/h (3 Bft) O 96 0 min 0,000 mm 0,0 UV-I 0 W/m 7,3 C 9,9 C 19,3 km/h (3 Bft) 100,00 %
12.04.2018 03:24 13,8 C 10,0 C 65 % 1001,6 hPa 0,0 l/m 13,1 km/h (3 Bft) O-SO 105 0 min 0,000 mm 0,0 UV-I 0 W/m 7,3 C 10,4 C 19,3 km/h (3 Bft) 95,65 %
12.04.2018 03:25 13,7 C 10,0 C 66 % 1001,6 hPa 0,0 l/m 13,6 km/h (3 Bft) O-SO 105 0 min 0,000 mm 0,0 UV-I 0 W/m 7,5 C 10,1 C 17,7 km/h (3 Bft) 100,00 %
12.04.2018 03:26 13,7 C 10,0 C 66 % 1001,5 hPa 0,0 l/m 15,2 km/h (3 Bft) O-NO 67 0 min 0,000 mm 0,0 UV-I 0 W/m 7,5 C 9,5 C 19,3 km/h (3 Bft) 96,55 %
12.04.2018 03:27 13,7 C 10,0 C 66 % 1001,4 hPa 0,0 l/m 16,7 km/h (3 Bft) O 94 0 min 0,000 mm 0,0 UV-I 0 W/m 7,5 C 9,0 C 20,9 km/h (4 Bft) 94,44 %
12.04.2018 03:28 13,7 C 10,0 C 66 % 1001,4 hPa 0,0 l/m 17,8 km/h (3 Bft) O-NO 66 0 min 0,000 mm 0,0 UV-I 0 W/m 7,5 C 8,7 C 24,1 km/h (4 Bft) 100,00 %
12.04.2018 03:29 13,7 C 10,0 C 66 % 1001,4 hPa 0,0 l/m 17,8 km/h (3 Bft) O-SO 113 0 min 0,000 mm 0,0 UV-I 0 W/m 7,5 C 8,7 C 22,5 km/h (4 Bft) 95,83 %
12.04.2018 03:30 13,7 C 10,0 C 66 % 1001,4 hPa 0,0 l/m 16,9 km/h (3 Bft) O 96 0 min 0,000 mm 0,0 UV-I 0 W/m 7,5 C 9,0 C 19,3 km/h (3 Bft) 96,15 %
12.04.2018 03:31 13,7 C 10,0 C 66 % 1001,4 hPa 0,0 l/m 14,1 km/h (3 Bft) O-NO 67 0 min 0,000 mm 0,0 UV-I 0 W/m 7,5 C 9,9 C 19,3 km/h (3 Bft) 93,33 %
12.04.2018 03:32 13,6 C 10,0 C 66 % 1001,4 hPa 0,0 l/m 14,1 km/h (3 Bft) O 86 0 min 0,000 mm 0,0 UV-I 0 W/m 7,4 C 9,8 C 19,3 km/h (3 Bft) 100,00 %
12.04.2018 03:33 13,6 C 10,0 C 66 % 1001,4 hPa 0,0 l/m 14,6 km/h (3 Bft) O 98 0 min 0,000 mm 0,0 UV-I 0 W/m 7,4 C 9,6 C 20,9 km/h (4 Bft) 95,65 %
12.04.2018 03:34 13,7 C 10,0 C 66 % 1001,4 hPa 0,0 l/m 14,8 km/h (3 Bft) O 95 0 min 0,000 mm 0,0 UV-I 0 W/m 7,5 C 9,7 C 19,3 km/h (3 Bft) 96,30 %
12.04.2018 03:35 13,7 C 10,0 C 66 % 1001,5 hPa 0,0 l/m 11,7 km/h (2 Bft) O 81 0 min 0,000 mm 0,0 UV-I 0 W/m 7,5 C 10,9 C 16,1 km/h (3 Bft) 100,00 %
12.04.2018 03:36 13,7 C 10,0 C 66 % 1001,5 hPa 0,0 l/m 11,0 km/h (2 Bft) O 88 0 min 0,000 mm 0,0 UV-I 0 W/m 7,5 C 11,2 C 16,1 km/h (3 Bft) 100,00 %
12.04.2018 03:37 13,7 C 10,0 C 66 % 1001,5 hPa 0,0 l/m 8,2 km/h (2 Bft) O 98 0 min 0,000 mm 0,0 UV-I 0 W/m 7,5 C 12,6 C 12,9 km/h (3 Bft) 95,65 %
12.04.2018 03:38 13,8 C 10,0 C 65 % 1001,4 hPa 0,0 l/m 12,7 km/h (3 Bft) O-NO 74 0 min 0,000 mm 0,0 UV-I 0 W/m 7,3 C 10,6 C 14,5 km/h (3 Bft) 95,83 %
12.04.2018 03:39 13,8 C 10,0 C 65 % 1001,3 hPa 0,0 l/m 13,3 km/h (3 Bft) O 93 0 min 0,000 mm 0,0 UV-I 0 W/m 7,3 C 10,4 C 16,1 km/h (3 Bft) 100,00 %
12.04.2018 03:40 13,8 C 10,0 C 64 % 1001,4 hPa 0,0 l/m 12,9 km/h (3 Bft) O 84 0 min 0,000 mm 0,0 UV-I 0 W/m 7,1 C 10,5 C 16,1 km/h (3 Bft) 96,97 %
12.04.2018 03:41 13,9 C 10,0 C 64 % 1001,4 hPa 0,0 l/m 6,9 km/h (2 Bft) O-NO 69 0 min 0,000 mm 0,0 UV-I 0 W/m 7,2 C 13,6 C 11,3 km/h (2 Bft) 100,00 %
12.04.2018 03:42 13,9 C 10,0 C 64 % 1001,4 hPa 0,0 l/m 5,7 km/h (1 Bft) O 97 0 min 0,000 mm 0,0 UV-I 0 W/m 7,2 C 13,9 C 8,0 km/h (2 Bft) 96,67 %
12.04.2018 03:43 13,8 C 10,0 C 65 % 1001,4 hPa 0,0 l/m 6,3 km/h (2 Bft) O-NO 67 0 min 0,000 mm 0,0 UV-I 0 W/m 7,3 C 13,8 C 9,7 km/h (2 Bft) 96,15 %
12.04.2018 03:44 13,8 C 10,0 C 65 % 1001,4 hPa 0,0 l/m 10,7 km/h (2 Bft) O-NO 63 0 min 0,000 mm 0,0 UV-I 0 W/m 7,3 C 11,5 C 14,5 km/h (3 Bft) 100,00 %
12.04.2018 03:45 13,8 C 10,0 C 65 % 1001,3 hPa 0,0 l/m 13,0 km/h (3 Bft) O-NO 70 0 min 0,000 mm 0,0 UV-I 0 W/m 7,3 C 10,5 C 16,1 km/h (3 Bft) 96,55 %
12.04.2018 03:46 13,8 C 10,0 C 65 % 1001,3 hPa 0,0 l/m 12,5 km/h (3 Bft) O 87 0 min 0,000 mm 0,0 UV-I 0 W/m 7,3 C 10,7 C 16,1 km/h (3 Bft) 100,00 %
12.04.2018 03:47 13,8 C 10,0 C 65 % 1001,3 hPa 0,0 l/m 11,4 km/h (2 Bft) O 99 0 min 0,000 mm 0,0 UV-I 0 W/m 7,3 C 11,1 C 14,5 km/h (3 Bft) 96,15 %
12.04.2018 03:48 13,8 C 10,0 C 65 % 1001,4 hPa 0,0 l/m 13,1 km/h (3 Bft) O 88 0 min 0,000 mm 0,0 UV-I 0 W/m 7,3 C 10,4 C 17,7 km/h (3 Bft) 100,00 %
12.04.2018 03:49 13,9 C 10,0 C 64 % 1001,3 hPa 0,0 l/m 9,7 km/h (2 Bft) O-NO 69 0 min 0,000 mm 0,0 UV-I 0 W/m 7,2 C 12,0 C 12,9 km/h (3 Bft) 96,15 %
12.04.2018 03:50 14,0 C 10,0 C 64 % 1001,3 hPa 0,0 l/m 8,5 km/h (2 Bft) O 79 0 min 0,000 mm 0,0 UV-I 0 W/m 7,3 C 12,8 C 12,9 km/h (3 Bft) 100,00 %
12.04.2018 03:51 14,0 C 10,0 C 64 % 1001,3 hPa 0,0 l/m 10,1 km/h (2 Bft) O 80 0 min 0,000 mm 0,0 UV-I 0 W/m 7,3 C 12,0 C 14,5 km/h (3 Bft) 96,15 %
12.04.2018 03:52 13,9 C 10,0 C 64 % 1001,3 hPa 0,0 l/m 11,5 km/h (2 Bft) O 82 0 min 0,000 mm 0,0 UV-I 0 W/m 7,2 C 11,2 C 14,5 km/h (3 Bft) 95,83 %
12.04.2018 03:53 13,9 C 10,0 C 64 % 1001,3 hPa 0,0 l/m 9,6 km/h (2 Bft) O-NO 67 0 min 0,000 mm 0,0 UV-I 0 W/m 7,2 C 12,1 C 12,9 km/h (3 Bft) 100,00 %
12.04.2018 03:54 13,9 C 10,0 C 64 % 1001,3 hPa 0,0 l/m 6,8 km/h (2 Bft) O-NO 61 0 min 0,000 mm 0,0 UV-I 0 W/m 7,2 C 13,7 C 9,7 km/h (2 Bft) 96,55 %
12.04.2018 03:55 13,8 C 10,0 C 64 % 1001,3 hPa 0,0 l/m 7,3 km/h (2 Bft) O-NO 64 0 min 0,000 mm 0,0 UV-I 0 W/m 7,1 C 13,3 C 9,7 km/h (2 Bft) 100,00 %
12.04.2018 03:56 13,8 C 10,0 C 64 % 1001,3 hPa 0,0 l/m 6,1 km/h (2 Bft) O-NO 61 0 min 0,000 mm 0,0 UV-I 0 W/m 7,1 C 13,8 C 9,7 km/h (2 Bft) 100,00 %
12.04.2018 03:57 13,8 C 10,0 C 65 % 1001,3 hPa 0,0 l/m 7,1 km/h (2 Bft) O-NO 71 0 min 0,000 mm 0,0 UV-I 0 W/m 7,3 C 13,4 C 12,9 km/h (3 Bft) 100,00 %
12.04.2018 03:58 13,8 C 10,0 C 65 % 1001,2 hPa 0,0 l/m 9,3 km/h (2 Bft) O-NO 59 0 min 0,000 mm 0,0 UV-I 0 W/m 7,3 C 12,1 C 12,9 km/h (3 Bft) 95,65 %
12.04.2018 03:59 13,8 C 10,0 C 65 % 1001,1 hPa 0,0 l/m 13,0 km/h (3 Bft) O-NO 73 0 min 0,000 mm 0,0 UV-I 0 W/m 7,3 C 10,5 C 16,1 km/h (3 Bft) 100,00 %
12.04.2018 04:00 13,8 C 10,0 C 65 % 1001,1 hPa 0,0 l/m 14,8 km/h (3 Bft) O-NO 77 0 min 0,000 mm 0,0 UV-I 0 W/m 7,3 C 9,8 C 16,1 km/h (3 Bft) 100,00 %
12.04.2018 04:03 13,8 C 10,0 C 65 % 1001,2 hPa 0,0 l/m 13,9 km/h (3 Bft) O 99 0 min 0,051 mm 0,0 UV-I 0 W/m 7,3 C 10,1 C 17,7 km/h (3 Bft) 100,00 %
12.04.2018 04:04 13,8 C 10,0 C 65 % 1001,2 hPa 0,0 l/m 12,9 km/h (3 Bft) O 84 0 min 0,000 mm 0,0 UV-I 0 W/m 7,3 C 10,5 C 17,7 km/h (3 Bft) 95,65 %
12.04.2018 04:05 13,7 C 10,0 C 65 % 1001,2 hPa 0,0 l/m 12,7 km/h (3 Bft) O 94 0 min 0,000 mm 0,0 UV-I 0 W/m 7,2 C 10,5 C 16,1 km/h (3 Bft) 100,00 %
12.04.2018 04:06 13,7 C 10,0 C 65 % 1001,2 hPa 0,0 l/m 10,5 km/h (2 Bft) O 84 0 min 0,000 mm 0,0 UV-I 0 W/m 7,2 C 11,4 C 16,1 km/h (3 Bft) 91,30 %
12.04.2018 04:07 13,7 C 10,0 C 65 % 1001,2 hPa 0,0 l/m 10,5 km/h (2 Bft) O-NO 78 0 min 0,000 mm 0,0 UV-I 0 W/m 7,2 C 11,4 C 14,5 km/h (3 Bft) 95,83 %
12.04.2018 04:08 13,7 C 10,0 C 65 % 1001,2 hPa 0,0 l/m 9,7 km/h (2 Bft) O-SO 104 0 min 0,000 mm 0,0 UV-I 0 W/m 7,2 C 11,8 C 11,3 km/h (2 Bft) 100,00 %
12.04.2018 04:09 13,7 C 10,0 C 65 % 1001,3 hPa 0,0 l/m 9,7 km/h (2 Bft) O 79 0 min 0,000 mm 0,0 UV-I 0 W/m 7,2 C 11,8 C 12,9 km/h (3 Bft) 100,00 %
12.04.2018 04:10 13,8 C 10,0 C 64 % 1001,2 hPa 0,0 l/m 14,4 km/h (3 Bft) O-SO 104 0 min 0,000 mm 0,0 UV-I 0 W/m 7,1 C 10,0 C 17,7 km/h (3 Bft) 100,00 %
12.04.2018 04:11 13,8 C 10,0 C 64 % 1001,2 hPa 0,0 l/m 14,7 km/h (3 Bft) O 98 0 min 0,000 mm 0,0 UV-I 0 W/m 7,1 C 9,8 C 19,3 km/h (3 Bft) 95,65 %
12.04.2018 04:12 13,9 C 10,0 C 64 % 1001,3 hPa 0,0 l/m 13,3 km/h (3 Bft) O 86 0 min 0,000 mm 0,0 UV-I 0 W/m 7,2 C 10,5 C 17,7 km/h (3 Bft) 100,00 %
12.04.2018 04:13 13,9 C 10,0 C 64 % 1001,3 hPa 0,0 l/m 11,7 km/h (2 Bft) SO 127 0 min 0,000 mm 0,0 UV-I 0 W/m 7,2 C 11,1 C 16,1 km/h (3 Bft) 91,67 %
12.04.2018 04:14 13,9 C 10,0 C 64 % 1001,2 hPa 0,0 l/m 8,1 km/h (2 Bft) O 86 0 min 0,000 mm 0,0 UV-I 0 W/m 7,2 C 12,9 C 16,1 km/h (3 Bft) 100,00 %
12.04.2018 04:15 13,9 C 10,0 C 63 % 1001,2 hPa 0,0 l/m 17,2 km/h (3 Bft) O 96 0 min 0,000 mm 0,0 UV-I 0 W/m 7,0 C 9,1 C 20,9 km/h (4 Bft) 100,00 %
12.04.2018 04:16 13,9 C 10,0 C 63 % 1001,2 hPa 0,0 l/m 10,4 km/h (2 Bft) SO 128 0 min 0,000 mm 0,0 UV-I 0 W/m 7,0 C 11,7 C 12,9 km/h (3 Bft) 100,00 %
12.04.2018 04:17 14,0 C 10,0 C 63 % 1001,2 hPa 0,0 l/m 11,9 km/h (2 Bft) O 92 0 min 0,000 mm 0,0 UV-I 0 W/m 7,1 C 11,2 C 14,5 km/h (3 Bft) 100,00 %
12.04.2018 04:18 14,0 C 10,0 C 63 % 1001,2 hPa 0,0 l/m 13,5 km/h (3 Bft) O 94 0 min 0,000 mm 0,0 UV-I 0 W/m 7,1 C 10,5 C 19,3 km/h (3 Bft) 100,00 %
12.04.2018 04:19 14,0 C 10,0 C 63 % 1001,2 hPa 0,0 l/m 14,9 km/h (3 Bft) O 91 0 min 0,000 mm 0,0 UV-I 0 W/m 7,1 C 10,0 C 17,7 km/h (3 Bft) 100,00 %
12.04.2018 04:20 14,1 C 10,0 C 63 % 1001,2 hPa 0,0 l/m 14,1 km/h (3 Bft) O 99 0 min 0,000 mm 0,0 UV-I 0 W/m 7,2 C 10,4 C 20,9 km/h (4 Bft) 100,00 %
12.04.2018 04:21 14,1 C 10,0 C 63 % 1001,1 hPa 0,0 l/m 14,5 km/h (3 Bft) O-SO 106 0 min 0,000 mm 0,0 UV-I 0 W/m 7,2 C 10,3 C 16,1 km/h (3 Bft) 96,15 %
12.04.2018 04:22 14,1 C 10,0 C 62 % 1001,1 hPa 0,0 l/m 16,5 km/h (3 Bft) O-SO 115 0 min 0,000 mm 0,0 UV-I 0 W/m 6,9 C 9,6 C 19,3 km/h (3 Bft) 100,00 %
12.04.2018 04:23 14,1 C 10,0 C 62 % 1001,0 hPa 0,0 l/m 12,5 km/h (3 Bft) O-SO 105 0 min 0,000 mm 0,0 UV-I 0 W/m 6,9 C 11,0 C 16,1 km/h (3 Bft) 100,00 %
12.04.2018 04:24 14,1 C 10,0 C 63 % 1001,0 hPa 0,0 l/m 14,1 km/h (3 Bft) O 98 0 min 0,000 mm 0,0 UV-I 0 W/m 7,2 C 10,4 C 17,7 km/h (3 Bft) 96,67 %
12.04.2018 04:25 14,1 C 10,0 C 63 % 1000,9 hPa 0,0 l/m 14,4 km/h (3 Bft) SO 127 0 min 0,000 mm 0,0 UV-I 0 W/m 7,2 C 10,3 C 16,1 km/h (3 Bft) 100,00 %
12.04.2018 04:26 14,1 C 10,0 C 63 % 1001,0 hPa 0,0 l/m 12,0 km/h (2 Bft) O-SO 102 0 min 0,000 mm 0,0 UV-I 0 W/m 7,2 C 11,2 C 17,7 km/h (3 Bft) 100,00 %
12.04.2018 04:27 14,0 C 10,0 C 63 % 1001,0 hPa 0,0 l/m 8,3 km/h (2 Bft) O-SO 113 0 min 0,000 mm 0,0 UV-I 0 W/m 7,1 C 12,9 C 12,9 km/h (3 Bft) 100,00 %
12.04.2018 04:28 13,9 C 10,0 C 63 % 1000,9 hPa 0,0 l/m 9,7 km/h (2 Bft) O-SO 113 0 min 0,000 mm 0,0 UV-I 0 W/m 7,0 C 12,0 C 14,5 km/h (3 Bft) 100,00 %
12.04.2018 04:29 13,9 C 10,0 C 63 % 1000,9 hPa 0,0 l/m 11,0 km/h (2 Bft) O-SO 106 0 min 0,000 mm 0,0 UV-I 0 W/m 7,0 C 11,4 C 16,1 km/h (3 Bft) 100,00 %
12.04.2018 04:30 14,0 C 10,0 C 63 % 1000,8 hPa 0,0 l/m 14,8 km/h (3 Bft) O-SO 104 0 min 0,000 mm 0,0 UV-I 0 W/m 7,1 C 10,1 C 17,7 km/h (3 Bft) 100,00 %
12.04.2018 04:31 14,0 C 10,0 C 63 % 1000,9 hPa 0,0 l/m 13,6 km/h (3 Bft) O-SO 107 0 min 0,000 mm 0,0 UV-I 0 W/m 7,1 C 10,5 C 16,1 km/h (3 Bft) 96,55 %
12.04.2018 04:32 14,1 C 10,0 C 62 % 1000,9 hPa 0,0 l/m 13,9 km/h (3 Bft) O-SO 121 0 min 0,000 mm 0,0 UV-I 0 W/m 6,9 C 10,5 C 19,3 km/h (3 Bft) 100,00 %
12.04.2018 04:33 14,2 C 10,0 C 62 % 1000,9 hPa 0,0 l/m 14,0 km/h (3 Bft) SO 124 0 min 0,000 mm 0,0 UV-I 0 W/m 7,0 C 10,6 C 17,7 km/h (3 Bft) 95,83 %
12.04.2018 04:34 14,2 C 10,0 C 62 % 1000,9 hPa 0,0 l/m 11,7 km/h (2 Bft) O-SO 105 0 min 0,000 mm 0,0 UV-I 0 W/m 7,0 C 11,5 C 19,3 km/h (3 Bft) 100,00 %
12.04.2018 04:35 14,2 C 10,0 C 62 % 1000,9 hPa 0,0 l/m 16,2 km/h (3 Bft) SO 130 0 min 0,000 mm 0,0 UV-I 0 W/m 7,0 C 9,8 C 20,9 km/h (4 Bft) 100,00 %
12.04.2018 04:36 14,3 C 10,0 C 61 % 1000,9 hPa 0,0 l/m 14,8 km/h (3 Bft) O-SO 104 0 min 0,000 mm 0,0 UV-I 0 W/m 6,9 C 10,4 C 17,7 km/h (3 Bft) 100,00 %
12.04.2018 04:37 14,3 C 10,0 C 61 % 1000,9 hPa 0,0 l/m 11,5 km/h (2 Bft) O 95 0 min 0,000 mm 0,0 UV-I 0 W/m 6,9 C 11,7 C 16,1 km/h (3 Bft) 100,00 %
12.04.2018 04:38 14,4 C 10,0 C 61 % 1000,9 hPa 0,0 l/m 15,1 km/h (3 Bft) O-SO 104 0 min 0,000 mm 0,0 UV-I 0 W/m 7,0 C 10,4 C 17,7 km/h (3 Bft) 100,00 %
12.04.2018 04:39 14,5 C 10,0 C 60 % 1000,8 hPa 0,0 l/m 15,9 km/h (3 Bft) O 92 0 min 0,000 mm 0,0 UV-I 0 W/m 6,8 C 10,3 C 22,5 km/h (4 Bft) 100,00 %
12.04.2018 04:40 14,6 C 10,0 C 59 % 1000,9 hPa 0,0 l/m 12,3 km/h (3 Bft) O-SO 120 0 min 0,000 mm 0,0 UV-I 0 W/m 6,7 C 11,7 C 17,7 km/h (3 Bft) 100,00 %
12.04.2018 04:41 14,6 C 10,0 C 60 % 1000,9 hPa 0,0 l/m 13,0 km/h (3 Bft) O-SO 104 0 min 0,000 mm 0,0 UV-I 0 W/m 6,9 C 11,4 C 17,7 km/h (3 Bft) 100,00 %
12.04.2018 04:42 14,6 C 10,0 C 60 % 1000,9 hPa 0,0 l/m 14,2 km/h (3 Bft) O-SO 102 0 min 0,000 mm 0,0 UV-I 0 W/m 6,9 C 11,0 C 17,7 km/h (3 Bft) 100,00 %
12.04.2018 04:43 14,6 C 10,0 C 60 % 1000,9 hPa 0,0 l/m 11,3 km/h (2 Bft) O-SO 107 0 min 0,000 mm 0,0 UV-I 0 W/m 6,9 C 12,1 C 16,1 km/h (3 Bft) 100,00 %
12.04.2018 04:44 14,6 C 10,0 C 60 % 1000,9 hPa 0,0 l/m 14,4 km/h (3 Bft) O-SO 110 0 min 0,000 mm 0,0 UV-I 0 W/m 6,9 C 10,9 C 17,7 km/h (3 Bft) 100,00 %
12.04.2018 04:45 14,6 C 10,0 C 60 % 1000,9 hPa 0,0 l/m 15,9 km/h (3 Bft) O-SO 104 0 min 0,000 mm 0,0 UV-I 0 W/m 6,9 C 10,4 C 20,9 km/h (4 Bft) 100,00 %
12.04.2018 04:46 14,6 C 10,0 C 60 % 1001,0 hPa 0,0 l/m 14,4 km/h (3 Bft) O 86 0 min 0,000 mm 0,0 UV-I 0 W/m 6,9 C 10,9 C 19,3 km/h (3 Bft) 100,00 %
12.04.2018 04:47 14,6 C 10,0 C 60 % 1000,9 hPa 0,0 l/m 13,7 km/h (3 Bft) O 98 0 min 0,000 mm 0,0 UV-I 0 W/m 6,9 C 11,2 C 17,7 km/h (3 Bft) 100,00 %
12.04.2018 04:48 14,6 C 10,0 C 60 % 1001,0 hPa 0,0 l/m 12,4 km/h (3 Bft) O 87 0 min 0,000 mm 0,0 UV-I 0 W/m 6,9 C 11,7 C 14,5 km/h (3 Bft) 100,00 %
12.04.2018 04:49 14,6 C 10,0 C 60 % 1001,0 hPa 0,0 l/m 11,2 km/h (2 Bft) O 100 0 min 0,000 mm 0,0 UV-I 0 W/m 6,9 C 12,1 C 12,9 km/h (3 Bft) 100,00 %
12.04.2018 04:50 14,5 C 10,0 C 60 % 1001,0 hPa 0,0 l/m 9,3 km/h (2 Bft) O 84 0 min 0,000 mm 0,0 UV-I 0 W/m 6,8 C 12,9 C 12,9 km/h (3 Bft) 100,00 %
12.04.2018 04:51 14,4 C 10,0 C 61 % 1001,0 hPa 0,0 l/m 8,2 km/h (2 Bft) O 96 0 min 0,000 mm 0,0 UV-I 0 W/m 7,0 C 13,4 C 11,3 km/h (2 Bft) 100,00 %
12.04.2018 04:52 14,4 C 10,0 C 61 % 1001,0 hPa 0,0 l/m 8,0 km/h (2 Bft) O 91 0 min 0,000 mm 0,0 UV-I 0 W/m 7,0 C 13,5 C 11,3 km/h (2 Bft) 100,00 %
12.04.2018 04:53 14,3 C 10,0 C 61 % 1001,0 hPa 0,0 l/m 8,6 km/h (2 Bft) O 98 0 min 0,000 mm 0,0 UV-I 0 W/m 6,9 C 13,0 C 11,3 km/h (2 Bft) 100,00 %
12.04.2018 04:54 14,2 C 10,0 C 62 % 1001,0 hPa 0,0 l/m 10,6 km/h (2 Bft) O 86 0 min 0,000 mm 0,0 UV-I 0 W/m 7,0 C 12,0 C 12,9 km/h (3 Bft) 100,00 %
12.04.2018 04:55 14,2 C 10,0 C 62 % 1001,0 hPa 0,0 l/m 10,7 km/h (2 Bft) O 79 0 min 0,000 mm 0,0 UV-I 0 W/m 7,0 C 11,9 C 14,5 km/h (3 Bft) 100,00 %
12.04.2018 04:56 14,2 C 10,0 C 62 % 1001,0 hPa 0,0 l/m 10,1 km/h (2 Bft) O 80 0 min 0,000 mm 0,0 UV-I 0 W/m 7,0 C 12,2 C 12,9 km/h (3 Bft) 100,00 %
12.04.2018 04:57 14,2 C 10,0 C 62 % 1000,9 hPa 0,0 l/m 11,3 km/h (2 Bft) O 82 0 min 0,000 mm 0,0 UV-I 0 W/m 7,0 C 11,6 C 14,5 km/h (3 Bft) 100,00 %
12.04.2018 04:58 14,2 C 10,0 C 62 % 1000,9 hPa 0,0 l/m 12,8 km/h (3 Bft) O-NO 78 0 min 0,000 mm 0,0 UV-I 0 W/m 7,0 C 11,0 C 17,7 km/h (3 Bft) 100,00 %
12.04.2018 04:59 14,2 C 10,0 C 62 % 1000,9 hPa 0,0 l/m 11,0 km/h (2 Bft) O 96 0 min 0,000 mm 0,0 UV-I 0 W/m 7,0 C 11,8 C 17,7 km/h (3 Bft) 100,00 %
12.04.2018 05:00 14,2 C 10,0 C 62 % 1000,9 hPa 0,0 l/m 11,9 km/h (2 Bft) O 91 0 min 0,051 mm 0,0 UV-I 0 W/m 7,0 C 11,4 C 16,1 km/h (3 Bft) 100,00 %
12.04.2018 05:01 14,2 C 10,0 C 62 % 1000,9 hPa 0,0 l/m 10,4 km/h (2 Bft) O-NO 67 0 min 0,000 mm 0,0 UV-I 0 W/m 7,0 C 12,0 C 16,1 km/h (3 Bft) 100,00 %
12.04.2018 05:02 14,2 C 10,0 C 62 % 1000,9 hPa 0,0 l/m 10,7 km/h (2 Bft) O-NO 71 0 min 0,000 mm 0,0 UV-I 0 W/m 7,0 C 11,9 C 14,5 km/h (3 Bft) 100,00 %
12.04.2018 05:03 14,2 C 10,0 C 62 % 1000,8 hPa 0,0 l/m 10,1 km/h (2 Bft) O-SO 104 0 min 0,000 mm 0,0 UV-I 0 W/m 7,0 C 12,2 C 12,9 km/h (3 Bft) 100,00 %
12.04.2018 05:04 14,1 C 10,0 C 62 % 1000,8 hPa 0,0 l/m 9,8 km/h (2 Bft) O-NO 74 0 min 0,000 mm 0,0 UV-I 0 W/m 6,9 C 12,2 C 12,9 km/h (3 Bft) 100,00 %
12.04.2018 05:05 14,1 C 10,0 C 63 % 1000,8 hPa 0,0 l/m 12,0 km/h (2 Bft) O 101 0 min 0,000 mm 0,0 UV-I 0 W/m 7,2 C 11,2 C 16,1 km/h (3 Bft) 100,00 %
12.04.2018 05:06 13,9 C 10,0 C 63 % 1000,8 hPa 0,0 l/m 14,1 km/h (3 Bft) O 90 0 min 0,000 mm 0,0 UV-I 0 W/m 7,0 C 10,2 C 17,7 km/h (3 Bft) 100,00 %
12.04.2018 05:07 13,8 C 10,0 C 64 % 1000,8 hPa 0,0 l/m 16,3 km/h (3 Bft) O-NO 74 0 min 0,000 mm 0,0 UV-I 0 W/m 7,1 C 9,3 C 19,3 km/h (3 Bft) 100,00 %
12.04.2018 05:08 13,7 C 10,0 C 65 % 1000,9 hPa 0,0 l/m 15,4 km/h (3 Bft) O 87 0 min 0,000 mm 0,0 UV-I 0 W/m 7,2 C 9,5 C 19,3 km/h (3 Bft) 100,00 %
12.04.2018 05:09 13,7 C 10,0 C 65 % 1000,8 hPa 0,0 l/m 16,0 km/h (3 Bft) O-NO 71 0 min 0,000 mm 0,0 UV-I 0 W/m 7,2 C 9,3 C 19,3 km/h (3 Bft) 93,33 %
12.04.2018 05:10 13,7 C 10,0 C 65 % 1000,9 hPa 0,0 l/m 16,7 km/h (3 Bft) O 83 0 min 0,000 mm 0,0 UV-I 0 W/m 7,2 C 9,0 C 22,5 km/h (4 Bft) 100,00 %
12.04.2018 05:11 13,7 C 10,0 C 64 % 1000,9 hPa 0,0 l/m 15,4 km/h (3 Bft) O 95 0 min 0,000 mm 0,0 UV-I 0 W/m 7,0 C 9,5 C 19,3 km/h (3 Bft) 100,00 %
12.04.2018 05:12 13,8 C 10,0 C 64 % 1000,9 hPa 0,0 l/m 14,1 km/h (3 Bft) O-NO 66 0 min 0,000 mm 0,0 UV-I 0 W/m 7,1 C 10,1 C 17,7 km/h (3 Bft) 100,00 %
12.04.2018 05:13 13,8 C 10,0 C 63 % 1000,9 hPa 0,0 l/m 18,6 km/h (3 Bft) O 90 0 min 0,000 mm 0,0 UV-I 0 W/m 6,9 C 8,6 C 24,1 km/h (4 Bft) 100,00 %
12.04.2018 05:14 13,9 C 10,0 C 63 % 1000,8 hPa 0,0 l/m 17,3 km/h (3 Bft) O-SO 109 0 min 0,000 mm 0,0 UV-I 0 W/m 7,0 C 9,1 C 20,9 km/h (4 Bft) 100,00 %
12.04.2018 05:15 14,0 C 10,0 C 63 % 1000,8 hPa 0,0 l/m 13,4 km/h (3 Bft) O 84 0 min 0,000 mm 0,0 UV-I 0 W/m 7,1 C 10,6 C 20,9 km/h (4 Bft) 100,00 %
12.04.2018 05:16 14,0 C 10,0 C 63 % 1000,8 hPa 0,0 l/m 15,8 km/h (3 Bft) O 91 0 min 0,000 mm 0,0 UV-I 0 W/m 7,1 C 9,7 C 17,7 km/h (3 Bft) 94,12 %
12.04.2018 05:17 14,0 C 10,0 C 63 % 1000,9 hPa 0,0 l/m 17,0 km/h (3 Bft) O 83 0 min 0,000 mm 0,0 UV-I 0 W/m 7,1 C 9,3 C 19,3 km/h (3 Bft) 100,00 %
12.04.2018 05:18 14,0 C 10,0 C 63 % 1000,9 hPa 0,0 l/m 13,8 km/h (3 Bft) O-SO 119 0 min 0,000 mm 0,0 UV-I 0 W/m 7,1 C 10,4 C 16,1 km/h (3 Bft) 96,15 %
12.04.2018 05:19 13,9 C 10,0 C 63 % 1000,9 hPa 0,0 l/m 13,7 km/h (3 Bft) O-SO 106 0 min 0,000 mm 0,0 UV-I 0 W/m 7,0 C 10,3 C 19,3 km/h (3 Bft) 100,00 %
12.04.2018 05:20 14,0 C 10,0 C 63 % 1000,9 hPa 0,0 l/m 15,0 km/h (3 Bft) O-SO 108 0 min 0,000 mm 0,0 UV-I 0 W/m 7,1 C 10,0 C 19,3 km/h (3 Bft) 95,65 %
12.04.2018 05:21 14,0 C 10,0 C 63 % 1000,8 hPa 0,0 l/m 14,1 km/h (3 Bft) O-SO 103 0 min 0,000 mm 0,0 UV-I 0 W/m 7,1 C 10,3 C 17,7 km/h (3 Bft) 100,00 %
12.04.2018 05:22 14,1 C 10,0 C 62 % 1000,9 hPa 0,0 l/m 15,3 km/h (3 Bft) O-SO 123 0 min 0,000 mm 0,0 UV-I 0 W/m 6,9 C 10,0 C 20,9 km/h (4 Bft) 100,00 %
12.04.2018 05:23 14,1 C 10,0 C 62 % 1000,8 hPa 0,0 l/m 15,2 km/h (3 Bft) O-SO 108 0 min 0,000 mm 0,0 UV-I 0 W/m 6,9 C 10,0 C 19,3 km/h (3 Bft) 100,00 %
12.04.2018 05:24 14,2 C 10,0 C 62 % 1000,8 hPa 0,0 l/m 18,6 km/h (3 Bft) O 99 0 min 0,000 mm 0,0 UV-I 0 W/m 7,0 C 9,1 C 22,5 km/h (4 Bft) 94,44 %
12.04.2018 05:25 14,2 C 10,0 C 61 % 1000,8 hPa 0,0 l/m 16,5 km/h (3 Bft) O-SO 123 0 min 0,000 mm 0,0 UV-I 0 W/m 6,8 C 9,7 C 19,3 km/h (3 Bft) 100,00 %
12.04.2018 05:26 14,3 C 10,0 C 61 % 1000,7 hPa 0,0 l/m 11,0 km/h (2 Bft) O-SO 119 0 min 0,000 mm 0,0 UV-I 0 W/m 6,9 C 11,9 C 17,7 km/h (3 Bft) 92,31 %
12.04.2018 05:27 14,3 C 10,0 C 61 % 1000,7 hPa 0,0 l/m 12,1 km/h (2 Bft) O 91 0 min 0,000 mm 0,0 UV-I 0 W/m 6,9 C 11,4 C 16,1 km/h (3 Bft) 100,00 %
12.04.2018 05:28 14,3 C 10,0 C 61 % 1000,7 hPa 0,0 l/m 12,8 km/h (3 Bft) O 94 0 min 0,000 mm 0,0 UV-I 0 W/m 6,9 C 11,1 C 17,7 km/h (3 Bft) 96,30 %
12.04.2018 05:29 14,3 C 10,0 C 61 % 1000,7 hPa 0,0 l/m 16,1 km/h (3 Bft) O-SO 102 0 min 0,000 mm 0,0 UV-I 0 W/m 6,9 C 10,0 C 27,4 km/h (4 Bft) 96,15 %
12.04.2018 05:30 14,4 C 10,0 C 60 % 1000,6 hPa 0,0 l/m 18,2 km/h (3 Bft) O-SO 116 0 min 0,000 mm 0,0 UV-I 0 W/m 6,7 C 9,5 C 25,7 km/h (4 Bft) 100,00 %
12.04.2018 05:31 14,4 C 10,0 C 60 % 1000,7 hPa 0,0 l/m 17,2 km/h (3 Bft) O 96 0 min 0,000 mm 0,0 UV-I 0 W/m 6,7 C 9,8 C 22,5 km/h (4 Bft) 95,65 %
12.04.2018 05:32 14,5 C 10,0 C 60 % 1000,6 hPa 0,0 l/m 18,0 km/h (3 Bft) O-SO 117 0 min 0,000 mm 0,0 UV-I 0 W/m 6,8 C 9,6 C 24,1 km/h (4 Bft) 100,00 %
12.04.2018 05:33 14,6 C 10,0 C 60 % 1000,7 hPa 0,0 l/m 19,6 km/h (3 Bft) O-SO 120 0 min 0,000 mm 0,0 UV-I 0 W/m 6,9 C 9,3 C 29,0 km/h (5 Bft) 96,15 %
12.04.2018 05:34 14,6 C 10,0 C 60 % 1000,7 hPa 0,0 l/m 17,1 km/h (3 Bft) SO 124 0 min 0,000 mm 0,0 UV-I 0 W/m 6,9 C 10,0 C 24,1 km/h (4 Bft) 100,00 %
12.04.2018 05:35 14,6 C 10,0 C 60 % 1000,8 hPa 0,0 l/m 11,5 km/h (2 Bft) SO 132 0 min 0,000 mm 0,0 UV-I 0 W/m 6,9 C 12,0 C 17,7 km/h (3 Bft) 95,65 %
12.04.2018 05:36 14,6 C 10,0 C 60 % 1000,8 hPa 0,0 l/m 19,2 km/h (3 Bft) O-SO 106 0 min 0,000 mm 0,0 UV-I 0 W/m 6,9 C 9,4 C 24,1 km/h (4 Bft) 96,30 %
12.04.2018 05:37 14,6 C 10,0 C 60 % 1000,8 hPa 0,0 l/m 14,0 km/h (3 Bft) O 101 0 min 0,000 mm 0,0 UV-I 0 W/m 6,9 C 11,1 C 17,7 km/h (3 Bft) 100,00 %
12.04.2018 05:38 14,6 C 10,0 C 60 % 1000,8 hPa 0,0 l/m 11,9 km/h (2 Bft) O 96 0 min 0,000 mm 0,0 UV-I 0 W/m 6,9 C 11,9 C 19,3 km/h (3 Bft) 95,83 %
12.04.2018 05:39 14,6 C 10,0 C 60 % 1000,7 hPa 0,0 l/m 12,9 km/h (3 Bft) O 84 0 min 0,000 mm 0,0 UV-I 0 W/m 6,9 C 11,5 C 16,1 km/h (3 Bft) 96,15 %
12.04.2018 05:40 14,6 C 10,0 C 60 % 1000,8 hPa 0,0 l/m 14,3 km/h (3 Bft) O 86 0 min 0,000 mm 0,0 UV-I 0 W/m 6,9 C 10,9 C 19,3 km/h (3 Bft) 93,33 %
12.04.2018 05:41 14,6 C 10,0 C 60 % 1000,8 hPa 0,0 l/m 14,9 km/h (3 Bft) O 101 0 min 0,000 mm 0,0 UV-I 0 W/m 6,9 C 10,7 C 19,3 km/h (3 Bft) 96,30 %
12.04.2018 05:42 14,7 C 10,0 C 60 % 1000,8 hPa 0,0 l/m 15,7 km/h (3 Bft) O 100 0 min 0,000 mm 0,0 UV-I 0 W/m 7,0 C 10,6 C 19,3 km/h (3 Bft) 96,15 %
12.04.2018 05:43 14,7 C 10,0 C 59 % 1000,8 hPa 0,0 l/m 14,5 km/h (3 Bft) O 101 0 min 0,000 mm 0,0 UV-I 0 W/m 6,8 C 11,0 C 19,3 km/h (3 Bft) 93,10 %
12.04.2018 05:44 14,7 C 10,0 C 60 % 1000,8 hPa 0,0 l/m 13,6 km/h (3 Bft) O-NO 61 0 min 0,000 mm 0,0 UV-I 0 W/m 7,0 C 11,3 C 17,7 km/h (3 Bft) 91,67 %
12.04.2018 05:45 14,6 C 10,0 C 60 % 1000,8 hPa 0,0 l/m 12,8 km/h (3 Bft) O 88 0 min 0,000 mm 0,0 UV-I 0 W/m 6,9 C 11,5 C 16,1 km/h (3 Bft) 91,30 %
12.04.2018 05:46 14,6 C 10,0 C 60 % 1000,8 hPa 0,0 l/m 10,9 km/h (2 Bft) O-NO 63 0 min 0,000 mm 0,0 UV-I 0 W/m 6,9 C 12,3 C 14,5 km/h (3 Bft) 93,33 %
12.04.2018 05:47 14,5 C 10,0 C 60 % 1000,8 hPa 0,0 l/m 13,9 km/h (3 Bft) O-NO 69 0 min 0,000 mm 0,0 UV-I 0 W/m 6,8 C 11,0 C 17,7 km/h (3 Bft) 95,83 %
12.04.2018 05:48 14,4 C 10,0 C 61 % 1000,9 hPa 0,0 l/m 11,5 km/h (2 Bft) O-NO 65 0 min 0,000 mm 0,0 UV-I 0 W/m 7,0 C 11,8 C 16,1 km/h (3 Bft) 95,65 %
12.04.2018 05:49 14,4 C 10,0 C 61 % 1000,9 hPa 0,0 l/m 12,7 km/h (3 Bft) NO 55 0 min 0,000 mm 0,0 UV-I 0 W/m 7,0 C 11,3 C 14,5 km/h (3 Bft) 96,67 %
12.04.2018 05:50 14,4 C 10,0 C 61 % 1000,9 hPa 0,0 l/m 9,2 km/h (2 Bft) O 82 0 min 0,000 mm 0,0 UV-I 0 W/m 7,0 C 12,8 C 12,9 km/h (3 Bft) 92,86 %
12.04.2018 05:51 14,4 C 10,0 C 61 % 1000,9 hPa 0,0 l/m 11,7 km/h (2 Bft) O 79 0 min 0,000 mm 0,0 UV-I 0 W/m 7,0 C 11,7 C 16,1 km/h (3 Bft) 93,33 %
12.04.2018 05:52 14,4 C 10,0 C 61 % 1001,0 hPa 0,0 l/m 9,3 km/h (2 Bft) O 84 0 min 0,000 mm 0,0 UV-I 0 W/m 7,0 C 12,8 C 16,1 km/h (3 Bft) 95,12 %
12.04.2018 05:53 14,3 C 10,0 C 61 % 1001,0 hPa 0,0 l/m 7,2 km/h (2 Bft) O-NO 62 0 min 0,000 mm 0,0 UV-I 0 W/m 6,9 C 13,8 C 9,7 km/h (2 Bft) 92,59 %
12.04.2018 05:54 14,3 C 10,0 C 62 % 1001,0 hPa 0,0 l/m 7,7 km/h (2 Bft) O-NO 67 0 min 0,000 mm 0,0 UV-I 0 W/m 7,1 C 13,5 C 12,9 km/h (3 Bft) 98,31 %
12.04.2018 05:55 14,2 C 10,0 C 62 % 1001,0 hPa 0,0 l/m 8,5 km/h (2 Bft) NO 44 0 min 0,000 mm 0,0 UV-I 0 W/m 7,0 C 13,0 C 11,3 km/h (2 Bft) 95,45 %
12.04.2018 05:56 14,2 C 10,0 C 62 % 1000,9 hPa 0,0 l/m 9,3 km/h (2 Bft) O-NO 60 0 min 0,000 mm 0,0 UV-I 0 W/m 7,0 C 12,6 C 14,5 km/h (3 Bft) 100,00 %
12.04.2018 05:57 14,1 C 10,0 C 63 % 1000,9 hPa 0,0 l/m 12,2 km/h (2 Bft) O-NO 69 0 min 0,000 mm 0,0 UV-I 0 W/m 7,2 C 11,2 C 16,1 km/h (3 Bft) 93,33 %
12.04.2018 05:58 13,9 C 10,0 C 63 % 1000,9 hPa 0,0 l/m 10,1 km/h (2 Bft) O-NO 62 0 min 0,000 mm 0,0 UV-I 0 W/m 7,0 C 11,9 C 12,9 km/h (3 Bft) 100,00 %
12.04.2018 05:59 13,9 C 10,0 C 63 % 1000,8 hPa 0,0 l/m 8,1 km/h (2 Bft) NO 54 0 min 0,000 mm 0,0 UV-I 0 W/m 7,0 C 12,9 C 11,3 km/h (2 Bft) 95,83 %
12.04.2018 06:00 14,0 C 10,0 C 63 % 1000,9 hPa 0,0 l/m 7,0 km/h (2 Bft) O 97 0 min 0,076 mm 0,0 UV-I 0 W/m 7,1 C 13,6 C 9,7 km/h (2 Bft) 100,00 %
12.04.2018 06:01 14,0 C 10,0 C 63 % 1000,9 hPa 0,0 l/m 5,0 km/h (1 Bft) O 96 0 min 0,000 mm 0,0 UV-I 0 W/m 7,1 C 14,0 C 6,4 km/h (2 Bft) 95,83 %
12.04.2018 06:02 13,9 C 10,0 C 64 % 1000,9 hPa 0,0 l/m 4,3 km/h (1 Bft) O 101 0 min 0,000 mm 0,0 UV-I 0 W/m 7,2 C 13,9 C 6,4 km/h (2 Bft) 100,00 %
12.04.2018 06:03 13,8 C 10,0 C 64 % 1000,9 hPa 0,0 l/m 2,8 km/h (1 Bft) O 101 0 min 0,000 mm 0,0 UV-I 0 W/m 7,1 C 13,8 C 4,8 km/h (1 Bft) 93,10 %
12.04.2018 06:04 13,8 C 10,0 C 64 % 1000,9 hPa 0,0 l/m 6,4 km/h (2 Bft) O-SO 122 0 min 0,000 mm 0,0 UV-I 0 W/m 7,1 C 13,8 C 8,0 km/h (2 Bft) 100,00 %
12.04.2018 06:05 13,7 C 10,0 C 64 % 1000,9 hPa 0,0 l/m 7,2 km/h (2 Bft) O-SO 109 0 min 0,000 mm 0,0 UV-I 0 W/m 7,0 C 13,2 C 11,3 km/h (2 Bft) 96,15 %
12.04.2018 06:06 13,8 C 10,0 C 64 % 1000,9 hPa 0,0 l/m 10,9 km/h (2 Bft) O 97 0 min 0,000 mm 0,0 UV-I 0 W/m 7,1 C 11,4 C 16,1 km/h (3 Bft) 96,15 %
12.04.2018 06:07 13,8 C 10,0 C 64 % 1000,9 hPa 0,0 l/m 7,6 km/h (2 Bft) O-SO 109 0 min 0,000 mm 0,0 UV-I 0 W/m 7,1 C 13,1 C 12,9 km/h (3 Bft) 100,00 %
12.04.2018 06:08 13,8 C 10,0 C 64 % 1000,9 hPa 0,0 l/m 7,2 km/h (2 Bft) O-NO 69 0 min 0,000 mm 0,0 UV-I 0 W/m 7,1 C 13,3 C 11,3 km/h (2 Bft) 100,00 %
12.04.2018 06:09 13,8 C 10,0 C 64 % 1000,8 hPa 0,0 l/m 11,5 km/h (2 Bft) O-NO 74 0 min 0,000 mm 0,0 UV-I 0 W/m 7,1 C 11,1 C 14,5 km/h (3 Bft) 92,31 %
12.04.2018 06:10 13,8 C 10,0 C 64 % 1000,8 hPa 0,0 l/m 11,6 km/h (2 Bft) O 92 0 min 0,000 mm 0,0 UV-I 0 W/m 7,1 C 11,1 C 16,1 km/h (3 Bft) 95,83 %
12.04.2018 06:11 13,9 C 10,0 C 64 % 1000,9 hPa 0,0 l/m 9,0 km/h (2 Bft) O 81 0 min 0,000 mm 0,0 UV-I 0 W/m 7,2 C 12,4 C 12,9 km/h (3 Bft) 96,15 %
12.04.2018 06:12 13,9 C 10,0 C 64 % 1000,9 hPa 0,0 l/m 8,8 km/h (2 Bft) O 91 0 min 0,000 mm 0,0 UV-I 0 W/m 7,2 C 12,5 C 11,3 km/h (2 Bft) 96,30 %
12.04.2018 06:13 13,8 C 10,0 C 64 % 1000,8 hPa 0,0 l/m 12,2 km/h (2 Bft) O 91 0 min 0,000 mm 0,0 UV-I 0 W/m 7,1 C 10,8 C 14,5 km/h (3 Bft) 100,00 %
12.04.2018 06:14 13,7 C 10,0 C 65 % 1000,8 hPa 0,0 l/m 10,8 km/h (2 Bft) O-SO 103 0 min 0,000 mm 0,0 UV-I 0 W/m 7,2 C 11,3 C 12,9 km/h (3 Bft) 91,67 %
12.04.2018 06:15 13,7 C 10,0 C 65 % 1000,8 hPa 0,0 l/m 10,9 km/h (2 Bft) O 95 0 min 0,000 mm 0,0 UV-I 0 W/m 7,2 C 11,3 C 12,9 km/h (3 Bft) 100,00 %
12.04.2018 06:16 13,7 C 10,0 C 65 % 1000,8 hPa 0,0 l/m 9,3 km/h (2 Bft) O 89 0 min 0,000 mm 0,0 UV-I 0 W/m 7,2 C 12,0 C 14,5 km/h (3 Bft) 96,30 %
12.04.2018 06:17 13,7 C 10,0 C 65 % 1000,8 hPa 0,0 l/m 11,0 km/h (2 Bft) O-SO 120 0 min 0,000 mm 0,0 UV-I 0 W/m 7,2 C 11,2 C 14,5 km/h (3 Bft) 100,00 %
12.04.2018 06:18 13,6 C 10,0 C 66 % 1000,8 hPa 0,0 l/m 10,9 km/h (2 Bft) O-SO 116 0 min 0,000 mm 0,0 UV-I 0 W/m 7,4 C 11,1 C 14,5 km/h (3 Bft) 96,67 %
12.04.2018 06:19 13,6 C 10,0 C 66 % 1000,8 hPa 0,0 l/m 13,6 km/h (3 Bft) O-SO 111 0 min 0,000 mm 0,0 UV-I 0 W/m 7,4 C 10,0 C 17,7 km/h (3 Bft) 95,65 %
12.04.2018 06:20 13,6 C 10,0 C 66 % 1000,8 hPa 0,0 l/m 14,9 km/h (3 Bft) O 83 0 min 0,000 mm 0,0 UV-I 1 W/m 7,4 C 9,5 C 19,3 km/h (3 Bft) 100,00 %
12.04.2018 06:21 13,6 C 10,0 C 66 % 1000,8 hPa 0,0 l/m 13,8 km/h (3 Bft) O 94 0 min 0,000 mm 0,0 UV-I 5 W/m 7,4 C 9,9 C 16,1 km/h (3 Bft) 96,30 %
12.04.2018 06:22 13,6 C 10,0 C 66 % 1000,8 hPa 0,0 l/m 12,0 km/h (2 Bft) O-NO 76 0 min 0,000 mm 0,0 UV-I 5 W/m 7,4 C 10,7 C 14,5 km/h (3 Bft) 100,00 %
12.04.2018 06:23 13,6 C 10,0 C 65 % 1000,8 hPa 0,0 l/m 15,1 km/h (3 Bft) O 100 0 min 0,000 mm 0,0 UV-I 5 W/m 7,1 C 9,5 C 19,3 km/h (3 Bft) 95,12 %
12.04.2018 06:24 13,7 C 10,0 C 65 % 1000,8 hPa 0,0 l/m 13,5 km/h (3 Bft) O 97 0 min 0,000 mm 0,0 UV-I 5 W/m 7,2 C 10,2 C 17,7 km/h (3 Bft) 93,33 %
12.04.2018 06:25 13,7 C 10,0 C 65 % 1000,8 hPa 0,0 l/m 11,8 km/h (2 Bft) O 96 0 min 0,000 mm 0,0 UV-I 5 W/m 7,2 C 10,9 C 12,9 km/h (3 Bft) 96,67 %
12.04.2018 06:26 13,7 C 10,0 C 65 % 1000,8 hPa 0,0 l/m 12,7 km/h (3 Bft) O-SO 105 0 min 0,000 mm 0,0 UV-I 5 W/m 7,2 C 10,5 C 14,5 km/h (3 Bft) 100,00 %
12.04.2018 06:27 13,7 C 10,0 C 65 % 1000,8 hPa 0,0 l/m 13,3 km/h (3 Bft) O-NO 78 0 min 0,000 mm 0,0 UV-I 5 W/m 7,2 C 10,2 C 14,5 km/h (3 Bft) 91,67 %
12.04.2018 06:28 13,7 C 10,0 C 65 % 1000,8 hPa 0,0 l/m 8,7 km/h (2 Bft) O 83 0 min 0,000 mm 0,0 UV-I 5 W/m 7,2 C 12,3 C 16,1 km/h (3 Bft) 92,31 %
12.04.2018 06:29 13,7 C 10,0 C 66 % 1000,8 hPa 0,0 l/m 12,2 km/h (2 Bft) O 87 0 min 0,000 mm 0,0 UV-I 5 W/m 7,5 C 10,7 C 19,3 km/h (3 Bft) 100,00 %
12.04.2018 06:30 13,7 C 10,0 C 66 % 1000,8 hPa 0,0 l/m 15,8 km/h (3 Bft) O 90 0 min 0,000 mm 0,0 UV-I 6 W/m 7,5 C 9,3 C 19,3 km/h (3 Bft) 92,31 %
12.04.2018 06:31 13,6 C 10,0 C 66 % 1000,7 hPa 0,0 l/m 12,5 km/h (3 Bft) O-NO 68 0 min 0,000 mm 0,0 UV-I 7 W/m 7,4 C 10,5 C 16,1 km/h (3 Bft) 100,00 %
12.04.2018 06:32 13,6 C 10,0 C 66 % 1000,7 hPa 0,0 l/m 12,3 km/h (3 Bft) O 82 0 min 0,000 mm 0,0 UV-I 7 W/m 7,4 C 10,5 C 16,1 km/h (3 Bft) 95,65 %
12.04.2018 06:33 13,7 C 10,0 C 66 % 1000,7 hPa 0,0 l/m 13,2 km/h (3 Bft) NO 46 0 min 0,000 mm 0,0 UV-I 7 W/m 7,5 C 10,3 C 19,3 km/h (3 Bft) 100,00 %
12.04.2018 06:34 13,7 C 10,0 C 66 % 1000,6 hPa 0,0 l/m 14,2 km/h (3 Bft) O 80 0 min 0,000 mm 0,0 UV-I 8 W/m 7,5 C 9,9 C 19,3 km/h (3 Bft) 96,15 %
12.04.2018 06:35 13,7 C 10,0 C 65 % 1000,6 hPa 0,0 l/m 13,3 km/h (3 Bft) NO 49 0 min 0,000 mm 0,0 UV-I 9 W/m 7,2 C 10,2 C 19,3 km/h (3 Bft) 100,00 %
12.04.2018 06:36 13,8 C 10,0 C 65 % 1000,6 hPa 0,0 l/m 12,3 km/h (3 Bft) O-NO 58 0 min 0,000 mm 0,0 UV-I 9 W/m 7,3 C 10,8 C 17,7 km/h (3 Bft) 96,15 %
12.04.2018 06:37 13,8 C 10,0 C 65 % 1000,6 hPa 0,0 l/m 12,2 km/h (2 Bft) O-NO 78 0 min 0,000 mm 0,0 UV-I 9 W/m 7,3 C 10,8 C 14,5 km/h (3 Bft) 100,00 %
12.04.2018 06:38 13,8 C 10,0 C 65 % 1000,5 hPa 0,0 l/m 11,1 km/h (2 Bft) O-NO 65 0 min 0,000 mm 0,0 UV-I 10 W/m 7,3 C 11,3 C 12,9 km/h (3 Bft) 94,44 %
12.04.2018 06:39 13,8 C 10,0 C 65 % 1000,5 hPa 0,0 l/m 9,2 km/h (2 Bft) O-NO 60 0 min 0,000 mm 0,0 UV-I 11 W/m 7,3 C 12,2 C 12,9 km/h (3 Bft) 92,31 %
12.04.2018 06:40 13,7 C 10,0 C 65 % 1000,5 hPa 0,0 l/m 10,4 km/h (2 Bft) NO 44 0 min 0,000 mm 0,0 UV-I 11 W/m 7,2 C 11,5 C 14,5 km/h (3 Bft) 100,00 %
12.04.2018 06:41 13,7 C 10,0 C 66 % 1000,5 hPa 0,0 l/m 10,7 km/h (2 Bft) NO 43 0 min 0,000 mm 0,0 UV-I 11 W/m 7,5 C 11,3 C 17,7 km/h (3 Bft) 94,12 %
12.04.2018 06:42 13,7 C 10,0 C 66 % 1000,5 hPa 0,0 l/m 10,5 km/h (2 Bft) NO 43 0 min 0,000 mm 0,0 UV-I 12 W/m 7,5 C 11,4 C 16,1 km/h (3 Bft) 96,30 %
12.04.2018 06:43 13,7 C 10,0 C 66 % 1000,5 hPa 0,0 l/m 9,7 km/h (2 Bft) O-NO 61 0 min 0,000 mm 0,0 UV-I 12 W/m 7,5 C 11,8 C 14,5 km/h (3 Bft) 95,65 %
12.04.2018 06:44 13,7 C 10,0 C 66 % 1000,4 hPa 0,0 l/m 13,8 km/h (3 Bft) NO 48 0 min 0,000 mm 0,0 UV-I 12 W/m 7,5 C 10,1 C 17,7 km/h (3 Bft) 100,00 %
12.04.2018 06:45 13,6 C 10,0 C 66 % 1000,4 hPa 0,0 l/m 12,0 km/h (2 Bft) O 88 0 min 0,000 mm 0,0 UV-I 12 W/m 7,4 C 10,7 C 16,1 km/h (3 Bft) 95,65 %
12.04.2018 06:46 13,6 C 10,0 C 66 % 1000,4 hPa 0,0 l/m 11,7 km/h (2 Bft) NO 48 0 min 0,000 mm 0,0 UV-I 13 W/m 7,4 C 10,8 C 14,5 km/h (3 Bft) 100,00 %
12.04.2018 06:47 13,6 C 10,0 C 66 % 1000,4 hPa 0,0 l/m 9,6 km/h (2 Bft) O-NO 62 0 min 0,000 mm 0,0 UV-I 14 W/m 7,4 C 11,8 C 12,9 km/h (3 Bft) 96,15 %
12.04.2018 06:48 13,6 C 10,0 C 66 % 1000,5 hPa 0,0 l/m 8,5 km/h (2 Bft) NO 43 0 min 0,000 mm 0,0 UV-I 14 W/m 7,4 C 12,4 C 11,3 km/h (2 Bft) 100,00 %
12.04.2018 06:49 13,6 C 10,0 C 66 % 1000,5 hPa 0,0 l/m 7,5 km/h (2 Bft) O-NO 69 0 min 0,000 mm 0,0 UV-I 16 W/m 7,4 C 12,9 C 11,3 km/h (2 Bft) 96,15 %
12.04.2018 06:50 13,5 C 10,0 C 66 % 1000,5 hPa 0,0 l/m 8,4 km/h (2 Bft) O-NO 58 0 min 0,000 mm 0,0 UV-I 16 W/m 7,3 C 12,3 C 9,7 km/h (2 Bft) 100,00 %
12.04.2018 06:51 13,4 C 10,0 C 67 % 1000,5 hPa 0,0 l/m 8,5 km/h (2 Bft) NO 45 0 min 0,000 mm 0,0 UV-I 16 W/m 7,4 C 12,1 C 12,9 km/h (3 Bft) 96,55 %
12.04.2018 06:52 13,4 C 10,0 C 67 % 1000,5 hPa 0,0 l/m 7,4 km/h (2 Bft) NO 42 0 min 0,000 mm 0,0 UV-I 16 W/m 7,4 C 12,8 C 9,7 km/h (2 Bft) 95,83 %
12.04.2018 06:53 13,4 C 10,0 C 67 % 1000,5 hPa 0,0 l/m 7,1 km/h (2 Bft) NO 45 0 min 0,000 mm 0,0 UV-I 17 W/m 7,4 C 13,0 C 9,7 km/h (2 Bft) 97,79 %
12.04.2018 06:54 13,3 C 10,0 C 67 % 1000,5 hPa 0,0 l/m 7,2 km/h (2 Bft) NO 44 0 min 0,000 mm 0,0 UV-I 18 W/m 7,3 C 12,8 C 8,0 km/h (2 Bft) 100,00 %
12.04.2018 06:55 13,3 C 10,0 C 67 % 1000,5 hPa 0,0 l/m 7,5 km/h (2 Bft) N-NO 24 0 min 0,000 mm 0,0 UV-I 18 W/m 7,3 C 12,6 C 9,7 km/h (2 Bft) 100,00 %
12.04.2018 06:56 13,3 C 10,0 C 67 % 1000,5 hPa 0,0 l/m 6,3 km/h (2 Bft) NO 50 0 min 0,000 mm 0,0 UV-I 18 W/m 7,3 C 13,3 C 8,0 km/h (2 Bft) 100,00 %
12.04.2018 06:57 13,3 C 10,0 C 67 % 1000,5 hPa 0,0 l/m 6,1 km/h (2 Bft) NO 42 0 min 0,000 mm 0,0 UV-I 18 W/m 7,3 C 13,3 C 8,0 km/h (2 Bft) 100,00 %
12.04.2018 06:58 13,3 C 10,0 C 67 % 1000,5 hPa 0,0 l/m 6,3 km/h (2 Bft) NO 46 0 min 0,000 mm 0,0 UV-I 19 W/m 7,3 C 13,3 C 8,0 km/h (2 Bft) 100,00 %
12.04.2018 06:59 13,3 C 10,0 C 67 % 1000,5 hPa 0,0 l/m 6,4 km/h (2 Bft) NO 52 0 min 0,000 mm 0,0 UV-I 19 W/m 7,3 C 13,3 C 8,0 km/h (2 Bft) 100,00 %
12.04.2018 07:00 13,3 C 10,0 C 67 % 1000,5 hPa 0,0 l/m 6,3 km/h (2 Bft) NO 53 0 min 0,051 mm 0,0 UV-I 19 W/m 7,3 C 13,3 C 8,0 km/h (2 Bft) 100,00 %
12.04.2018 07:01 13,3 C 10,0 C 67 % 1000,6 hPa 0,0 l/m 6,3 km/h (2 Bft) O-NO 60 0 min 0,000 mm 0,0 UV-I 19 W/m 7,3 C 13,3 C 8,0 km/h (2 Bft) 100,00 %
12.04.2018 07:02 13,3 C 10,0 C 67 % 1000,6 hPa 0,0 l/m 6,0 km/h (2 Bft) O-NO 59 0 min 0,000 mm 0,0 UV-I 20 W/m 7,3 C 13,3 C 8,0 km/h (2 Bft) 100,00 %
12.04.2018 07:03 13,3 C 10,0 C 67 % 1000,6 hPa 0,0 l/m 6,5 km/h (2 Bft) O-NO 60 0 min 0,000 mm 0,0 UV-I 21 W/m 7,3 C 13,3 C 8,0 km/h (2 Bft) 100,00 %
12.04.2018 07:04 13,4 C 10,0 C 67 % 1000,6 hPa 0,0 l/m 5,3 km/h (1 Bft) NO 39 0 min 0,000 mm 0,0 UV-I 21 W/m 7,4 C 13,4 C 8,0 km/h (2 Bft) 100,00 %
12.04.2018 07:05 13,5 C 10,0 C 66 % 1000,6 hPa 0,0 l/m 5,3 km/h (1 Bft) O-NO 61 0 min 0,000 mm 0,0 UV-I 21 W/m 7,3 C 13,5 C 6,4 km/h (2 Bft) 100,00 %
12.04.2018 07:06 13,5 C 10,0 C 66 % 1000,6 hPa 0,0 l/m 7,2 km/h (2 Bft) O-NO 62 0 min 0,000 mm 0,0 UV-I 21 W/m 7,3 C 13,0 C 9,7 km/h (2 Bft) 95,65 %
12.04.2018 07:07 13,5 C 10,0 C 67 % 1000,6 hPa 0,0 l/m 6,4 km/h (2 Bft) NO 53 0 min 0,000 mm 0,0 UV-I 23 W/m 7,5 C 13,5 C 9,7 km/h (2 Bft) 100,00 %
12.04.2018 07:08 13,5 C 10,0 C 66 % 1000,6 hPa 0,0 l/m 7,0 km/h (2 Bft) O-NO 63 0 min 0,000 mm 0,0 UV-I 23 W/m 7,3 C 13,1 C 8,0 km/h (2 Bft) 100,00 %
12.04.2018 07:09 13,6 C 10,0 C 66 % 1000,6 hPa 0,0 l/m 5,1 km/h (1 Bft) O-NO 64 0 min 0,000 mm 0,0 UV-I 23 W/m 7,4 C 13,6 C 6,4 km/h (2 Bft) 100,00 %
12.04.2018 07:10 13,6 C 10,0 C 66 % 1000,6 hPa 0,0 l/m 4,9 km/h (1 Bft) O-NO 64 0 min 0,000 mm 0,0 UV-I 23 W/m 7,4 C 13,6 C 6,4 km/h (2 Bft) 95,65 %
12.04.2018 07:11 13,6 C 10,0 C 66 % 1000,7 hPa 0,0 l/m 5,1 km/h (1 Bft) O-NO 63 0 min 0,000 mm 0,0 UV-I 24 W/m 7,4 C 13,6 C 6,4 km/h (2 Bft) 100,00 %
12.04.2018 07:12 13,6 C 10,0 C 66 % 1000,7 hPa 0,0 l/m 4,6 km/h (1 Bft) O-NO 63 0 min 0,000 mm 0,0 UV-I 25 W/m 7,4 C 13,6 C 6,4 km/h (2 Bft) 100,00 %
12.04.2018 07:13 13,6 C 10,0 C 66 % 1000,7 hPa 0,0 l/m 6,0 km/h (2 Bft) O-NO 65 0 min 0,000 mm 0,0 UV-I 26 W/m 7,4 C 13,6 C 8,0 km/h (2 Bft) 100,00 %
12.04.2018 07:14 13,6 C 10,0 C 66 % 1000,7 hPa 0,0 l/m 5,8 km/h (2 Bft) O-NO 63 0 min 0,000 mm 0,0 UV-I 26 W/m 7,4 C 13,6 C 6,4 km/h (2 Bft) 91,67 %
12.04.2018 07:15 13,6 C 10,0 C 66 % 1000,7 hPa 0,0 l/m 6,8 km/h (2 Bft) O-NO 69 0 min 0,000 mm 0,0 UV-I 26 W/m 7,4 C 13,4 C 9,7 km/h (2 Bft) 100,00 %
12.04.2018 07:16 13,5 C 10,0 C 67 % 1000,7 hPa 0,0 l/m 8,6 km/h (2 Bft) NO 36 0 min 0,000 mm 0,0 UV-I 27 W/m 7,5 C 12,2 C 11,3 km/h (2 Bft) 100,00 %
12.04.2018 07:17 13,4 C 10,0 C 67 % 1000,7 hPa 0,0 l/m 9,5 km/h (2 Bft) NO 34 0 min 0,000 mm 0,0 UV-I 28 W/m 7,4 C 11,6 C 11,3 km/h (2 Bft) 100,00 %
12.04.2018 07:18 13,3 C 10,0 C 68 % 1000,7 hPa 0,0 l/m 11,5 km/h (2 Bft) NO 49 0 min 0,000 mm 0,0 UV-I 30 W/m 7,5 C 10,5 C 14,5 km/h (3 Bft) 100,00 %
12.04.2018 07:19 13,3 C 10,0 C 68 % 1000,7 hPa 0,0 l/m 12,7 km/h (3 Bft) NO 44 0 min 0,000 mm 0,0 UV-I 30 W/m 7,5 C 10,0 C 14,5 km/h (3 Bft) 100,00 %
12.04.2018 07:20 13,3 C 10,0 C 68 % 1000,8 hPa 0,0 l/m 11,1 km/h (2 Bft) NO 40 0 min 0,000 mm 0,0 UV-I 30 W/m 7,5 C 10,7 C 14,5 km/h (3 Bft) 100,00 %
12.04.2018 07:21 13,2 C 10,0 C 69 % 1000,7 hPa 0,0 l/m 12,2 km/h (2 Bft) NO 36 0 min 0,000 mm 0,0 UV-I 31 W/m 7,6 C 10,1 C 14,5 km/h (3 Bft) 96,55 %
12.04.2018 07:22 13,1 C 10,0 C 69 % 1000,7 hPa 0,0 l/m 12,2 km/h (2 Bft) N-NO 17 0 min 0,000 mm 0,0 UV-I 32 W/m 7,5 C 10,0 C 16,1 km/h (3 Bft) 100,00 %
12.04.2018 07:23 13,1 C 10,0 C 70 % 1000,7 hPa 0,0 l/m 15,3 km/h (3 Bft) NO 34 0 min 0,000 mm 0,0 UV-I 32 W/m 7,8 C 8,8 C 19,3 km/h (3 Bft) 100,00 %
12.04.2018 07:24 13,1 C 10,0 C 70 % 1000,8 hPa 0,0 l/m 13,0 km/h (3 Bft) NO 42 0 min 0,000 mm 0,0 UV-I 33 W/m 7,8 C 9,7 C 14,5 km/h (3 Bft) 100,00 %
12.04.2018 07:25 13,1 C 10,0 C 69 % 1000,8 hPa 0,0 l/m 13,6 km/h (3 Bft) NO 39 0 min 0,000 mm 0,0 UV-I 33 W/m 7,5 C 9,4 C 19,3 km/h (3 Bft) 100,00 %
12.04.2018 07:26 13,1 C 10,0 C 70 % 1000,7 hPa 0,0 l/m 16,8 km/h (3 Bft) N-NO 33 0 min 0,000 mm 0,0 UV-I 34 W/m 7,8 C 8,3 C 20,9 km/h (4 Bft) 95,83 %
12.04.2018 07:27 13,1 C 10,0 C 69 % 1000,8 hPa 0,0 l/m 13,5 km/h (3 Bft) NO 40 0 min 0,000 mm 0,0 UV-I 35 W/m 7,5 C 9,5 C 16,1 km/h (3 Bft) 96,55 %
12.04.2018 07:28 13,2 C 10,0 C 69 % 1000,8 hPa 0,0 l/m 12,2 km/h (2 Bft) NO 49 0 min 0,000 mm 0,0 UV-I 36 W/m 7,6 C 10,1 C 16,1 km/h (3 Bft) 100,00 %
12.04.2018 07:29 13,2 C 10,0 C 69 % 1000,8 hPa 0,0 l/m 13,8 km/h (3 Bft) N-NO 33 0 min 0,000 mm 0,0 UV-I 39 W/m 7,6 C 9,5 C 16,1 km/h (3 Bft) 96,55 %
12.04.2018 07:30 13,2 C 10,0 C 69 % 1000,8 hPa 0,0 l/m 10,9 km/h (2 Bft) N-NO 30 0 min 0,000 mm 0,0 UV-I 39 W/m 7,6 C 10,7 C 12,9 km/h (3 Bft) 100,00 %
12.04.2018 07:31 13,2 C 10,0 C 69 % 1000,8 hPa 0,0 l/m 11,7 km/h (2 Bft) NO 44 0 min 0,000 mm 0,0 UV-I 40 W/m 7,6 C 10,3 C 16,1 km/h (3 Bft) 91,30 %
12.04.2018 07:32 13,1 C 10,0 C 70 % 1000,9 hPa 0,0 l/m 10,3 km/h (2 Bft) NO 46 0 min 0,000 mm 0,0 UV-I 42 W/m 7,8 C 10,9 C 14,5 km/h (3 Bft) 100,00 %
12.04.2018 07:33 13,1 C 10,0 C 70 % 1000,9 hPa 0,0 l/m 9,5 km/h (2 Bft) NO 49 0 min 0,000 mm 0,0 UV-I 43 W/m 7,8 C 11,3 C 11,3 km/h (2 Bft) 94,12 %
12.04.2018 07:34 13,1 C 10,0 C 70 % 1000,9 hPa 0,0 l/m 9,6 km/h (2 Bft) NO 42 0 min 0,000 mm 0,0 UV-I 45 W/m 7,8 C 11,2 C 11,3 km/h (2 Bft) 100,00 %
12.04.2018 07:35 13,1 C 10,0 C 70 % 1000,9 hPa 0,0 l/m 6,5 km/h (2 Bft) O-NO 59 0 min 0,000 mm 0,0 UV-I 47 W/m 7,8 C 13,1 C 8,0 km/h (2 Bft) 94,44 %
12.04.2018 07:36 13,2 C 10,0 C 70 % 1000,9 hPa 0,0 l/m 5,8 km/h (2 Bft) O-NO 66 0 min 0,000 mm 0,0 UV-I 49 W/m 7,9 C 13,2 C 6,4 km/h (2 Bft) 100,00 %
12.04.2018 07:37 13,1 C 10,0 C 70 % 1000,8 hPa 0,0 l/m 6,7 km/h (2 Bft) NO 51 0 min 0,000 mm 0,0 UV-I 52 W/m 7,8 C 12,9 C 8,0 km/h (2 Bft) 94,44 %
12.04.2018 07:38 13,2 C 10,0 C 70 % 1000,8 hPa 0,0 l/m 5,2 km/h (1 Bft) O 96 0 min 0,000 mm 0,0 UV-I 55 W/m 7,9 C 13,2 C 8,0 km/h (2 Bft) 96,15 %
12.04.2018 07:39 13,2 C 10,0 C 70 % 1000,9 hPa 0,0 l/m 7,6 km/h (2 Bft) O 100 0 min 0,000 mm 0,0 UV-I 57 W/m 7,9 C 12,5 C 11,3 km/h (2 Bft) 100,00 %
12.04.2018 07:40 13,2 C 10,0 C 70 % 1000,8 hPa 0,0 l/m 9,0 km/h (2 Bft) O-NO 77 0 min 0,000 mm 0,0 UV-I 61 W/m 7,9 C 11,6 C 11,3 km/h (2 Bft) 100,00 %
12.04.2018 07:41 13,3 C 10,0 C 69 % 1000,8 hPa 0,0 l/m 11,0 km/h (2 Bft) NO 55 0 min 0,000 mm 0,0 UV-I 63 W/m 7,7 C 10,8 C 14,5 km/h (3 Bft) 96,30 %
12.04.2018 07:42 13,3 C 10,0 C 69 % 1000,9 hPa 0,0 l/m 13,7 km/h (3 Bft) O 100 0 min 0,000 mm 0,0 UV-I 65 W/m 7,7 C 9,6 C 17,7 km/h (3 Bft) 95,65 %
12.04.2018 07:43 13,3 C 10,0 C 70 % 1000,9 hPa 0,0 l/m 13,4 km/h (3 Bft) O-SO 103 0 min 0,000 mm 0,0 UV-I 68 W/m 7,9 C 9,7 C 16,1 km/h (3 Bft) 100,00 %
12.04.2018 07:44 13,4 C 10,0 C 70 % 1000,9 hPa 0,0 l/m 11,9 km/h (2 Bft) O 101 0 min 0,000 mm 0,0 UV-I 69 W/m 8,0 C 10,5 C 14,5 km/h (3 Bft) 88,46 %
12.04.2018 07:45 13,4 C 10,0 C 68 % 1000,9 hPa 0,0 l/m 10,8 km/h (2 Bft) O-SO 114 0 min 0,000 mm 0,0 UV-I 70 W/m 7,6 C 11,0 C 12,9 km/h (3 Bft) 100,00 %
12.04.2018 07:46 13,6 C 10,0 C 68 % 1000,9 hPa 0,0 l/m 10,8 km/h (2 Bft) O-SO 107 0 min 0,000 mm 0,0 UV-I 72 W/m 7,8 C 11,2 C 12,9 km/h (3 Bft) 96,15 %
12.04.2018 07:47 13,7 C 10,0 C 67 % 1000,9 hPa 0,0 l/m 11,3 km/h (2 Bft) O-SO 105 0 min 0,000 mm 0,0 UV-I 72 W/m 7,7 C 11,1 C 14,5 km/h (3 Bft) 96,67 %
12.04.2018 07:48 13,7 C 10,0 C 68 % 1001,0 hPa 0,0 l/m 9,1 km/h (2 Bft) O 100 0 min 0,000 mm 0,0 UV-I 74 W/m 7,9 C 12,1 C 11,3 km/h (2 Bft) 100,00 %
12.04.2018 07:49 13,8 C 10,0 C 67 % 1001,0 hPa 0,0 l/m 12,8 km/h (3 Bft) O-SO 103 0 min 0,000 mm 0,0 UV-I 74 W/m 7,8 C 10,6 C 17,7 km/h (3 Bft) 96,30 %
12.04.2018 07:50 13,9 C 10,0 C 66 % 1001,0 hPa 0,0 l/m 11,8 km/h (2 Bft) O 90 0 min 0,000 mm 0,0 UV-I 76 W/m 7,7 C 11,1 C 14,5 km/h (3 Bft) 100,00 %
12.04.2018 07:51 14,1 C 10,0 C 65 % 1001,0 hPa 0,0 l/m 10,2 km/h (2 Bft) O-SO 119 0 min 0,000 mm 0,0 UV-I 76 W/m 7,6 C 12,0 C 14,5 km/h (3 Bft) 95,83 %
12.04.2018 07:52 14,2 C 10,0 C 65 % 1001,0 hPa 0,0 l/m 12,2 km/h (2 Bft) O-SO 117 0 min 0,000 mm 0,0 UV-I 77 W/m 7,7 C 11,3 C 14,5 km/h (3 Bft) 96,15 %
12.04.2018 07:53 14,3 C 10,0 C 64 % 1001,0 hPa 0,0 l/m 8,8 km/h (2 Bft) O-SO 117 0 min 0,000 mm 0,0 UV-I 77 W/m 7,6 C 12,9 C 12,9 km/h (3 Bft) 91,67 %
12.04.2018 07:54 14,4 C 10,0 C 64 % 1001,1 hPa 0,0 l/m 7,2 km/h (2 Bft) O-SO 119 0 min 0,000 mm 0,0 UV-I 77 W/m 7,7 C 13,9 C 12,9 km/h (3 Bft) 96,88 %
12.04.2018 07:55 14,5 C 10,0 C 64 % 1001,1 hPa 0,0 l/m 12,9 km/h (3 Bft) O-SO 123 0 min 0,000 mm 0,0 UV-I 77 W/m 7,8 C 11,3 C 17,7 km/h (3 Bft) 100,00 %
12.04.2018 07:56 14,6 C 10,0 C 63 % 1001,1 hPa 0,0 l/m 11,3 km/h (2 Bft) O-SO 105 0 min 0,000 mm 0,0 UV-I 79 W/m 7,6 C 12,1 C 12,9 km/h (3 Bft) 96,30 %
12.04.2018 07:57 14,7 C 10,0 C 62 % 1001,1 hPa 0,0 l/m 11,1 km/h (2 Bft) O-SO 105 0 min 0,000 mm 0,0 UV-I 79 W/m 7,5 C 12,3 C 12,9 km/h (3 Bft) 100,00 %
12.04.2018 07:58 14,8 C 10,0 C 62 % 1001,1 hPa 0,0 l/m 14,8 km/h (3 Bft) O-SO 112 0 min 0,000 mm 0,0 UV-I 80 W/m 7,6 C 11,0 C 20,9 km/h (4 Bft) 96,15 %
12.04.2018 07:59 14,8 C 10,0 C 61 % 1001,1 hPa 0,0 l/m 16,0 km/h (3 Bft) O 101 0 min 0,000 mm 0,0 UV-I 81 W/m 7,4 C 10,6 C 19,3 km/h (3 Bft) 100,00 %
12.04.2018 08:00 14,9 C 10,0 C 60 % 1001,0 hPa 0,0 l/m 13,7 km/h (3 Bft) O-SO 118 0 min 0,076 mm 0,0 UV-I 81 W/m 7,2 C 11,5 C 16,1 km/h (3 Bft) 95,83 %
12.04.2018 08:01 15,0 C 10,0 C 60 % 1001,0 hPa 0,0 l/m 12,9 km/h (3 Bft) O 96 0 min 0,000 mm 0,0 UV-I 83 W/m 7,3 C 11,9 C 16,1 km/h (3 Bft) 100,00 %
12.04.2018 08:02 15,0 C 10,0 C 61 % 1001,0 hPa 0,0 l/m 12,7 km/h (3 Bft) O-SO 104 0 min 0,000 mm 0,0 UV-I 83 W/m 7,5 C 12,0 C 16,1 km/h (3 Bft) 100,00 %
12.04.2018 08:03 15,1 C 10,0 C 60 % 1000,9 hPa 0,0 l/m 12,6 km/h (3 Bft) O 100 0 min 0,000 mm 0,0 UV-I 84 W/m 7,4 C 12,2 C 16,1 km/h (3 Bft) 100,00 %
12.04.2018 08:04 15,1 C 10,0 C 60 % 1000,8 hPa 0,0 l/m 14,3 km/h (3 Bft) O-SO 105 0 min 0,000 mm 0,0 UV-I 84 W/m 7,4 C 11,5 C 19,3 km/h (3 Bft) 100,00 %
12.04.2018 08:05 15,2 C 10,0 C 60 % 1000,8 hPa 0,0 l/m 13,0 km/h (3 Bft) O-SO 105 0 min 0,000 mm 0,0 UV-I 84 W/m 7,5 C 12,1 C 16,1 km/h (3 Bft) 100,00 %
12.04.2018 08:06 15,2 C 10,0 C 60 % 1000,9 hPa 0,0 l/m 11,8 km/h (2 Bft) O-SO 118 0 min 0,000 mm 0,0 UV-I 87 W/m 7,5 C 12,6 C 16,1 km/h (3 Bft) 100,00 %
12.04.2018 08:07 15,2 C 10,0 C 60 % 1000,9 hPa 0,0 l/m 13,3 km/h (3 Bft) O 91 0 min 0,000 mm 0,0 UV-I 89 W/m 7,5 C 12,0 C 17,7 km/h (3 Bft) 100,00 %
12.04.2018 08:09 15,2 C 10,0 C 61 % 1001,0 hPa 0,0 l/m 11,3 km/h (2 Bft) NO 53 0 min 0,000 mm 0,0 UV-I 92 W/m 7,7 C 12,8 C 16,1 km/h (3 Bft) 94,34 %
12.04.2018 08:10 15,1 C 10,0 C 61 % 1001,0 hPa 0,0 l/m 11,3 km/h (2 Bft) O-NO 65 0 min 0,000 mm 0,0 UV-I 95 W/m 7,6 C 12,7 C 14,5 km/h (3 Bft) 100,00 %
12.04.2018 08:11 15,1 C 10,0 C 61 % 1000,9 hPa 0,0 l/m 13,6 km/h (3 Bft) O-NO 74 0 min 0,000 mm 0,0 UV-I 97 W/m 7,6 C 11,8 C 19,3 km/h (3 Bft) 100,00 %
12.04.2018 08:12 15,1 C 10,0 C 61 % 1000,9 hPa 0,0 l/m 8,8 km/h (2 Bft) O-NO 65 0 min 0,000 mm 0,0 UV-I 99 W/m 7,6 C 13,8 C 12,9 km/h (3 Bft) 96,15 %
12.04.2018 08:13 15,1 C 10,0 C 61 % 1001,0 hPa 0,0 l/m 8,1 km/h (2 Bft) NO 40 0 min 0,000 mm 0,0 UV-I 102 W/m 7,6 C 14,2 C 9,7 km/h (2 Bft) 100,00 %
12.04.2018 08:14 14,8 C 10,0 C 64 % 1001,0 hPa 0,0 l/m 8,1 km/h (2 Bft) NO 50 0 min 0,000 mm 0,0 UV-I 106 W/m 8,1 C 13,8 C 11,3 km/h (2 Bft) 100,00 %
12.04.2018 08:15 14,6 C 10,0 C 66 % 1001,0 hPa 0,0 l/m 10,2 km/h (2 Bft) NO 44 0 min 0,000 mm 0,0 UV-I 108 W/m 8,3 C 12,6 C 14,5 km/h (3 Bft) 100,00 %
12.04.2018 08:16 14,3 C 10,0 C 66 % 1001,0 hPa 0,0 l/m 10,5 km/h (2 Bft) N-NO 30 0 min 0,000 mm 0,0 UV-I 113 W/m 8,0 C 12,1 C 14,5 km/h (3 Bft) 100,00 %
12.04.2018 08:17 14,2 C 10,0 C 67 % 1001,0 hPa 0,0 l/m 12,4 km/h (3 Bft) N-NO 25 0 min 0,000 mm 0,0 UV-I 116 W/m 8,2 C 11,2 C 16,1 km/h (3 Bft) 100,00 %
12.04.2018 08:18 14,1 C 10,0 C 67 % 1001,0 hPa 0,0 l/m 12,3 km/h (3 Bft) NO 34 0 min 0,000 mm 0,0 UV-I 123 W/m 8,1 C 11,1 C 16,1 km/h (3 Bft) 100,00 %
12.04.2018 08:19 14,1 C 10,0 C 68 % 1001,0 hPa 0,0 l/m 12,5 km/h (3 Bft) O-NO 66 0 min 0,000 mm 0,0 UV-I 132 W/m 8,3 C 11,0 C 16,1 km/h (3 Bft) 100,00 %
12.04.2018 08:20 14,0 C 10,0 C 68 % 1001,0 hPa 0,0 l/m 11,3 km/h (2 Bft) NO 52 0 min 0,000 mm 0,0 UV-I 143 W/m 8,2 C 11,4 C 14,5 km/h (3 Bft) 100,00 %
12.04.2018 08:21 14,0 C 10,0 C 69 % 1000,9 hPa 0,0 l/m 11,5 km/h (2 Bft) O-NO 65 0 min 0,000 mm 0,0 UV-I 147 W/m 8,4 C 11,3 C 14,5 km/h (3 Bft) 100,00 %
12.04.2018 08:22 14,0 C 10,0 C 69 % 1000,9 hPa 0,0 l/m 9,5 km/h (2 Bft) O-NO 60 0 min 0,000 mm 0,0 UV-I 160 W/m 8,4 C 12,3 C 11,3 km/h (2 Bft) 100,00 %
12.04.2018 08:24 14,1 C 10,0 C 68 % 1000,9 hPa 0,0 l/m 7,0 km/h (2 Bft) O-NO 74 2 min 0,000 mm 0,0 UV-I 185 W/m 8,3 C 13,7 C 9,7 km/h (2 Bft) 100,00 %
12.04.2018 08:25 14,1 C 10,0 C 68 % 1000,9 hPa 0,0 l/m 7,5 km/h (2 Bft) O-NO 65 0 min 0,000 mm 0,0 UV-I 175 W/m 8,3 C 13,4 C 9,7 km/h (2 Bft) 100,00 %
12.04.2018 08:26 14,2 C 10,0 C 68 % 1000,9 hPa 0,0 l/m 7,6 km/h (2 Bft) O 88 0 min 0,000 mm 0,0 UV-I 181 W/m 8,4 C 13,5 C 11,3 km/h (2 Bft) 100,00 %
12.04.2018 08:27 14,2 C 10,0 C 68 % 1000,9 hPa 0,0 l/m 4,6 km/h (1 Bft) O-SO 107 0 min 0,000 mm 0,0 UV-I 175 W/m 8,4 C 14,2 C 6,4 km/h (2 Bft) 100,00 %
12.04.2018 08:28 14,2 C 10,0 C 69 % 1000,9 hPa 0,0 l/m 10,9 km/h (2 Bft) O-SO 107 0 min 0,000 mm 0,0 UV-I 171 W/m 8,6 C 11,8 C 14,5 km/h (3 Bft) 100,00 %
12.04.2018 08:29 14,2 C 10,0 C 69 % 1000,9 hPa 0,0 l/m 11,7 km/h (2 Bft) O 92 0 min 0,000 mm 0,0 UV-I 164 W/m 8,6 C 11,5 C 14,5 km/h (3 Bft) 100,00 %
12.04.2018 08:30 14,3 C 10,0 C 68 % 1000,8 hPa 0,0 l/m 12,5 km/h (3 Bft) O-NO 65 0 min 0,000 mm 0,0 UV-I 159 W/m 8,5 C 11,3 C 16,1 km/h (3 Bft) 100,00 %
12.04.2018 08:31 14,3 C 10,0 C 68 % 1000,8 hPa 0,0 l/m 13,0 km/h (3 Bft) O-NO 65 0 min 0,000 mm 0,2 UV-I 159 W/m 8,5 C 11,1 C 16,1 km/h (3 Bft) 100,00 %
12.04.2018 08:32 14,4 C 10,0 C 67 % 1000,8 hPa 0,0 l/m 14,4 km/h (3 Bft) O 92 0 min 0,000 mm 0,5 UV-I 159 W/m 8,4 C 10,7 C 17,7 km/h (3 Bft) 100,00 %
12.04.2018 08:33 14,4 C 10,0 C 67 % 1000,8 hPa 0,0 l/m 11,3 km/h (2 Bft) O 84 0 min 0,000 mm 0,5 UV-I 160 W/m 8,4 C 11,9 C 12,9 km/h (3 Bft) 100,00 %
12.04.2018 08:34 14,5 C 10,0 C 67 % 1000,6 hPa 0,0 l/m 11,3 km/h (2 Bft) O 98 0 min 0,000 mm 0,5 UV-I 176 W/m 8,4 C 12,0 C 16,1 km/h (3 Bft) 100,00 %
12.04.2018 08:35 14,6 C 10,0 C 67 % 1000,6 hPa 0,0 l/m 14,6 km/h (3 Bft) O 81 0 min 0,000 mm 0,5 UV-I 173 W/m 8,5 C 10,8 C 17,7 km/h (3 Bft) 100,00 %
12.04.2018 08:36 14,7 C 10,0 C 66 % 1000,6 hPa 0,0 l/m 12,6 km/h (3 Bft) O-NO 61 0 min 0,000 mm 0,5 UV-I 175 W/m 8,4 C 11,7 C 16,1 km/h (3 Bft) 91,67 %
12.04.2018 08:37 14,8 C 10,0 C 66 % 1000,6 hPa 0,0 l/m 13,9 km/h (3 Bft) O 92 0 min 0,000 mm 0,5 UV-I 190 W/m 8,5 C 11,3 C 16,1 km/h (3 Bft) 100,00 %
12.04.2018 08:38 14,8 C 10,0 C 65 % 1000,6 hPa 0,0 l/m 14,5 km/h (3 Bft) O 90 1 min 0,000 mm 0,5 UV-I 207 W/m 8,3 C 11,1 C 17,7 km/h (3 Bft) 100,00 %
12.04.2018 08:39 14,9 C 10,0 C 65 % 1000,6 hPa 0,0 l/m 13,0 km/h (3 Bft) O-NO 75 1 min 0,000 mm 0,6 UV-I 235 W/m 8,4 C 11,8 C 16,1 km/h (3 Bft) 100,00 %
12.04.2018 08:40 15,1 C 10,0 C 64 % 1000,6 hPa 0,0 l/m 12,6 km/h (3 Bft) O-NO 71 1 min 0,000 mm 0,6 UV-I 237 W/m 8,3 C 12,2 C 16,1 km/h (3 Bft) 100,00 %
12.04.2018 08:41 15,1 C 10,0 C 64 % 1000,6 hPa 0,0 l/m 13,9 km/h (3 Bft) O 87 0 min 0,000 mm 0,6 UV-I 194 W/m 8,3 C 11,7 C 19,3 km/h (3 Bft) 100,00 %
12.04.2018 08:42 15,2 C 10,0 C 63 % 1000,5 hPa 0,0 l/m 13,1 km/h (3 Bft) O-NO 65 0 min 0,000 mm 0,6 UV-I 183 W/m 8,2 C 12,1 C 17,7 km/h (3 Bft) 96,30 %
12.04.2018 08:43 15,3 C 10,0 C 63 % 1000,4 hPa 0,0 l/m 12,8 km/h (3 Bft) O-NO 68 0 min 0,000 mm 0,6 UV-I 184 W/m 8,3 C 12,3 C 16,1 km/h (3 Bft) 100,00 %
12.04.2018 08:44 15,3 C 10,0 C 63 % 1000,4 hPa 0,0 l/m 15,0 km/h (3 Bft) O-NO 76 0 min 0,000 mm 0,6 UV-I 196 W/m 8,3 C 11,6 C 19,3 km/h (3 Bft) 100,00 %
12.04.2018 08:45 15,4 C 10,0 C 63 % 1000,4 hPa 0,0 l/m 11,4 km/h (2 Bft) O 80 0 min 0,000 mm 0,6 UV-I 197 W/m 8,4 C 13,0 C 14,5 km/h (3 Bft) 100,00 %
12.04.2018 08:46 15,4 C 10,0 C 63 % 1000,4 hPa 0,0 l/m 11,7 km/h (2 Bft) O-NO 71 1 min 0,000 mm 0,6 UV-I 227 W/m 8,4 C 12,8 C 14,5 km/h (3 Bft) 100,00 %
12.04.2018 08:47 15,4 C 10,0 C 63 % 1000,3 hPa 0,0 l/m 11,9 km/h (2 Bft) O-NO 72 1 min 0,000 mm 0,7 UV-I 242 W/m 8,4 C 12,8 C 16,1 km/h (3 Bft) 100,00 %
12.04.2018 08:48 15,5 C 10,0 C 63 % 1000,3 hPa 0,0 l/m 14,8 km/h (3 Bft) O-NO 73 1 min 0,000 mm 0,7 UV-I 254 W/m 8,5 C 11,9 C 17,7 km/h (3 Bft) 100,00 %
12.04.2018 08:49 15,6 C 10,0 C 63 % 1000,4 hPa 0,0 l/m 17,6 km/h (3 Bft) O 98 1 min 0,000 mm 0,7 UV-I 251 W/m 8,6 C 11,1 C 19,3 km/h (3 Bft) 96,15 %
12.04.2018 08:50 15,6 C 10,0 C 63 % 1000,4 hPa 0,0 l/m 12,2 km/h (2 Bft) O-NO 71 1 min 0,000 mm 0,7 UV-I 282 W/m 8,6 C 12,9 C 16,1 km/h (3 Bft) 100,00 %
12.04.2018 08:51 15,7 C 10,0 C 63 % 1000,5 hPa 0,0 l/m 14,4 km/h (3 Bft) O-NO 73 1 min 0,000 mm 0,7 UV-I 327 W/m 8,7 C 12,2 C 17,7 km/h (3 Bft) 93,33 %
12.04.2018 08:52 15,8 C 10,0 C 62 % 1000,4 hPa 0,0 l/m 13,3 km/h (3 Bft) O 98 1 min 0,000 mm 0,8 UV-I 356 W/m 8,5 C 12,7 C 16,1 km/h (3 Bft) 100,00 %
12.04.2018 08:53 15,9 C 10,0 C 62 % 1000,4 hPa 0,0 l/m 11,1 km/h (2 Bft) O 89 1 min 0,000 mm 0,8 UV-I 374 W/m 8,6 C 13,7 C 14,5 km/h (3 Bft) 100,00 %
12.04.2018 08:54 16,0 C 10,0 C 62 % 1000,4 hPa 0,0 l/m 9,7 km/h (2 Bft) O-NO 77 1 min 0,000 mm 0,8 UV-I 369 W/m 8,7 C 14,4 C 14,5 km/h (3 Bft) 95,65 %
12.04.2018 08:55 16,1 C 10,0 C 62 % 1000,4 hPa 0,0 l/m 9,2 km/h (2 Bft) O-NO 69 1 min 0,000 mm 0,9 UV-I 385 W/m 8,8 C 14,7 C 12,9 km/h (3 Bft) 100,00 %
12.04.2018 08:56 16,2 C 10,0 C 61 % 1000,4 hPa 0,0 l/m 10,3 km/h (2 Bft) O-NO 69 1 min 0,000 mm 0,8 UV-I 336 W/m 8,7 C 14,3 C 14,5 km/h (3 Bft) 100,00 %
12.04.2018 08:57 16,3 C 10,0 C 60 % 1000,4 hPa 0,0 l/m 15,4 km/h (3 Bft) O-NO 68 1 min 0,000 mm 0,8 UV-I 319 W/m 8,5 C 12,6 C 19,3 km/h (3 Bft) 100,00 %
12.04.2018 08:58 16,4 C 10,0 C 59 % 1000,3 hPa 0,0 l/m 16,3 km/h (3 Bft) O-NO 76 1 min 0,000 mm 0,8 UV-I 299 W/m 8,4 C 12,5 C 19,3 km/h (3 Bft) 100,00 %
12.04.2018 08:59 16,4 C 10,0 C 59 % 1000,3 hPa 0,0 l/m 17,1 km/h (3 Bft) O-NO 78 1 min 0,000 mm 0,8 UV-I 301 W/m 8,4 C 12,3 C 19,3 km/h (3 Bft) 100,00 %
12.04.2018 09:00 16,5 C 10,0 C 59 % 1000,3 hPa 0,0 l/m 17,0 km/h (3 Bft) O-NO 76 1 min 0,000 mm 0,8 UV-I 316 W/m 8,5 C 12,4 C 20,9 km/h (4 Bft) 95,00 %
12.04.2018 09:01 16,6 C 10,0 C 59 % 1000,2 hPa 0,0 l/m 17,5 km/h (3 Bft) O 85 1 min 0,152 mm 0,8 UV-I 339 W/m 8,6 C 12,4 C 22,5 km/h (4 Bft) 92,59 %
12.04.2018 09:02 16,6 C 10,0 C 59 % 1000,2 hPa 0,0 l/m 19,3 km/h (3 Bft) O 84 1 min 0,000 mm 0,9 UV-I 354 W/m 8,6 C 12,0 C 20,9 km/h (4 Bft) 100,00 %
12.04.2018 09:03 16,6 C 10,0 C 59 % 1000,2 hPa 0,0 l/m 15,2 km/h (3 Bft) O-NO 57 1 min 0,000 mm 0,8 UV-I 325 W/m 8,6 C 13,1 C 17,7 km/h (3 Bft) 100,00 %
12.04.2018 09:04 16,6 C 10,0 C 60 % 1000,2 hPa 0,0 l/m 13,9 km/h (3 Bft) O-NO 64 1 min 0,000 mm 0,8 UV-I 299 W/m 8,8 C 13,5 C 19,3 km/h (3 Bft) 100,00 %
12.04.2018 09:05 16,6 C 10,0 C 60 % 1000,2 hPa 0,0 l/m 9,7 km/h (2 Bft) O-NO 67 1 min 0,000 mm 0,8 UV-I 280 W/m 8,8 C 15,0 C 14,5 km/h (3 Bft) 93,10 %
12.04.2018 09:06 16,6 C 10,0 C 60 % 1000,2 hPa 0,0 l/m 10,9 km/h (2 Bft) O 81 1 min 0,000 mm 0,8 UV-I 273 W/m 8,8 C 14,5 C 14,5 km/h (3 Bft) 100,00 %
12.04.2018 09:07 16,5 C 10,0 C 60 % 1000,3 hPa 0,0 l/m 15,8 km/h (3 Bft) NO 44 1 min 0,000 mm 0,8 UV-I 261 W/m 8,7 C 12,8 C 22,5 km/h (4 Bft) 100,00 %
12.04.2018 09:09 16,4 C 10,0 C 59 % 1000,4 hPa 0,0 l/m 15,7 km/h (3 Bft) O 86 2 min 0,000 mm 0,8 UV-I 270 W/m 8,4 C 12,7 C 22,5 km/h (4 Bft) 100,00 %
12.04.2018 09:10 16,4 C 10,0 C 60 % 1000,5 hPa 0,0 l/m 17,9 km/h (3 Bft) O-NO 59 1 min 0,000 mm 0,9 UV-I 298 W/m 8,6 C 12,1 C 20,9 km/h (4 Bft) 100,00 %
12.04.2018 09:11 16,4 C 10,0 C 60 % 1000,5 hPa 0,0 l/m 19,3 km/h (3 Bft) O-NO 74 1 min 0,000 mm 0,9 UV-I 347 W/m 8,6 C 11,7 C 24,1 km/h (4 Bft) 100,00 %
12.04.2018 09:12 16,4 C 10,0 C 60 % 1000,6 hPa 0,0 l/m 17,3 km/h (3 Bft) O 82 1 min 0,000 mm 0,8 UV-I 268 W/m 8,6 C 12,2 C 24,1 km/h (4 Bft) 100,00 %
12.04.2018 09:13 16,4 C 10,0 C 61 % 1000,6 hPa 0,0 l/m 15,3 km/h (3 Bft) O 94 0 min 0,000 mm 0,7 UV-I 232 W/m 8,9 C 12,8 C 19,3 km/h (3 Bft) 96,15 %
12.04.2018 09:14 16,4 C 10,0 C 60 % 1000,6 hPa 0,0 l/m 17,5 km/h (3 Bft) O-NO 67 0 min 0,000 mm 0,7 UV-I 225 W/m 8,6 C 12,2 C 24,1 km/h (4 Bft) 93,33 %
12.04.2018 09:15 16,4 C 10,0 C 60 % 1000,6 hPa 0,0 l/m 17,4 km/h (3 Bft) O-NO 59 0 min 0,000 mm 0,7 UV-I 223 W/m 8,6 C 12,2 C 20,9 km/h (4 Bft) 100,00 %
12.04.2018 09:16 16,4 C 10,0 C 60 % 1000,6 hPa 0,0 l/m 16,7 km/h (3 Bft) O 86 0 min 0,000 mm 0,7 UV-I 214 W/m 8,6 C 12,4 C 19,3 km/h (3 Bft) 100,00 %
12.04.2018 09:17 16,4 C 10,0 C 60 % 1000,6 hPa 0,0 l/m 15,1 km/h (3 Bft) O-NO 78 0 min 0,000 mm 0,7 UV-I 208 W/m 8,6 C 12,9 C 19,3 km/h (3 Bft) 100,00 %
12.04.2018 09:18 16,4 C 10,6 C 60 % 1000,5 hPa 0,0 l/m 19,3 km/h (3 Bft) O-NO 73 0 min 0,000 mm 0,6 UV-I 204 W/m 8,6 C 11,7 C 22,5 km/h (4 Bft) 100,00 %
12.04.2018 09:19 16,4 C 10,0 C 61 % 1000,5 hPa 0,0 l/m 18,3 km/h (3 Bft) O-NO 76 0 min 0,000 mm 0,6 UV-I 201 W/m 8,9 C 12,0 C 24,1 km/h (4 Bft) 95,65 %
12.04.2018 09:20 16,4 C 10,0 C 60 % 1000,5 hPa 0,0 l/m 17,9 km/h (3 Bft) O 86 0 min 0,000 mm 0,6 UV-I 198 W/m 8,6 C 12,1 C 24,1 km/h (4 Bft) 100,00 %
12.04.2018 09:21 16,4 C 10,0 C 61 % 1000,5 hPa 0,0 l/m 17,7 km/h (3 Bft) O-SO 107 0 min 0,000 mm 0,6 UV-I 193 W/m 8,9 C 12,1 C 22,5 km/h (4 Bft) 100,00 %
12.04.2018 09:22 16,4 C 10,0 C 60 % 1000,5 hPa 0,0 l/m 16,0 km/h (3 Bft) O-NO 78 0 min 0,000 mm 0,6 UV-I 192 W/m 8,6 C 12,6 C 19,3 km/h (3 Bft) 100,00 %
12.04.2018 09:23 16,4 C 10,0 C 61 % 1000,6 hPa 0,0 l/m 13,7 km/h (3 Bft) O 84 0 min 0,000 mm 0,6 UV-I 191 W/m 8,9 C 13,3 C 17,7 km/h (3 Bft) 100,00 %
12.04.2018 09:24 16,5 C 10,0 C 61 % 1000,6 hPa 0,0 l/m 12,1 km/h (2 Bft) O-SO 105 0 min 0,000 mm 0,6 UV-I 187 W/m 9,0 C 14,0 C 14,5 km/h (3 Bft) 96,30 %
12.04.2018 09:25 16,5 C 10,0 C 62 % 1000,6 hPa 0,0 l/m 16,2 km/h (3 Bft) O 94 0 min 0,000 mm 0,6 UV-I 184 W/m 9,2 C 12,7 C 20,9 km/h (4 Bft) 100,00 %
12.04.2018 09:26 16,5 C 10,0 C 60 % 1000,6 hPa 0,0 l/m 15,5 km/h (3 Bft) O-NO 73 0 min 0,000 mm 0,6 UV-I 183 W/m 8,7 C 12,9 C 19,3 km/h (3 Bft) 96,30 %
12.04.2018 09:27 16,6 C 10,0 C 60 % 1000,6 hPa 0,0 l/m 10,4 km/h (2 Bft) O 94 0 min 0,000 mm 0,6 UV-I 183 W/m 8,8 C 14,7 C 14,5 km/h (3 Bft) 100,00 %
12.04.2018 09:28 16,6 C 10,0 C 60 % 1000,6 hPa 0,0 l/m 12,5 km/h (3 Bft) O 85 0 min 0,000 mm 0,6 UV-I 185 W/m 8,8 C 13,9 C 16,1 km/h (3 Bft) 96,15 %
12.04.2018 09:29 16,6 C 10,0 C 60 % 1000,6 hPa 0,0 l/m 11,4 km/h (2 Bft) O 99 0 min 0,000 mm 0,6 UV-I 188 W/m 8,8 C 14,3 C 16,1 km/h (3 Bft) 100,00 %
12.04.2018 09:30 16,6 C 10,0 C 61 % 1000,6 hPa 0,0 l/m 10,9 km/h (2 Bft) O-NO 69 0 min 0,000 mm 0,6 UV-I 191 W/m 9,0 C 14,5 C 14,5 km/h (3 Bft) 94,12 %
12.04.2018 09:31 16,7 C 10,0 C 60 % 1000,6 hPa 0,0 l/m 13,1 km/h (3 Bft) O-NO 65 0 min 0,000 mm 0,6 UV-I 193 W/m 8,9 C 13,9 C 17,7 km/h (3 Bft) 100,00 %
12.04.2018 09:32 16,7 C 10,0 C 59 % 1000,6 hPa 0,0 l/m 12,7 km/h (3 Bft) O 91 0 min 0,000 mm 0,6 UV-I 193 W/m 8,6 C 14,0 C 16,1 km/h (3 Bft) 95,65 %
12.04.2018 09:33 16,7 C 10,0 C 60 % 1000,6 hPa 0,0 l/m 13,1 km/h (3 Bft) O-NO 74 0 min 0,000 mm 0,6 UV-I 193 W/m 8,9 C 13,9 C 17,7 km/h (3 Bft) 95,83 %
12.04.2018 09:34 16,7 C 10,0 C 60 % 1000,6 hPa 0,0 l/m 14,2 km/h (3 Bft) O-NO 77 0 min 0,000 mm 0,6 UV-I 192 W/m 8,9 C 13,5 C 17,7 km/h (3 Bft) 100,00 %
12.04.2018 09:35 16,8 C 10,0 C 60 % 1000,6 hPa 0,0 l/m 13,8 km/h (3 Bft) O 80 0 min 0,000 mm 0,6 UV-I 188 W/m 9,0 C 13,7 C 19,3 km/h (3 Bft) 91,67 %
12.04.2018 09:36 16,8 C 10,0 C 60 % 1000,6 hPa 0,0 l/m 15,8 km/h (3 Bft) O 101 0 min 0,000 mm 0,6 UV-I 183 W/m 9,0 C 13,1 C 20,9 km/h (4 Bft) 100,00 %
12.04.2018 09:37 16,8 C 10,0 C 60 % 1000,6 hPa 0,0 l/m 15,8 km/h (3 Bft) O 88 0 min 0,000 mm 0,6 UV-I 178 W/m 9,0 C 13,1 C 20,9 km/h (4 Bft) 96,30 %
12.04.2018 09:38 16,8 C 10,0 C 60 % 1000,6 hPa 0,0 l/m 14,1 km/h (3 Bft) O 98 0 min 0,000 mm 0,6 UV-I 173 W/m 9,0 C 13,6 C 17,7 km/h (3 Bft) 96,55 %
12.04.2018 09:39 16,8 C 10,0 C 60 % 1000,6 hPa 0,0 l/m 10,6 km/h (2 Bft) O 90 0 min 0,000 mm 0,6 UV-I 165 W/m 9,0 C 14,9 C 14,5 km/h (3 Bft) 100,00 %
12.04.2018 09:40 16,8 C 10,0 C 60 % 1000,6 hPa 0,0 l/m 9,9 km/h (2 Bft) O 86 0 min 0,000 mm 0,5 UV-I 159 W/m 9,0 C 15,1 C 12,9 km/h (3 Bft) 91,30 %
12.04.2018 09:41 16,8 C 10,0 C 60 % 1000,7 hPa 0,0 l/m 14,8 km/h (3 Bft) O-NO 65 0 min 0,000 mm 0,5 UV-I 153 W/m 9,0 C 13,4 C 20,9 km/h (4 Bft) 98,17 %
12.04.2018 09:42 16,8 C 10,6 C 59 % 1000,7 hPa 0,0 l/m 12,6 km/h (3 Bft) O-SO 106 0 min 0,000 mm 0,5 UV-I 149 W/m 8,7 C 14,1 C 16,1 km/h (3 Bft) 97,56 %
12.04.2018 09:43 16,9 C 10,0 C 59 % 1000,7 hPa 0,0 l/m 14,2 km/h (3 Bft) O-SO 103 0 min 0,000 mm 0,5 UV-I 145 W/m 8,8 C 13,7 C 19,3 km/h (3 Bft) 100,00 %
12.04.2018 09:44 16,9 C 10,0 C 58 % 1000,7 hPa 0,0 l/m 13,9 km/h (3 Bft) O 99 0 min 0,000 mm 0,5 UV-I 144 W/m 8,6 C 13,8 C 19,3 km/h (3 Bft) 96,15 %
12.04.2018 09:45 16,9 C 10,0 C 58 % 1000,6 hPa 0,0 l/m 14,9 km/h (3 Bft) O-SO 115 0 min 0,000 mm 0,5 UV-I 137 W/m 8,6 C 13,5 C 17,7 km/h (3 Bft) 100,00 %
12.04.2018 09:46 16,9 C 10,0 C 58 % 1000,6 hPa 0,0 l/m 14,8 km/h (3 Bft) O 94 0 min 0,000 mm 0,5 UV-I 134 W/m 8,6 C 13,6 C 17,7 km/h (3 Bft) 96,55 %
12.04.2018 09:47 16,9 C 10,0 C 57 % 1000,7 hPa 0,0 l/m 13,7 km/h (3 Bft) O-SO 112 0 min 0,000 mm 0,5 UV-I 132 W/m 8,3 C 13,9 C 16,1 km/h (3 Bft) 100,00 %
12.04.2018 09:48 17,0 C 10,0 C 57 % 1000,7 hPa 0,0 l/m 9,4 km/h (2 Bft) O 89 0 min 0,000 mm 0,3 UV-I 131 W/m 8,4 C 15,6 C 12,9 km/h (3 Bft) 92,59 %
12.04.2018 09:49 17,0 C 10,0 C 57 % 1000,7 hPa 0,0 l/m 9,4 km/h (2 Bft) O-SO 113 0 min 0,000 mm 0,0 UV-I 129 W/m 8,4 C 15,6 C 16,1 km/h (3 Bft) 96,15 %
12.04.2018 09:50 17,0 C 10,0 C 58 % 1000,8 hPa 0,0 l/m 7,3 km/h (2 Bft) O-SO 119 0 min 0,000 mm 0,0 UV-I 128 W/m 8,7 C 16,5 C 11,3 km/h (2 Bft) 100,00 %
12.04.2018 09:51 17,0 C 10,0 C 57 % 1000,8 hPa 0,0 l/m 7,8 km/h (2 Bft) O-SO 107 0 min 0,000 mm 0,4 UV-I 130 W/m 8,4 C 16,3 C 12,9 km/h (3 Bft) 92,31 %
12.04.2018 09:52 17,0 C 10,0 C 58 % 1000,8 hPa 0,0 l/m 7,7 km/h (2 Bft) O-SO 105 0 min 0,000 mm 0,5 UV-I 130 W/m 8,7 C 16,3 C 12,9 km/h (3 Bft) 100,00 %
12.04.2018 09:53 17,0 C 10,0 C 57 % 1000,8 hPa 0,0 l/m 4,9 km/h (1 Bft) S-SO 152 0 min 0,000 mm 0,5 UV-I 130 W/m 8,4 C 17,0 C 8,0 km/h (2 Bft) 92,86 %
12.04.2018 09:54 17,1 C 10,0 C 57 % 1000,8 hPa 0,0 l/m 7,6 km/h (2 Bft) O 101 0 min 0,000 mm 0,5 UV-I 130 W/m 8,5 C 16,5 C 11,3 km/h (2 Bft) 100,00 %
12.04.2018 09:55 17,1 C 10,0 C 56 % 1000,8 hPa 0,0 l/m 13,6 km/h (3 Bft) O-SO 123 0 min 0,000 mm 0,5 UV-I 132 W/m 8,3 C 14,2 C 17,7 km/h (3 Bft) 88,24 %
12.04.2018 09:56 17,1 C 10,0 C 56 % 1000,8 hPa 0,0 l/m 12,7 km/h (3 Bft) O-SO 113 0 min 0,000 mm 0,5 UV-I 132 W/m 8,3 C 14,5 C 14,5 km/h (3 Bft) 100,00 %
12.04.2018 09:57 17,1 C 10,0 C 56 % 1000,8 hPa 0,0 l/m 17,4 km/h (3 Bft) O 94 0 min 0,000 mm 0,5 UV-I 132 W/m 8,3 C 13,1 C 22,5 km/h (4 Bft) 96,15 %
12.04.2018 09:58 17,2 C 10,0 C 56 % 1000,8 hPa 0,0 l/m 13,3 km/h (3 Bft) O 95 0 min 0,000 mm 0,5 UV-I 132 W/m 8,3 C 14,4 C 19,3 km/h (3 Bft) 96,30 %
12.04.2018 09:59 17,2 C 10,0 C 56 % 1000,8 hPa 0,0 l/m 14,3 km/h (3 Bft) O-NO 78 0 min 0,000 mm 0,5 UV-I 134 W/m 8,3 C 14,1 C 20,9 km/h (4 Bft) 93,33 %
12.04.2018 10:00 17,2 C 10,0 C 55 % 1000,8 hPa 0,0 l/m 11,8 km/h (2 Bft) O-SO 122 0 min 0,178 mm 0,5 UV-I 134 W/m 8,1 C 14,9 C 16,1 km/h (3 Bft) 100,00 %
12.04.2018 10:01 17,2 C 10,6 C 56 % 1000,9 hPa 0,0 l/m 12,9 km/h (3 Bft) O 100 0 min 0,000 mm 0,5 UV-I 134 W/m 8,3 C 14,5 C 17,7 km/h (3 Bft) 95,65 %
12.04.2018 10:02 17,2 C 10,0 C 55 % 1000,9 hPa 0,0 l/m 16,0 km/h (3 Bft) O-SO 102 0 min 0,000 mm 0,5 UV-I 135 W/m 8,1 C 13,6 C 20,9 km/h (4 Bft) 96,30 %
12.04.2018 10:03 17,3 C 10,0 C 55 % 1000,9 hPa 0,0 l/m 13,7 km/h (3 Bft) O-SO 107 0 min 0,000 mm 0,5 UV-I 137 W/m 8,2 C 14,4 C 17,7 km/h (3 Bft) 95,24 %
12.04.2018 10:04 17,3 C 10,0 C 56 % 1000,9 hPa 0,0 l/m 12,8 km/h (3 Bft) O 98 0 min 0,000 mm 0,5 UV-I 137 W/m 8,4 C 14,7 C 17,7 km/h (3 Bft) 95,65 %
12.04.2018 10:05 17,3 C 10,0 C 56 % 1000,9 hPa 0,0 l/m 12,8 km/h (3 Bft) O-SO 119 0 min 0,000 mm 0,5 UV-I 141 W/m 8,4 C 14,7 C 14,5 km/h (3 Bft) 96,30 %
12.04.2018 10:06 17,3 C 10,0 C 56 % 1000,9 hPa 0,0 l/m 10,2 km/h (2 Bft) O-SO 104 0 min 0,000 mm 0,5 UV-I 142 W/m 8,4 C 15,6 C 12,9 km/h (3 Bft) 96,15 %
12.04.2018 10:08 17,3 C 10,0 C 56 % 1000,8 hPa 0,0 l/m 10,2 km/h (2 Bft) O-SO 121 0 min 0,000 mm 0,6 UV-I 151 W/m 8,4 C 15,6 C 12,9 km/h (3 Bft) 97,87 %
12.04.2018 10:09 17,3 C 10,0 C 56 % 1000,8 hPa 0,0 l/m 7,7 km/h (2 Bft) O-SO 119 0 min 0,000 mm 0,6 UV-I 157 W/m 8,4 C 16,7 C 11,3 km/h (2 Bft) 100,00 %
12.04.2018 10:10 17,3 C 10,6 C 55 % 1000,9 hPa 0,0 l/m 7,7 km/h (2 Bft) O 97 0 min 0,000 mm 0,6 UV-I 163 W/m 8,2 C 16,7 C 12,9 km/h (3 Bft) 94,44 %
12.04.2018 10:11 17,3 C 10,0 C 55 % 1000,9 hPa 0,0 l/m 10,3 km/h (2 Bft) O-SO 110 0 min 0,000 mm 0,7 UV-I 168 W/m 8,2 C 15,5 C 12,9 km/h (3 Bft) 100,00 %
12.04.2018 10:12 17,3 C 10,0 C 56 % 1000,9 hPa 0,0 l/m 8,7 km/h (2 Bft) O-SO 109 0 min 0,000 mm 0,7 UV-I 172 W/m 8,4 C 16,2 C 11,3 km/h (2 Bft) 90,91 %
12.04.2018 10:14 17,3 C 10,0 C 56 % 1000,9 hPa 0,0 l/m 10,6 km/h (2 Bft) O 92 0 min 0,000 mm 0,7 UV-I 180 W/m 8,4 C 15,4 C 17,7 km/h (3 Bft) 98,31 %
12.04.2018 10:15 17,3 C 10,0 C 56 % 1000,9 hPa 0,0 l/m 8,8 km/h (2 Bft) O-SO 104 0 min 0,000 mm 0,7 UV-I 184 W/m 8,4 C 16,2 C 12,9 km/h (3 Bft) 96,30 %
12.04.2018 10:16 17,4 C 10,0 C 56 % 1000,9 hPa 0,0 l/m 9,7 km/h (2 Bft) SO 130 0 min 0,000 mm 0,7 UV-I 185 W/m 8,5 C 15,9 C 14,5 km/h (3 Bft) 100,00 %
12.04.2018 10:18 17,4 C 10,0 C 55 % 1000,9 hPa 0,0 l/m 11,2 km/h (2 Bft) O-SO 115 0 min 0,000 mm 0,8 UV-I 185 W/m 8,3 C 15,3 C 17,7 km/h (3 Bft) 98,11 %
12.04.2018 10:19 17,5 C 10,0 C 56 % 1000,9 hPa 0,0 l/m 5,8 km/h (2 Bft) O-SO 107 0 min 0,000 mm 0,8 UV-I 185 W/m 8,6 C 17,5 C 9,7 km/h (2 Bft) 95,83 %
12.04.2018 10:20 17,5 C 10,0 C 55 % 1001,0 hPa 0,0 l/m 6,5 km/h (2 Bft) SO 138 0 min 0,000 mm 0,8 UV-I 183 W/m 8,4 C 17,5 C 12,9 km/h (3 Bft) 95,65 %
12.04.2018 10:21 17,6 C 10,0 C 55 % 1001,0 hPa 0,0 l/m 9,8 km/h (2 Bft) SO 145 0 min 0,000 mm 0,8 UV-I 182 W/m 8,5 C 16,1 C 12,9 km/h (3 Bft) 96,30 %
12.04.2018 10:22 17,6 C 10,0 C 54 % 1001,0 hPa 0,0 l/m 8,0 km/h (2 Bft) SO 134 0 min 0,000 mm 0,8 UV-I 180 W/m 8,2 C 16,8 C 11,3 km/h (2 Bft) 98,04 %
12.04.2018 10:23 17,6 C 10,0 C 56 % 1001,1 hPa 0,0 l/m 8,9 km/h (2 Bft) SO 146 0 min 0,000 mm 0,8 UV-I 177 W/m 8,7 C 16,4 C 12,9 km/h (3 Bft) 97,56 %
12.04.2018 10:24 17,6 C 10,0 C 55 % 1001,1 hPa 0,0 l/m 6,7 km/h (2 Bft) S 175 0 min 0,000 mm 0,7 UV-I 174 W/m 8,5 C 17,5 C 11,3 km/h (2 Bft) 96,30 %
12.04.2018 10:25 17,6 C 10,0 C 56 % 1001,1 hPa 0,0 l/m 6,3 km/h (2 Bft) O-SO 117 0 min 0,000 mm 0,7 UV-I 171 W/m 8,7 C 17,6 C 9,7 km/h (2 Bft) 100,00 %
12.04.2018 10:26 17,6 C 10,0 C 55 % 1001,1 hPa 0,0 l/m 4,8 km/h (1 Bft) O-SO 115 0 min 0,000 mm 0,7 UV-I 166 W/m 8,5 C 17,6 C 6,4 km/h (2 Bft) 95,83 %
12.04.2018 10:27 17,7 C 10,0 C 55 % 1001,0 hPa 0,0 l/m 3,1 km/h (1 Bft) O-SO 114 0 min 0,000 mm 0,7 UV-I 163 W/m 8,5 C 17,7 C 4,8 km/h (1 Bft) 95,65 %
12.04.2018 10:28 17,7 C 10,0 C 56 % 1001,0 hPa 0,0 l/m 3,8 km/h (1 Bft) O-SO 109 0 min 0,000 mm 0,7 UV-I 161 W/m 8,8 C 17,7 C 6,4 km/h (2 Bft) 95,83 %
12.04.2018 10:29 17,7 C 10,0 C 55 % 1001,0 hPa 0,0 l/m 5,5 km/h (1 Bft) O 80 0 min 0,000 mm 0,7 UV-I 159 W/m 8,5 C 17,7 C 9,7 km/h (2 Bft) 100,00 %
12.04.2018 10:30 17,7 C 10,0 C 54 % 1001,0 hPa 0,0 l/m 3,4 km/h (1 Bft) O-SO 114 0 min 0,000 mm 0,7 UV-I 156 W/m 8,3 C 17,7 C 4,8 km/h (1 Bft) 92,59 %
12.04.2018 10:31 17,8 C 10,0 C 53 % 1001,0 hPa 0,0 l/m 5,1 km/h (1 Bft) O 81 0 min 0,000 mm 0,6 UV-I 156 W/m 8,1 C 17,8 C 11,3 km/h (2 Bft) 100,00 %
12.04.2018 10:32 17,8 C 10,0 C 52 % 1001,0 hPa 0,0 l/m 8,6 km/h (2 Bft) O-NO 69 0 min 0,000 mm 0,6 UV-I 155 W/m 7,8 C 16,8 C 12,9 km/h (3 Bft) 96,30 %
12.04.2018 10:33 17,9 C 10,0 C 52 % 1001,0 hPa 0,0 l/m 7,2 km/h (2 Bft) O-NO 67 0 min 0,000 mm 0,6 UV-I 155 W/m 7,9 C 17,5 C 11,3 km/h (2 Bft) 100,00 %
12.04.2018 10:34 17,9 C 10,0 C 53 % 1001,0 hPa 0,0 l/m 8,4 km/h (2 Bft) O-NO 70 0 min 0,000 mm 0,6 UV-I 156 W/m 8,2 C 17,0 C 12,9 km/h (3 Bft) 95,83 %
12.04.2018 10:35 17,9 C 10,0 C 55 % 1001,0 hPa 0,0 l/m 8,0 km/h (2 Bft) NO 38 0 min 0,000 mm 0,6 UV-I 156 W/m 8,7 C 17,1 C 9,7 km/h (2 Bft) 96,15 %
12.04.2018 10:36 17,8 C 10,0 C 56 % 1001,0 hPa 0,0 l/m 7,7 km/h (2 Bft) NO 47 0 min 0,000 mm 0,7 UV-I 157 W/m 8,9 C 17,2 C 9,7 km/h (2 Bft) 100,00 %
12.04.2018 10:37 17,8 C 10,0 C 55 % 1001,0 hPa 0,0 l/m 9,9 km/h (2 Bft) NO 46 0 min 0,000 mm 0,7 UV-I 158 W/m 8,6 C 16,2 C 12,9 km/h (3 Bft) 100,00 %
12.04.2018 10:38 17,7 C 10,0 C 55 % 1001,0 hPa 0,0 l/m 9,7 km/h (2 Bft) NO 54 0 min 0,000 mm 0,7 UV-I 160 W/m 8,5 C 16,2 C 11,3 km/h (2 Bft) 96,15 %
12.04.2018 10:39 17,7 C 10,0 C 56 % 1001,0 hPa 0,0 l/m 10,5 km/h (2 Bft) O-NO 67 0 min 0,000 mm 0,7 UV-I 161 W/m 8,8 C 15,9 C 14,5 km/h (3 Bft) 96,55 %
12.04.2018 10:40 17,7 C 10,0 C 55 % 1001,0 hPa 0,0 l/m 12,1 km/h (2 Bft) O-NO 76 0 min 0,000 mm 0,7 UV-I 162 W/m 8,5 C 15,3 C 16,1 km/h (3 Bft) 96,30 %
12.04.2018 10:41 17,7 C 10,0 C 57 % 1001,0 hPa 0,0 l/m 10,3 km/h (2 Bft) NO 56 0 min 0,000 mm 0,7 UV-I 163 W/m 9,1 C 16,0 C 14,5 km/h (3 Bft) 91,67 %
12.04.2018 10:42 17,7 C 10,0 C 57 % 1001,1 hPa 0,0 l/m 8,2 km/h (2 Bft) O 84 0 min 0,000 mm 0,7 UV-I 166 W/m 9,1 C 16,8 C 11,3 km/h (2 Bft) 100,00 %
12.04.2018 10:43 17,6 C 10,0 C 58 % 1001,1 hPa 0,0 l/m 10,0 km/h (2 Bft) O 96 0 min 0,000 mm 0,7 UV-I 167 W/m 9,2 C 16,0 C 12,9 km/h (3 Bft) 93,10 %
12.04.2018 10:44 17,5 C 10,0 C 59 % 1001,1 hPa 0,0 l/m 7,5 km/h (2 Bft) O-NO 62 0 min 0,000 mm 0,7 UV-I 174 W/m 9,4 C 17,0 C 12,9 km/h (3 Bft) 100,00 %
12.04.2018 10:45 17,4 C 10,6 C 60 % 1001,1 hPa 0,0 l/m 8,7 km/h (2 Bft) O-NO 77 0 min 0,000 mm 0,8 UV-I 180 W/m 9,6 C 16,3 C 12,9 km/h (3 Bft) 96,67 %
12.04.2018 10:46 17,4 C 10,0 C 60 % 1001,2 hPa 0,0 l/m 9,1 km/h (2 Bft) O-SO 103 0 min 0,000 mm 0,8 UV-I 184 W/m 9,6 C 16,1 C 12,9 km/h (3 Bft) 100,00 %
12.04.2018 10:47 17,4 C 10,0 C 59 % 1001,1 hPa 0,0 l/m 6,5 km/h (2 Bft) O-SO 107 0 min 0,000 mm 0,8 UV-I 190 W/m 9,3 C 17,4 C 9,7 km/h (2 Bft) 95,83 %
12.04.2018 10:48 17,4 C 10,0 C 59 % 1001,1 hPa 0,0 l/m 5,7 km/h (1 Bft) O 95 0 min 0,000 mm 0,9 UV-I 197 W/m 9,3 C 17,4 C 9,7 km/h (2 Bft) 96,15 %
12.04.2018 10:49 17,5 C 10,0 C 57 % 1001,1 hPa 0,0 l/m 8,1 km/h (2 Bft) O-SO 115 0 min 0,000 mm 0,9 UV-I 204 W/m 8,9 C 16,7 C 11,3 km/h (2 Bft) 100,00 %
12.04.2018 10:50 17,6 C 10,0 C 58 % 1001,0 hPa 0,0 l/m 8,3 km/h (2 Bft) O-SO 115 0 min 0,000 mm 0,9 UV-I 210 W/m 9,2 C 16,7 C 14,5 km/h (3 Bft) 93,10 %
12.04.2018 10:51 17,7 C 10,0 C 58 % 1001,0 hPa 0,0 l/m 7,3 km/h (2 Bft) O-SO 111 0 min 0,000 mm 0,9 UV-I 217 W/m 9,3 C 17,3 C 11,3 km/h (2 Bft) 100,00 %
12.04.2018 10:52 17,7 C 10,0 C 56 % 1000,9 hPa 0,0 l/m 8,4 km/h (2 Bft) O-SO 112 0 min 0,000 mm 1,0 UV-I 222 W/m 8,8 C 16,8 C 11,3 km/h (2 Bft) 95,65 %
12.04.2018 10:53 17,8 C 10,0 C 56 % 1001,0 hPa 0,0 l/m 6,3 km/h (2 Bft) O 90 0 min 0,000 mm 1,0 UV-I 230 W/m 8,9 C 17,8 C 11,3 km/h (2 Bft) 95,83 %
12.04.2018 10:54 17,8 C 10,0 C 55 % 1001,0 hPa 0,0 l/m 9,7 km/h (2 Bft) O-SO 115 0 min 0,000 mm 1,0 UV-I 238 W/m 8,6 C 16,3 C 12,9 km/h (3 Bft) 95,65 %
12.04.2018 10:55 17,9 C 10,0 C 56 % 1000,9 hPa 0,0 l/m 6,8 km/h (2 Bft) O-SO 103 0 min 0,000 mm 1,1 UV-I 245 W/m 9,0 C 17,7 C 9,7 km/h (2 Bft) 100,00 %
12.04.2018 10:56 18,0 C 10,0 C 55 % 1001,0 hPa 0,0 l/m 5,3 km/h (1 Bft) O 101 0 min 0,000 mm 1,1 UV-I 253 W/m 8,8 C 18,0 C 9,7 km/h (2 Bft) 92,86 %
12.04.2018 10:57 18,1 C 10,0 C 55 % 1000,9 hPa 0,0 l/m 11,1 km/h (2 Bft) O-SO 109 0 min 0,000 mm 1,2 UV-I 264 W/m 8,9 C 16,1 C 12,9 km/h (3 Bft) 100,00 %
12.04.2018 10:58 18,1 C 10,0 C 54 % 1000,9 hPa 0,0 l/m 11,3 km/h (2 Bft) O 95 0 min 0,000 mm 1,2 UV-I 275 W/m 8,6 C 16,1 C 12,9 km/h (3 Bft) 95,65 %
12.04.2018 10:59 18,2 C 10,0 C 53 % 1001,0 hPa 0,0 l/m 8,9 km/h (2 Bft) O-NO 70 0 min 0,000 mm 1,3 UV-I 285 W/m 8,5 C 17,1 C 12,9 km/h (3 Bft) 96,30 %
12.04.2018 11:00 18,3 C 10,0 C 53 % 1001,0 hPa 0,0 l/m 9,3 km/h (2 Bft) O 101 0 min 0,153 mm 1,3 UV-I 296 W/m 8,6 C 17,0 C 12,9 km/h (3 Bft) 100,00 %
12.04.2018 11:01 18,3 C 10,0 C 53 % 1001,0 hPa 0,0 l/m 9,2 km/h (2 Bft) O-NO 76 0 min 0,000 mm 1,4 UV-I 314 W/m 8,6 C 17,1 C 12,9 km/h (3 Bft) 91,67 %
12.04.2018 11:02 18,4 C 10,0 C 53 % 1001,0 hPa 0,0 l/m 5,6 km/h (1 Bft) O 88 0 min 0,000 mm 1,4 UV-I 326 W/m 8,6 C 18,4 C 8,0 km/h (2 Bft) 100,00 %
12.04.2018 11:03 18,4 C 10,0 C 54 % 1000,9 hPa 0,0 l/m 6,4 km/h (2 Bft) O-SO 121 0 min 0,000 mm 1,5 UV-I 345 W/m 8,9 C 18,4 C 11,3 km/h (2 Bft) 96,43 %
12.04.2018 11:04 18,5 C 10,0 C 53 % 1000,9 hPa 0,0 l/m 10,9 km/h (2 Bft) O 87 0 min 0,000 mm 1,5 UV-I 360 W/m 8,7 C 16,7 C 12,9 km/h (3 Bft) 100,00 %
12.04.2018 11:05 18,6 C 10,0 C 53 % 1000,9 hPa 0,0 l/m 8,9 km/h (2 Bft) O 89 0 min 0,000 mm 1,6 UV-I 375 W/m 8,8 C 17,5 C 11,3 km/h (2 Bft) 96,15 %
12.04.2018 11:06 18,7 C 10,0 C 52 % 1000,9 hPa 0,0 l/m 9,9 km/h (2 Bft) O-SO 103 1 min 0,000 mm 1,7 UV-I 394 W/m 8,6 C 17,2 C 12,9 km/h (3 Bft) 100,00 %
12.04.2018 11:07 18,7 C 10,0 C 52 % 1000,8 hPa 0,0 l/m 4,7 km/h (1 Bft) O-SO 105 1 min 0,000 mm 1,8 UV-I 406 W/m 8,6 C 18,7 C 9,7 km/h (2 Bft) 96,15 %
12.04.2018 11:08 18,8 C 10,0 C 53 % 1000,9 hPa 0,0 l/m 6,8 km/h (2 Bft) O 87 1 min 0,000 mm 1,8 UV-I 429 W/m 9,0 C 18,6 C 11,3 km/h (2 Bft) 92,59 %
12.04.2018 11:09 18,9 C 10,0 C 53 % 1000,9 hPa 0,0 l/m 6,1 km/h (2 Bft) O-NO 76 1 min 0,000 mm 1,9 UV-I 456 W/m 9,1 C 18,9 C 8,0 km/h (2 Bft) 96,55 %
12.04.2018 11:10 18,9 C 10,6 C 52 % 1000,8 hPa 0,0 l/m 6,4 km/h (2 Bft) O-NO 76 1 min 0,000 mm 2,0 UV-I 459 W/m 8,8 C 18,9 C 8,0 km/h (2 Bft) 91,67 %
12.04.2018 11:11 19,0 C 10,0 C 52 % 1000,9 hPa 0,0 l/m 9,5 km/h (2 Bft) O-NO 74 1 min 0,000 mm 2,0 UV-I 492 W/m 8,9 C 17,7 C 12,9 km/h (3 Bft) 96,15 %
12.04.2018 11:12 19,1 C 10,0 C 51 % 1000,9 hPa 0,0 l/m 11,6 km/h (2 Bft) SO 124 1 min 0,000 mm 2,2 UV-I 513 W/m 8,7 C 17,1 C 16,1 km/h (3 Bft) 96,97 %
12.04.2018 11:13 19,2 C 10,0 C 50 % 1000,9 hPa 0,0 l/m 8,6 km/h (2 Bft) O-SO 119 1 min 0,000 mm 2,2 UV-I 537 W/m 8,5 C 18,3 C 14,5 km/h (3 Bft) 100,00 %
12.04.2018 11:14 19,3 C 10,0 C 53 % 1000,9 hPa 0,0 l/m 8,4 km/h (2 Bft) O-NO 57 1 min 0,000 mm 2,2 UV-I 507 W/m 9,5 C 18,5 C 11,3 km/h (2 Bft) 100,00 %
12.04.2018 11:15 19,4 C 10,0 C 53 % 1000,8 hPa 0,0 l/m 17,0 km/h (3 Bft) O-SO 116 1 min 0,000 mm 2,2 UV-I 495 W/m 9,6 C 16,1 C 22,5 km/h (4 Bft) 100,00 %
12.04.2018 11:16 19,6 C 10,0 C 48 % 1000,9 hPa 0,0 l/m 14,3 km/h (3 Bft) SO 126 1 min 0,000 mm 2,2 UV-I 495 W/m 8,3 C 16,9 C 19,3 km/h (3 Bft) 100,00 %
12.04.2018 11:17 19,8 C 10,0 C 48 % 1000,9 hPa 0,0 l/m 10,8 km/h (2 Bft) O-SO 117 1 min 0,000 mm 2,2 UV-I 479 W/m 8,5 C 18,2 C 16,1 km/h (3 Bft) 100,00 %
12.04.2018 11:18 19,9 C 10,0 C 48 % 1000,9 hPa 0,0 l/m 12,2 km/h (2 Bft) O-SO 110 1 min 0,000 mm 2,2 UV-I 487 W/m 8,6 C 17,9 C 16,1 km/h (3 Bft) 96,15 %
12.04.2018 11:19 20,0 C 10,0 C 47 % 1000,9 hPa 0,0 l/m 9,2 km/h (2 Bft) O-SO 121 1 min 0,000 mm 2,2 UV-I 488 W/m 8,3 C 18,9 C 12,9 km/h (3 Bft) 92,31 %
12.04.2018 11:20 20,1 C 10,0 C 47 % 1000,9 hPa 0,0 l/m 5,5 km/h (1 Bft) O-SO 107 1 min 0,000 mm 2,2 UV-I 474 W/m 8,4 C 20,1 C 9,7 km/h (2 Bft) 100,00 %
12.04.2018 11:21 20,2 C 10,0 C 47 % 1000,9 hPa 0,0 l/m 9,1 km/h (2 Bft) O 100 1 min 0,000 mm 2,2 UV-I 452 W/m 8,5 C 19,2 C 16,1 km/h (3 Bft) 100,00 %
12.04.2018 11:22 20,2 C 10,0 C 45 % 1000,9 hPa 0,0 l/m 16,1 km/h (3 Bft) O-SO 112 1 min 0,000 mm 2,2 UV-I 459 W/m 7,9 C 17,2 C 20,9 km/h (4 Bft) 100,00 %
12.04.2018 11:23 20,2 C 10,0 C 44 % 1000,8 hPa 0,0 l/m 13,9 km/h (3 Bft) O-SO 117 1 min 0,000 mm 2,2 UV-I 466 W/m 7,6 C 17,8 C 19,3 km/h (3 Bft) 96,30 %
12.04.2018 11:24 20,2 C 10,6 C 45 % 1000,8 hPa 0,0 l/m 11,9 km/h (2 Bft) O-SO 110 1 min 0,000 mm 2,3 UV-I 484 W/m 7,9 C 18,3 C 17,7 km/h (3 Bft) 95,65 %
12.04.2018 11:25 20,3 C 10,0 C 45 % 1000,8 hPa 0,0 l/m 15,7 km/h (3 Bft) O-SO 105 1 min 0,000 mm 2,4 UV-I 518 W/m 8,0 C 17,5 C 19,3 km/h (3 Bft) 100,00 %
12.04.2018 11:26 20,3 C 10,0 C 46 % 1000,8 hPa 0,0 l/m 15,0 km/h (3 Bft) O-SO 103 1 min 0,000 mm 2,4 UV-I 501 W/m 8,3 C 17,6 C 20,9 km/h (4 Bft) 92,86 %
12.04.2018 11:27 20,3 C 10,0 C 45 % 1000,8 hPa 0,0 l/m 13,1 km/h (3 Bft) O 94 1 min 0,000 mm 2,3 UV-I 505 W/m 8,0 C 18,1 C 17,7 km/h (3 Bft) 100,00 %
12.04.2018 11:28 20,3 C 10,0 C 46 % 1000,9 hPa 0,0 l/m 13,8 km/h (3 Bft) O-SO 107 1 min 0,000 mm 2,4 UV-I 520 W/m 8,3 C 17,9 C 20,9 km/h (4 Bft) 96,15 %
12.04.2018 11:29 20,3 C 10,6 C 47 % 1000,9 hPa 0,0 l/m 14,6 km/h (3 Bft) O-SO 110 1 min 0,000 mm 2,4 UV-I 498 W/m 8,6 C 17,7 C 19,3 km/h (3 Bft) 100,00 %
12.04.2018 11:30 20,4 C 10,0 C 46 % 1000,9 hPa 0,0 l/m 11,4 km/h (2 Bft) O 96 1 min 0,000 mm 2,4 UV-I 513 W/m 8,4 C 18,7 C 14,5 km/h (3 Bft) 96,15 %
12.04.2018 11:31 20,4 C 10,6 C 47 % 1000,9 hPa 0,0 l/m 17,9 km/h (3 Bft) SO 126 1 min 0,000 mm 2,4 UV-I 497 W/m 8,7 C 17,1 C 29,0 km/h (5 Bft) 100,00 %
12.04.2018 11:32 20,5 C 10,0 C 43 % 1000,9 hPa 0,0 l/m 19,3 km/h (3 Bft) O-SO 107 1 min 0,000 mm 2,4 UV-I 498 W/m 7,5 C 17,0 C 27,4 km/h (4 Bft) 96,15 %
12.04.2018 11:33 20,6 C 10,0 C 44 % 1000,9 hPa 0,0 l/m 15,7 km/h (3 Bft) SO 143 1 min 0,000 mm 2,3 UV-I 485 W/m 7,9 C 17,8 C 17,7 km/h (3 Bft) 96,67 %
12.04.2018 11:34 20,6 C 10,0 C 44 % 1000,9 hPa 0,0 l/m 13,7 km/h (3 Bft) O 101 1 min 0,000 mm 2,4 UV-I 497 W/m 7,9 C 18,3 C 17,7 km/h (3 Bft) 91,67 %
12.04.2018 11:35 20,6 C 10,0 C 41 % 1000,9 hPa 0,0 l/m 19,6 km/h (3 Bft) SO 126 1 min 0,000 mm 2,3 UV-I 467 W/m 6,9 C 17,1 C 27,4 km/h (4 Bft) 96,15 %
12.04.2018 11:36 20,6 C 10,0 C 43 % 1000,9 hPa 0,0 l/m 15,6 km/h (3 Bft) SO 128 1 min 0,000 mm 2,2 UV-I 433 W/m 7,6 C 17,8 C 22,5 km/h (4 Bft) 100,00 %
12.04.2018 11:37 20,7 C 10,0 C 44 % 1000,9 hPa 0,0 l/m 13,5 km/h (3 Bft) O-SO 111 0 min 0,000 mm 2,1 UV-I 398 W/m 8,0 C 18,5 C 19,3 km/h (3 Bft) 95,65 %
12.04.2018 11:38 20,6 C 10,6 C 44 % 1000,9 hPa 0,0 l/m 18,3 km/h (3 Bft) SO 134 0 min 0,000 mm 2,1 UV-I 375 W/m 7,9 C 17,3 C 25,7 km/h (4 Bft) 100,00 %
12.04.2018 11:39 20,6 C 10,0 C 41 % 1000,8 hPa 0,0 l/m 20,8 km/h (4 Bft) SO 125 0 min 0,000 mm 2,0 UV-I 358 W/m 6,9 C 16,8 C 29,0 km/h (5 Bft) 96,15 %
12.04.2018 11:40 20,6 C 10,0 C 41 % 1000,9 hPa 0,0 l/m 19,6 km/h (3 Bft) SO 128 0 min 0,000 mm 1,9 UV-I 340 W/m 6,9 C 17,1 C 27,4 km/h (4 Bft) 96,55 %
12.04.2018 11:41 20,5 C 10,0 C 41 % 1000,9 hPa 0,0 l/m 16,8 km/h (3 Bft) SO 143 0 min 0,000 mm 1,8 UV-I 324 W/m 6,8 C 17,5 C 25,7 km/h (4 Bft) 100,00 %
12.04.2018 11:42 20,4 C 10,6 C 41 % 1001,0 hPa 0,0 l/m 19,5 km/h (3 Bft) SO 131 0 min 0,000 mm 1,7 UV-I 302 W/m 6,7 C 16,8 C 25,7 km/h (4 Bft) 96,30 %
12.04.2018 11:43 20,3 C 10,0 C 41 % 1001,0 hPa 0,0 l/m 21,9 km/h (4 Bft) O-SO 117 0 min 0,000 mm 1,6 UV-I 291 W/m 6,6 C 16,3 C 25,7 km/h (4 Bft) 100,00 %
12.04.2018 11:44 20,3 C 10,0 C 40 % 1001,0 hPa 0,0 l/m 21,2 km/h (4 Bft) S-SO 148 0 min 0,000 mm 1,5 UV-I 282 W/m 6,3 C 16,4 C 29,0 km/h (5 Bft) 96,30 %
12.04.2018 11:45 20,3 C 10,0 C 41 % 1001,0 hPa 0,0 l/m 14,6 km/h (3 Bft) S-SO 159 0 min 0,000 mm 1,5 UV-I 275 W/m 6,6 C 17,7 C 25,7 km/h (4 Bft) 100,00 %
12.04.2018 11:46 20,2 C 10,0 C 40 % 1001,0 hPa 0,0 l/m 17,1 km/h (3 Bft) SO 146 0 min 0,000 mm 1,4 UV-I 274 W/m 6,2 C 17,0 C 22,5 km/h (4 Bft) 93,33 %
12.04.2018 11:47 20,2 C 10,0 C 41 % 1001,0 hPa 0,0 l/m 20,6 km/h (4 Bft) SO 135 0 min 0,000 mm 1,4 UV-I 272 W/m 6,5 C 16,4 C 30,6 km/h (5 Bft) 92,31 %
12.04.2018 11:48 20,2 C 10,0 C 40 % 1001,0 hPa 0,0 l/m 21,5 km/h (4 Bft) O-SO 123 0 min 0,000 mm 1,4 UV-I 274 W/m 6,2 C 16,2 C 25,7 km/h (4 Bft) 93,33 %
12.04.2018 11:49 20,1 C 10,0 C 40 % 1000,9 hPa 0,0 l/m 17,4 km/h (3 Bft) S-SO 147 0 min 0,000 mm 1,4 UV-I 275 W/m 6,1 C 16,8 C 24,1 km/h (4 Bft) 97,14 %
12.04.2018 11:50 20,1 C 10,0 C 41 % 1001,0 hPa 0,0 l/m 13,3 km/h (3 Bft) SO 138 0 min 0,000 mm 1,4 UV-I 278 W/m 6,4 C 17,8 C 17,7 km/h (3 Bft) 100,00 %
12.04.2018 11:51 20,1 C 10,0 C 42 % 1000,9 hPa 0,0 l/m 16,0 km/h (3 Bft) S-SO 161 0 min 0,000 mm 1,4 UV-I 282 W/m 6,8 C 17,1 C 22,5 km/h (4 Bft) 90,91 %
12.04.2018 11:52 20,1 C 10,6 C 42 % 1000,9 hPa 0,0 l/m 19,7 km/h (3 Bft) SO 144 0 min 0,000 mm 1,5 UV-I 288 W/m 6,8 C 16,4 C 30,6 km/h (5 Bft) 100,00 %
12.04.2018 11:53 20,1 C 10,0 C 41 % 1000,9 hPa 0,0 l/m 22,6 km/h (4 Bft) SO 137 0 min 0,000 mm 1,5 UV-I 296 W/m 6,4 C 15,9 C 30,6 km/h (5 Bft) 96,55 %
12.04.2018 11:54 20,1 C 10,6 C 41 % 1000,9 hPa 0,0 l/m 20,4 km/h (4 Bft) O-SO 122 0 min 0,000 mm 1,6 UV-I 303 W/m 6,4 C 16,3 C 24,1 km/h (4 Bft) 100,00 %
12.04.2018 11:55 20,1 C 10,0 C 41 % 1000,9 hPa 0,0 l/m 19,5 km/h (3 Bft) SO 132 0 min 0,000 mm 1,6 UV-I 311 W/m 6,4 C 16,4 C 24,1 km/h (4 Bft) 100,00 %
12.04.2018 11:56 20,1 C 10,0 C 41 % 1000,8 hPa 0,0 l/m 15,4 km/h (3 Bft) S-SO 152 0 min 0,000 mm 1,6 UV-I 319 W/m 6,4 C 17,3 C 19,3 km/h (3 Bft) 100,00 %
12.04.2018 11:57 20,1 C 10,0 C 42 % 1000,8 hPa 0,0 l/m 13,2 km/h (3 Bft) O-SO 111 0 min 0,000 mm 1,7 UV-I 328 W/m 6,8 C 17,8 C 17,7 km/h (3 Bft) 100,00 %
12.04.2018 11:58 20,1 C 10,0 C 44 % 1000,9 hPa 0,0 l/m 6,9 km/h (2 Bft) SO 142 0 min 0,000 mm 1,7 UV-I 335 W/m 7,5 C 19,9 C 9,7 km/h (2 Bft) 100,00 %
12.04.2018 11:59 20,1 C 10,0 C 43 % 1000,9 hPa 0,0 l/m 9,5 km/h (2 Bft) SO 132 0 min 0,000 mm 1,7 UV-I 341 W/m 7,1 C 18,9 C 12,9 km/h (3 Bft) 100,00 %
12.04.2018 12:00 20,2 C 10,0 C 43 % 1000,9 hPa 0,0 l/m 7,4 km/h (2 Bft) SO 137 0 min 0,000 mm 1,8 UV-I 349 W/m 7,2 C 19,8 C 11,3 km/h (2 Bft) 100,00 %
12.04.2018 12:02 20,3 C 10,0 C 44 % 1001,0 hPa 0,0 l/m 10,5 km/h (2 Bft) SO 141 0 min 0,330 mm 1,9 UV-I 365 W/m 7,6 C 18,8 C 16,1 km/h (3 Bft) 94,74 %
12.04.2018 12:03 20,3 C 10,0 C 42 % 1001,0 hPa 0,0 l/m 14,3 km/h (3 Bft) S-SO 147 0 min 0,000 mm 2,0 UV-I 409 W/m 7,0 C 17,8 C 20,9 km/h (4 Bft) 100,00 %
12.04.2018 12:04 20,3 C 10,0 C 43 % 1001,0 hPa 0,0 l/m 12,4 km/h (3 Bft) O-SO 119 1 min 0,000 mm 2,2 UV-I 452 W/m 7,3 C 18,3 C 17,7 km/h (3 Bft) 100,00 %
12.04.2018 12:05 20,4 C 10,0 C 41 % 1001,1 hPa 0,0 l/m 19,8 km/h (3 Bft) O-SO 115 1 min 0,000 mm 2,2 UV-I 450 W/m 6,7 C 16,8 C 25,7 km/h (4 Bft) 96,67 %
12.04.2018 12:06 20,4 C 10,0 C 42 % 1001,1 hPa 0,0 l/m 17,5 km/h (3 Bft) O-SO 121 1 min 0,000 mm 2,2 UV-I 441 W/m 7,1 C 17,2 C 24,1 km/h (4 Bft) 100,00 %
12.04.2018 12:07 20,5 C 10,0 C 42 % 1001,1 hPa 0,0 l/m 18,6 km/h (3 Bft) SO 130 1 min 0,000 mm 2,1 UV-I 426 W/m 7,1 C 17,1 C 25,7 km/h (4 Bft) 100,00 %
12.04.2018 12:08 20,6 C 10,0 C 41 % 1001,1 hPa 0,0 l/m 17,2 km/h (3 Bft) SO 128 1 min 0,000 mm 2,2 UV-I 434 W/m 6,9 C 17,5 C 22,5 km/h (4 Bft) 100,00 %
12.04.2018 12:09 20,6 C 10,6 C 40 % 1001,1 hPa 0,0 l/m 17,4 km/h (3 Bft) SO 130 1 min 0,000 mm 2,3 UV-I 480 W/m 6,5 C 17,5 C 20,9 km/h (4 Bft) 100,00 %
12.04.2018 12:10 20,7 C 10,0 C 40 % 1001,1 hPa 0,0 l/m 14,9 km/h (3 Bft) SO 142 1 min 0,000 mm 2,4 UV-I 496 W/m 6,6 C 18,1 C 20,9 km/h (4 Bft) 100,00 %
12.04.2018 12:11 20,7 C 10,0 C 40 % 1001,1 hPa 0,0 l/m 12,4 km/h (3 Bft) SO 146 1 min 0,000 mm 2,4 UV-I 483 W/m 6,6 C 18,7 C 17,7 km/h (3 Bft) 100,00 %
12.04.2018 12:12 20,7 C 10,0 C 41 % 1001,1 hPa 0,0 l/m 8,5 km/h (2 Bft) SO 130 1 min 0,000 mm 2,3 UV-I 448 W/m 7,0 C 19,9 C 11,3 km/h (2 Bft) 100,00 %
12.04.2018 12:13 20,8 C 10,0 C 42 % 1001,2 hPa 0,0 l/m 9,7 km/h (2 Bft) S-SO 163 1 min 0,000 mm 2,3 UV-I 436 W/m 7,4 C 19,6 C 12,9 km/h (3 Bft) 100,00 %
12.04.2018 12:14 20,8 C 10,0 C 42 % 1001,1 hPa 0,0 l/m 14,6 km/h (3 Bft) SO 137 1 min 0,000 mm 2,5 UV-I 431 W/m 7,4 C 18,3 C 22,5 km/h (4 Bft) 100,00 %
12.04.2018 12:15 20,9 C 10,0 C 40 % 1001,1 hPa 0,0 l/m 11,4 km/h (2 Bft) S-SO 157 1 min 0,000 mm 2,8 UV-I 519 W/m 6,8 C 19,2 C 17,7 km/h (3 Bft) 100,00 %
12.04.2018 12:16 20,9 C 10,0 C 41 % 1001,1 hPa 0,0 l/m 8,5 km/h (2 Bft) O-SO 116 1 min 0,000 mm 2,8 UV-I 569 W/m 7,2 C 20,1 C 12,9 km/h (3 Bft) 100,00 %
12.04.2018 12:17 21,1 C 10,6 C 42 % 1001,1 hPa 0,0 l/m 10,3 km/h (2 Bft) O-SO 102 1 min 0,000 mm 3,0 UV-I 572 W/m 7,7 C 19,8 C 16,1 km/h (3 Bft) 100,00 %
12.04.2018 12:18 21,1 C 10,6 C 41 % 1001,1 hPa 0,0 l/m 10,1 km/h (2 Bft) SO 130 1 min 0,000 mm 3,1 UV-I 643 W/m 7,3 C 19,8 C 12,9 km/h (3 Bft) 97,93 %
12.04.2018 12:19 21,1 C 10,0 C 42 % 1001,1 hPa 0,0 l/m 9,3 km/h (2 Bft) O-SO 119 1 min 0,000 mm 3,0 UV-I 612 W/m 7,7 C 20,1 C 14,5 km/h (3 Bft) 97,73 %
12.04.2018 12:20 21,1 C 10,6 C 41 % 1001,0 hPa 0,0 l/m 11,4 km/h (2 Bft) S-SO 153 1 min 0,000 mm 3,0 UV-I 610 W/m 7,3 C 19,5 C 16,1 km/h (3 Bft) 100,00 %
12.04.2018 12:21 21,2 C 10,6 C 41 % 1001,1 hPa 0,0 l/m 9,0 km/h (2 Bft) SO 125 1 min 0,000 mm 2,9 UV-I 559 W/m 7,4 C 20,3 C 14,5 km/h (3 Bft) 97,93 %
12.04.2018 12:22 21,2 C 10,0 C 41 % 1001,2 hPa 0,0 l/m 11,1 km/h (2 Bft) O-SO 109 1 min 0,000 mm 2,9 UV-I 575 W/m 7,4 C 19,7 C 19,3 km/h (3 Bft) 95,56 %
12.04.2018 12:23 21,3 C 10,6 C 42 % 1001,2 hPa 0,0 l/m 10,9 km/h (2 Bft) O-SO 107 1 min 0,000 mm 2,8 UV-I 574 W/m 7,9 C 19,8 C 14,5 km/h (3 Bft) 100,00 %
12.04.2018 12:24 21,3 C 10,6 C 42 % 1001,3 hPa 0,0 l/m 12,2 km/h (2 Bft) O-SO 114 1 min 0,000 mm 3,0 UV-I 503 W/m 7,9 C 19,5 C 16,1 km/h (3 Bft) 100,00 %
12.04.2018 12:25 21,4 C 10,0 C 42 % 1001,3 hPa 0,0 l/m 10,0 km/h (2 Bft) O-SO 106 1 min 0,000 mm 3,9 UV-I 503 W/m 8,0 C 20,2 C 19,3 km/h (3 Bft) 96,15 %
12.04.2018 12:26 21,7 C 10,6 C 42 % 1001,3 hPa 0,0 l/m 10,9 km/h (2 Bft) O 100 1 min 0,000 mm 4,3 UV-I 826 W/m 8,2 C 20,3 C 19,3 km/h (3 Bft) 96,30 %
12.04.2018 12:27 21,8 C 10,0 C 40 % 1001,3 hPa 0,0 l/m 17,4 km/h (3 Bft) SO 132 1 min 0,000 mm 4,2 UV-I 959 W/m 7,6 C 19,0 C 25,7 km/h (4 Bft) 100,00 %
12.04.2018 12:28 21,8 C 10,6 C 40 % 1001,3 hPa 0,0 l/m 12,3 km/h (3 Bft) O-SO 105 1 min 0,000 mm 4,1 UV-I 950 W/m 7,6 C 20,0 C 16,1 km/h (3 Bft) 100,00 %
12.04.2018 12:29 21,9 C 10,6 C 41 % 1001,3 hPa 0,0 l/m 14,2 km/h (3 Bft) O 88 1 min 0,000 mm 4,2 UV-I 921 W/m 8,0 C 19,7 C 20,9 km/h (4 Bft) 100,00 %
12.04.2018 12:30 22,1 C 10,0 C 41 % 1001,3 hPa 0,0 l/m 16,0 km/h (3 Bft) O 99 1 min 0,000 mm 4,1 UV-I 893 W/m 8,2 C 19,6 C 19,3 km/h (3 Bft) 100,00 %
12.04.2018 12:31 22,2 C 10,6 C 39 % 1001,3 hPa 0,0 l/m 17,5 km/h (3 Bft) O 101 1 min 0,000 mm 4,0 UV-I 835 W/m 7,6 C 19,5 C 20,9 km/h (4 Bft) 100,00 %
12.04.2018 12:32 22,2 C 10,6 C 41 % 1001,3 hPa 0,0 l/m 15,0 km/h (3 Bft) O-SO 117 1 min 0,000 mm 3,8 UV-I 796 W/m 8,3 C 19,9 C 19,3 km/h (3 Bft) 100,00 %
12.04.2018 12:33 22,3 C 10,6 C 39 % 1001,3 hPa 0,0 l/m 11,1 km/h (2 Bft) O 96 1 min 0,000 mm 3,8 UV-I 783 W/m 7,7 C 20,9 C 14,5 km/h (3 Bft) 100,00 %
12.04.2018 12:34 22,4 C 10,6 C 39 % 1001,3 hPa 0,0 l/m 14,4 km/h (3 Bft) SO 126 1 min 0,000 mm 3,7 UV-I 747 W/m 7,8 C 20,3 C 27,4 km/h (4 Bft) 95,83 %
12.04.2018 12:35 22,4 C 10,0 C 38 % 1001,3 hPa 0,0 l/m 21,0 km/h (4 Bft) SO 124 1 min 0,000 mm 3,4 UV-I 742 W/m 7,4 C 19,2 C 25,7 km/h (4 Bft) 100,00 %
12.04.2018 12:36 22,3 C 10,6 C 39 % 1001,3 hPa 0,0 l/m 23,2 km/h (4 Bft) O 90 1 min 0,000 mm 3,9 UV-I 742 W/m 7,7 C 18,7 C 29,0 km/h (5 Bft) 100,00 %
12.04.2018 12:37 22,3 C 10,6 C 37 % 1001,3 hPa 0,0 l/m 15,0 km/h (3 Bft) SO 133 1 min 0,000 mm 4,1 UV-I 742 W/m 6,9 C 20,0 C 20,9 km/h (4 Bft) 100,00 %
12.04.2018 12:38 22,3 C 10,6 C 39 % 1001,3 hPa 0,0 l/m 13,7 km/h (3 Bft) SO 135 1 min 0,000 mm 4,0 UV-I 799 W/m 7,7 C 20,3 C 19,3 km/h (3 Bft) 100,00 %
12.04.2018 12:39 22,3 C 10,0 C 38 % 1001,3 hPa 0,0 l/m 16,1 km/h (3 Bft) O-SO 119 1 min 0,000 mm 4,0 UV-I 850 W/m 7,3 C 19,8 C 20,9 km/h (4 Bft) 100,00 %
12.04.2018 12:40 22,3 C 10,0 C 39 % 1001,3 hPa 0,0 l/m 14,6 km/h (3 Bft) O 97 1 min 0,000 mm 4,0 UV-I 851 W/m 7,7 C 20,1 C 19,3 km/h (3 Bft) 91,30 %
12.04.2018 12:41 22,4 C 10,6 C 40 % 1001,3 hPa 0,0 l/m 10,7 km/h (2 Bft) O-SO 119 1 min 0,000 mm 4,1 UV-I 866 W/m 8,1 C 21,1 C 14,5 km/h (3 Bft) 100,00 %
12.04.2018 12:42 22,5 C 10,6 C 39 % 1001,2 hPa 0,0 l/m 16,4 km/h (3 Bft) SO 136 1 min 0,000 mm 4,0 UV-I 860 W/m 7,8 C 20,0 C 25,7 km/h (4 Bft) 100,00 %
12.04.2018 12:43 22,6 C 10,6 C 39 % 1001,3 hPa 0,0 l/m 18,0 km/h (3 Bft) O 98 1 min 0,000 mm 4,1 UV-I 885 W/m 7,9 C 19,9 C 20,9 km/h (4 Bft) 100,00 %
12.04.2018 12:44 22,7 C 10,0 C 39 % 1001,3 hPa 0,0 l/m 13,3 km/h (3 Bft) O 86 1 min 0,000 mm 4,1 UV-I 873 W/m 8,0 C 20,9 C 16,1 km/h (3 Bft) 100,00 %
12.04.2018 12:45 22,8 C 10,6 C 40 % 1001,2 hPa 0,0 l/m 8,8 km/h (2 Bft) O-SO 108 1 min 0,000 mm 4,2 UV-I 904 W/m 8,5 C 22,1 C 12,9 km/h (3 Bft) 100,00 %
12.04.2018 12:46 22,8 C 10,6 C 39 % 1001,2 hPa 0,0 l/m 11,1 km/h (2 Bft) S-SO 148 1 min 0,000 mm 4,0 UV-I 830 W/m 8,1 C 21,5 C 17,7 km/h (3 Bft) 100,00 %
12.04.2018 12:47 22,8 C 10,6 C 40 % 1001,2 hPa 0,0 l/m 6,4 km/h (2 Bft) O-SO 108 1 min 0,000 mm 4,1 UV-I 886 W/m 8,5 C 22,8 C 11,3 km/h (2 Bft) 100,00 %
12.04.2018 12:48 22,8 C 10,0 C 39 % 1001,2 hPa 0,0 l/m 11,0 km/h (2 Bft) S-SO 161 1 min 0,000 mm 4,2 UV-I 890 W/m 8,1 C 21,5 C 17,7 km/h (3 Bft) 95,65 %
12.04.2018 12:49 22,9 C 10,0 C 40 % 1001,2 hPa 0,0 l/m 11,9 km/h (2 Bft) O-SO 118 1 min 0,000 mm 4,1 UV-I 858 W/m 8,6 C 21,4 C 19,3 km/h (3 Bft) 100,00 %
12.04.2018 12:50 23,0 C 10,6 C 38 % 1001,3 hPa 0,0 l/m 15,8 km/h (3 Bft) O-SO 123 1 min 0,000 mm 3,9 UV-I 847 W/m 7,9 C 20,7 C 20,9 km/h (4 Bft) 100,00 %
12.04.2018 12:51 23,0 C 10,6 C 38 % 1001,2 hPa 0,0 l/m 16,0 km/h (3 Bft) SO 134 1 min 0,000 mm 3,9 UV-I 836 W/m 7,9 C 20,7 C 22,5 km/h (4 Bft) 100,00 %
12.04.2018 12:52 22,9 C 10,6 C 38 % 1001,3 hPa 0,0 l/m 16,2 km/h (3 Bft) O-SO 123 1 min 0,000 mm 3,8 UV-I 818 W/m 7,8 C 20,5 C 20,9 km/h (4 Bft) 100,00 %
12.04.2018 12:53 22,8 C 10,6 C 39 % 1001,2 hPa 0,0 l/m 19,6 km/h (3 Bft) SO 126 1 min 0,000 mm 3,4 UV-I 817 W/m 8,1 C 19,9 C 25,7 km/h (4 Bft) 94,12 %
12.04.2018 12:54 22,7 C 10,0 C 38 % 1001,2 hPa 0,0 l/m 15,9 km/h (3 Bft) SO 126 1 min 0,000 mm 2,8 UV-I 793 W/m 7,6 C 20,4 C 19,3 km/h (3 Bft) 100,00 %
12.04.2018 12:55 22,5 C 10,6 C 36 % 1001,2 hPa 0,0 l/m 10,4 km/h (2 Bft) SO 128 1 min 0,000 mm 2,9 UV-I 567 W/m 6,7 C 21,3 C 14,5 km/h (3 Bft) 100,00 %
12.04.2018 12:56 22,5 C 10,6 C 36 % 1001,2 hPa 0,0 l/m 19,5 km/h (3 Bft) SO 127 1 min 0,000 mm 2,9 UV-I 557 W/m 6,7 C 19,5 C 27,4 km/h (4 Bft) 100,00 %
12.04.2018 12:57 22,4 C 10,0 C 37 % 1001,2 hPa 0,0 l/m 17,2 km/h (3 Bft) O-SO 115 1 min 0,000 mm 2,8 UV-I 533 W/m 7,0 C 19,8 C 22,5 km/h (4 Bft) 100,00 %
12.04.2018 12:58 22,3 C 10,6 C 40 % 1001,2 hPa 0,0 l/m 12,6 km/h (3 Bft) S 169 1 min 0,000 mm 2,6 UV-I 472 W/m 8,0 C 20,5 C 16,1 km/h (3 Bft) 100,00 %
12.04.2018 12:59 22,3 C 10,6 C 37 % 1001,2 hPa 0,0 l/m 14,8 km/h (3 Bft) O-SO 118 1 min 0,000 mm 2,5 UV-I 430 W/m 6,9 C 20,1 C 17,7 km/h (3 Bft) 100,00 %
12.04.2018 13:00 22,3 C 10,6 C 37 % 1001,2 hPa 0,0 l/m 8,1 km/h (2 Bft) O-NO 67 1 min 0,000 mm 2,4 UV-I 430 W/m 6,9 C 21,7 C 12,9 km/h (3 Bft) 96,30 %
12.04.2018 13:02 22,2 C 10,6 C 37 % 1001,1 hPa 0,0 l/m 13,0 km/h (3 Bft) S-SO 157 0 min 0,508 mm 2,3 UV-I 401 W/m 6,8 C 20,3 C 22,5 km/h (4 Bft) 100,00 %
12.04.2018 13:03 22,3 C 10,6 C 37 % 1001,1 hPa 0,0 l/m 13,5 km/h (3 Bft) SO 126 1 min 0,000 mm 2,4 UV-I 427 W/m 6,9 C 20,3 C 19,3 km/h (3 Bft) 96,55 %
12.04.2018 13:04 22,3 C 10,0 C 38 % 1001,1 hPa 0,0 l/m 15,0 km/h (3 Bft) O 86 1 min 0,000 mm 2,4 UV-I 460 W/m 7,3 C 20,0 C 17,7 km/h (3 Bft) 98,01 %
12.04.2018 13:05 22,3 C 10,6 C 37 % 1001,1 hPa 0,0 l/m 14,7 km/h (3 Bft) O-SO 107 1 min 0,000 mm 2,5 UV-I 467 W/m 6,9 C 20,1 C 17,7 km/h (3 Bft) 100,00 %
12.04.2018 13:06 22,3 C 10,6 C 39 % 1001,1 hPa 0,0 l/m 13,6 km/h (3 Bft) O-SO 103 1 min 0,000 mm 2,4 UV-I 449 W/m 7,7 C 20,3 C 19,3 km/h (3 Bft) 100,00 %
12.04.2018 13:07 22,3 C 10,6 C 38 % 1001,2 hPa 0,0 l/m 12,1 km/h (2 Bft) S-SO 150 1 min 0,000 mm 2,3 UV-I 455 W/m 7,3 C 20,7 C 17,7 km/h (3 Bft) 100,00 %
12.04.2018 13:08 22,3 C 10,6 C 39 % 1001,2 hPa 0,0 l/m 6,8 km/h (2 Bft) O 94 1 min 0,000 mm 2,3 UV-I 432 W/m 7,7 C 22,2 C 11,3 km/h (2 Bft) 100,00 %
12.04.2018 13:09 22,2 C 10,0 C 40 % 1001,2 hPa 0,0 l/m 11,1 km/h (2 Bft) SO 130 0 min 0,000 mm 2,3 UV-I 424 W/m 8,0 C 20,8 C 16,1 km/h (3 Bft) 100,00 %
12.04.2018 13:10 22,2 C 10,6 C 40 % 1001,1 hPa 0,0 l/m 11,6 km/h (2 Bft) SO 128 1 min 0,000 mm 2,3 UV-I 434 W/m 8,0 C 20,7 C 16,1 km/h (3 Bft) 100,00 %
12.04.2018 13:11 22,2 C 10,6 C 38 % 1001,1 hPa 0,0 l/m 15,2 km/h (3 Bft) O-SO 105 1 min 0,000 mm 2,4 UV-I 450 W/m 7,2 C 19,9 C 17,7 km/h (3 Bft) 100,00 %
12.04.2018 13:12 22,1 C 10,6 C 39 % 1001,1 hPa 0,0 l/m 11,1 km/h (2 Bft) O 86 1 min 0,000 mm 2,4 UV-I 450 W/m 7,5 C 20,7 C 12,9 km/h (3 Bft) 100,00 %
12.04.2018 13:13 22,2 C 10,6 C 40 % 1001,1 hPa 0,0 l/m 11,1 km/h (2 Bft) O 86 1 min 0,000 mm 2,4 UV-I 454 W/m 8,0 C 20,8 C 14,5 km/h (3 Bft) 100,00 %
12.04.2018 13:14 22,2 C 10,0 C 39 % 1001,1 hPa 0,0 l/m 10,2 km/h (2 Bft) S-SO 152 1 min 0,000 mm 2,4 UV-I 459 W/m 7,6 C 21,0 C 14,5 km/h (3 Bft) 100,00 %
12.04.2018 13:15 22,2 C 10,0 C 40 % 1001,0 hPa 0,0 l/m 7,5 km/h (2 Bft) S-SW 197 1 min 0,000 mm 2,4 UV-I 468 W/m 8,0 C 21,8 C 12,9 km/h (3 Bft) 95,83 %
12.04.2018 13:16 22,3 C 10,6 C 41 % 1001,0 hPa 0,0 l/m 12,3 km/h (3 Bft) S 175 1 min 0,000 mm 2,5 UV-I 465 W/m 8,4 C 20,6 C 20,9 km/h (4 Bft) 100,00 %
12.04.2018 13:17 22,4 C 10,6 C 40 % 1001,0 hPa 0,0 l/m 13,2 km/h (3 Bft) S-SO 156 1 min 0,000 mm 2,5 UV-I 498 W/m 8,1 C 20,5 C 19,3 km/h (3 Bft) 96,30 %
12.04.2018 13:18 22,6 C 10,6 C 40 % 1001,0 hPa 0,0 l/m 13,5 km/h (3 Bft) SO 134 1 min 0,000 mm 2,6 UV-I 543 W/m 8,3 C 20,7 C 17,7 km/h (3 Bft) 100,00 %
12.04.2018 13:19 22,6 C 10,0 C 40 % 1001,0 hPa 0,0 l/m 15,6 km/h (3 Bft) O 101 1 min 0,000 mm 2,7 UV-I 570 W/m 8,3 C 20,3 C 24,1 km/h (4 Bft) 96,30 %
12.04.2018 13:20 22,7 C 10,6 C 40 % 1001,1 hPa 0,0 l/m 17,3 km/h (3 Bft) O 94 1 min 0,000 mm 2,7 UV-I 559 W/m 8,4 C 20,1 C 20,9 km/h (4 Bft) 100,00 %
12.04.2018 13:21 22,6 C 10,6 C 40 % 1001,1 hPa 0,0 l/m 15,5 km/h (3 Bft) O-SO 104 1 min 0,000 mm 2,6 UV-I 552 W/m 8,3 C 20,3 C 20,9 km/h (4 Bft) 96,67 %
12.04.2018 13:22 22,4 C 10,6 C 41 % 1001,1 hPa 0,0 l/m 12,2 km/h (2 Bft) O-SO 107 1 min 0,000 mm 2,3 UV-I 531 W/m 8,5 C 20,7 C 14,5 km/h (3 Bft) 100,00 %
12.04.2018 13:23 22,3 C 10,0 C 41 % 1001,1 hPa 0,0 l/m 9,3 km/h (2 Bft) O-SO 121 1 min 0,000 mm 2,4 UV-I 465 W/m 8,4 C 21,4 C 12,9 km/h (3 Bft) 96,67 %
12.04.2018 13:24 22,3 C 10,0 C 43 % 1001,1 hPa 0,0 l/m 6,7 km/h (2 Bft) S 186 1 min 0,000 mm 2,4 UV-I 465 W/m 9,1 C 22,2 C 8,0 km/h (2 Bft) 98,04 %
12.04.2018 13:25 22,4 C 10,6 C 42 % 1001,1 hPa 0,0 l/m 10,5 km/h (2 Bft) SO 124 1 min 0,000 mm 2,4 UV-I 477 W/m 8,9 C 21,2 C 14,5 km/h (3 Bft) 97,87 %
12.04.2018 13:26 22,4 C 10,6 C 41 % 1001,0 hPa 0,0 l/m 15,3 km/h (3 Bft) O 100 1 min 0,000 mm 2,4 UV-I 494 W/m 8,5 C 20,1 C 22,5 km/h (4 Bft) 91,30 %
12.04.2018 13:27 22,4 C 10,6 C 39 % 1001,0 hPa 0,0 l/m 15,3 km/h (3 Bft) O 86 1 min 0,000 mm 2,5 UV-I 497 W/m 7,8 C 20,1 C 20,9 km/h (4 Bft) 100,00 %
12.04.2018 13:28 22,3 C 10,6 C 39 % 1001,0 hPa 0,0 l/m 7,9 km/h (2 Bft) O-SO 118 1 min 0,000 mm 2,6 UV-I 496 W/m 7,7 C 21,8 C 12,9 km/h (3 Bft) 98,03 %
12.04.2018 13:29 22,3 C 10,6 C 38 % 1001,0 hPa 0,0 l/m 10,8 km/h (2 Bft) S-SO 159 1 min 0,000 mm 2,5 UV-I 483 W/m 7,3 C 21,0 C 16,1 km/h (3 Bft) 97,37 %
12.04.2018 13:30 22,6 C 10,0 C 38 % 1001,0 hPa 0,0 l/m 6,9 km/h (2 Bft) SO 143 1 min 0,000 mm 2,5 UV-I 478 W/m 7,6 C 22,4 C 16,1 km/h (3 Bft) 93,33 %
12.04.2018 13:31 22,6 C 10,6 C 38 % 1001,0 hPa 0,0 l/m 14,0 km/h (3 Bft) S-SO 159 1 min 0,000 mm 2,5 UV-I 467 W/m 7,6 C 20,6 C 19,3 km/h (3 Bft) 97,56 %
12.04.2018 13:32 22,7 C 10,6 C 38 % 1000,9 hPa 0,0 l/m 11,5 km/h (2 Bft) SO 126 1 min 0,000 mm 2,6 UV-I 539 W/m 7,6 C 21,3 C 16,1 km/h (3 Bft) 100,00 %
12.04.2018 13:33 22,7 C 10,6 C 37 % 1001,0 hPa 0,0 l/m 9,6 km/h (2 Bft) S-SO 159 1 min 0,000 mm 2,8 UV-I 583 W/m 7,3 C 21,7 C 14,5 km/h (3 Bft) 94,12 %
12.04.2018 13:34 22,8 C 10,6 C 38 % 1000,9 hPa 0,0 l/m 9,5 km/h (2 Bft) SO 140 1 min 0,000 mm 2,7 UV-I 524 W/m 7,7 C 21,9 C 16,1 km/h (3 Bft) 100,00 %
12.04.2018 13:35 22,8 C 10,6 C 35 % 1001,0 hPa 0,0 l/m 13,2 km/h (3 Bft) S 184 1 min 0,000 mm 3,1 UV-I 566 W/m 6,5 C 21,0 C 19,3 km/h (3 Bft) 92,31 %
12.04.2018 13:36 22,9 C 10,6 C 35 % 1000,9 hPa 0,0 l/m 11,3 km/h (2 Bft) S-SO 151 1 min 0,000 mm 3,6 UV-I 721 W/m 6,6 C 21,5 C 16,1 km/h (3 Bft) 100,00 %
12.04.2018 13:37 23,1 C 10,6 C 35 % 1000,9 hPa 0,0 l/m 17,3 km/h (3 Bft) S-SO 150 1 min 0,000 mm 3,8 UV-I 874 W/m 6,8 C 20,6 C 25,7 km/h (4 Bft) 94,12 %
12.04.2018 13:38 23,2 C 10,6 C 35 % 1000,9 hPa 0,0 l/m 13,7 km/h (3 Bft) S-SO 149 1 min 0,000 mm 3,8 UV-I 860 W/m 6,9 C 21,4 C 20,9 km/h (4 Bft) 100,00 %
12.04.2018 13:39 23,2 C 10,6 C 35 % 1000,9 hPa 0,0 l/m 17,7 km/h (3 Bft) SO 132 1 min 0,000 mm 3,7 UV-I 858 W/m 6,9 C 20,7 C 22,5 km/h (4 Bft) 96,15 %
12.04.2018 13:40 23,3 C 10,6 C 36 % 1000,8 hPa 0,0 l/m 19,5 km/h (3 Bft) S-SO 165 1 min 0,000 mm 3,6 UV-I 791 W/m 7,4 C 20,5 C 25,7 km/h (4 Bft) 100,00 %
12.04.2018 13:41 23,4 C 10,6 C 34 % 1000,9 hPa 0,0 l/m 25,1 km/h (4 Bft) S-SO 155 1 min 0,000 mm 3,6 UV-I 773 W/m 6,6 C 20,0 C 30,6 km/h (5 Bft) 92,31 %
12.04.2018 13:42 23,4 C 10,6 C 33 % 1000,8 hPa 0,0 l/m 21,6 km/h (4 Bft) S 184 1 min 0,000 mm 3,4 UV-I 769 W/m 6,2 C 20,4 C 27,4 km/h (4 Bft) 100,00 %
12.04.2018 13:43 23,3 C 10,6 C 34 % 1000,9 hPa 0,0 l/m 15,7 km/h (3 Bft) S-SO 167 1 min 0,000 mm 3,5 UV-I 762 W/m 6,6 C 21,1 C 22,5 km/h (4 Bft) 96,15 %
12.04.2018 13:44 23,2 C 10,6 C 34 % 1000,8 hPa 0,0 l/m 19,8 km/h (3 Bft) O-SO 115 1 min 0,000 mm 3,4 UV-I 726 W/m 6,5 C 20,4 C 25,7 km/h (4 Bft) 96,30 %
12.04.2018 13:45 23,3 C 10,6 C 35 % 1000,8 hPa 0,0 l/m 24,9 km/h (4 Bft) SO 142 1 min 0,000 mm 3,5 UV-I 750 W/m 7,0 C 19,9 C 29,0 km/h (5 Bft) 100,00 %
12.04.2018 13:46 23,4 C 10,6 C 35 % 1000,8 hPa 0,0 l/m 18,2 km/h (3 Bft) SO 146 1 min 0,000 mm 3,6 UV-I 777 W/m 7,1 C 20,9 C 27,4 km/h (4 Bft) 93,33 %
12.04.2018 13:47 23,5 C 10,6 C 35 % 1000,9 hPa 0,0 l/m 16,7 km/h (3 Bft) SO 146 1 min 0,000 mm 3,7 UV-I 803 W/m 7,1 C 21,2 C 24,1 km/h (4 Bft) 100,00 %
12.04.2018 13:48 23,6 C 10,6 C 37 % 1000,9 hPa 0,0 l/m 11,6 km/h (2 Bft) S-SO 159 1 min 0,000 mm 3,7 UV-I 793 W/m 8,0 C 22,3 C 22,5 km/h (4 Bft) 100,00 %
12.04.2018 13:49 23,8 C 10,6 C 37 % 1001,0 hPa 0,0 l/m 21,3 km/h (4 Bft) SO 132 1 min 0,000 mm 3,8 UV-I 796 W/m 8,2 C 21,0 C 29,0 km/h (5 Bft) 100,00 %
12.04.2018 13:50 23,9 C 10,6 C 33 % 1001,0 hPa 0,0 l/m 13,3 km/h (3 Bft) O-SO 123 1 min 0,000 mm 3,8 UV-I 830 W/m 6,6 C 22,3 C 17,7 km/h (3 Bft) 96,88 %
12.04.2018 13:51 23,9 C 10,6 C 35 % 1001,0 hPa 0,0 l/m 15,8 km/h (3 Bft) SO 146 1 min 0,000 mm 3,9 UV-I 848 W/m 7,5 C 21,8 C 19,3 km/h (3 Bft) 100,00 %
12.04.2018 13:52 23,9 C 10,6 C 33 % 1001,0 hPa 0,0 l/m 9,3 km/h (2 Bft) S 170 1 min 0,000 mm 4,0 UV-I 874 W/m 6,6 C 23,1 C 19,3 km/h (3 Bft) 100,00 %
12.04.2018 13:53 24,0 C 10,6 C 34 % 1001,0 hPa 0,0 l/m 17,2 km/h (3 Bft) SO 130 1 min 0,000 mm 3,9 UV-I 860 W/m 7,2 C 21,8 C 29,0 km/h (5 Bft) 100,00 %
12.04.2018 13:54 24,1 C 10,6 C 34 % 1001,0 hPa 0,0 l/m 8,4 km/h (2 Bft) S-SO 154 1 min 0,000 mm 3,9 UV-I 841 W/m 7,2 C 23,6 C 12,9 km/h (3 Bft) 100,00 %
12.04.2018 13:55 24,0 C 10,6 C 33 % 1001,0 hPa 0,0 l/m 9,1 km/h (2 Bft) S 178 1 min 0,000 mm 3,7 UV-I 794 W/m 6,7 C 23,3 C 16,1 km/h (3 Bft) 100,00 %
12.04.2018 13:56 23,9 C 10,6 C 32 % 1001,0 hPa 0,0 l/m 16,4 km/h (3 Bft) SO 146 1 min 0,000 mm 3,7 UV-I 789 W/m 6,2 C 21,8 C 25,7 km/h (4 Bft) 93,75 %
12.04.2018 13:57 23,8 C 10,6 C 32 % 1001,0 hPa 0,0 l/m 15,2 km/h (3 Bft) S-SO 161 1 min 0,000 mm 3,5 UV-I 720 W/m 6,1 C 21,8 C 25,7 km/h (4 Bft) 100,00 %
12.04.2018 13:58 23,7 C 10,6 C 32 % 1001,0 hPa 0,0 l/m 12,1 km/h (2 Bft) S-SO 147 1 min 0,000 mm 3,5 UV-I 742 W/m 6,0 C 22,3 C 16,1 km/h (3 Bft) 100,00 %
12.04.2018 13:59 23,7 C 10,6 C 33 % 1001,0 hPa 0,0 l/m 13,5 km/h (3 Bft) S-SO 153 1 min 0,000 mm 3,4 UV-I 720 W/m 6,5 C 22,0 C 19,3 km/h (3 Bft) 92,59 %
12.04.2018 14:00 23,7 C 10,6 C 34 % 1001,0 hPa 0,0 l/m 15,4 km/h (3 Bft) SO 140 1 min 0,000 mm 3,2 UV-I 682 W/m 6,9 C 21,7 C 19,3 km/h (3 Bft) 100,00 %
12.04.2018 14:01 23,7 C 10,6 C 33 % 1001,1 hPa 0,0 l/m 19,9 km/h (4 Bft) S 179 1 min 0,508 mm 3,2 UV-I 667 W/m 6,5 C 21,0 C 25,7 km/h (4 Bft) 100,00 %
12.04.2018 14:02 23,7 C 10,6 C 34 % 1001,0 hPa 0,0 l/m 19,6 km/h (3 Bft) S-SO 163 1 min 0,000 mm 3,1 UV-I 640 W/m 6,9 C 21,0 C 29,0 km/h (5 Bft) 95,65 %
12.04.2018 14:03 23,6 C 10,6 C 33 % 1001,0 hPa 0,0 l/m 19,9 km/h (4 Bft) S 186 1 min 0,000 mm 3,0 UV-I 625 W/m 6,4 C 20,9 C 29,0 km/h (5 Bft) 100,00 %
12.04.2018 14:04 23,5 C 10,6 C 33 % 1001,0 hPa 0,0 l/m 16,2 km/h (3 Bft) S 173 1 min 0,000 mm 2,8 UV-I 563 W/m 6,3 C 21,3 C 24,1 km/h (4 Bft) 100,00 %
12.04.2018 14:05 23,5 C 10,6 C 34 % 1001,0 hPa 0,0 l/m 19,9 km/h (4 Bft) SO 136 1 min 0,000 mm 2,8 UV-I 560 W/m 6,7 C 20,7 C 29,0 km/h (5 Bft) 96,30 %
12.04.2018 14:06 23,4 C 10,6 C 32 % 1000,9 hPa 0,0 l/m 16,0 km/h (3 Bft) S-SO 167 1 min 0,000 mm 2,8 UV-I 560 W/m 5,8 C 21,2 C 25,7 km/h (4 Bft) 100,00 %
12.04.2018 14:07 23,3 C 10,6 C 33 % 1000,9 hPa 0,0 l/m 12,1 km/h (2 Bft) S-SW 205 1 min 0,000 mm 2,8 UV-I 558 W/m 6,1 C 21,8 C 16,1 km/h (3 Bft) 96,88 %
12.04.2018 14:08 23,3 C 10,6 C 34 % 1000,8 hPa 0,0 l/m 16,4 km/h (3 Bft) S 174 1 min 0,000 mm 2,7 UV-I 548 W/m 6,6 C 21,0 C 24,1 km/h (4 Bft) 95,65 %
12.04.2018 14:09 23,3 C 10,6 C 35 % 1000,9 hPa 0,0 l/m 14,1 km/h (3 Bft) S-SO 156 1 min 0,000 mm 2,6 UV-I 518 W/m 7,0 C 21,4 C 22,5 km/h (4 Bft) 100,00 %
12.04.2018 14:10 23,3 C 10,6 C 34 % 1000,8 hPa 0,0 l/m 13,0 km/h (3 Bft) S-SO 165 1 min 0,000 mm 2,4 UV-I 488 W/m 6,6 C 21,6 C 19,3 km/h (3 Bft) 100,00 %
12.04.2018 14:11 23,3 C 10,6 C 35 % 1000,9 hPa 0,0 l/m 24,5 km/h (4 Bft) S 170 1 min 0,000 mm 2,5 UV-I 506 W/m 7,0 C 19,9 C 35,4 km/h (5 Bft) 96,15 %
12.04.2018 14:12 23,2 C 10,6 C 33 % 1000,9 hPa 0,0 l/m 18,6 km/h (3 Bft) S-SO 150 1 min 0,000 mm 2,4 UV-I 483 W/m 6,0 C 20,5 C 25,7 km/h (4 Bft) 100,00 %
12.04.2018 14:13 23,1 C 10,6 C 33 % 1000,9 hPa 0,0 l/m 19,6 km/h (3 Bft) SO 134 1 min 0,000 mm 2,3 UV-I 448 W/m 5,9 C 20,3 C 33,8 km/h (5 Bft) 92,86 %
12.04.2018 14:14 22,9 C 10,6 C 34 % 1000,9 hPa 0,0 l/m 17,8 km/h (3 Bft) SO 142 1 min 0,000 mm 2,2 UV-I 425 W/m 6,2 C 20,3 C 30,6 km/h (5 Bft) 100,00 %
12.04.2018 14:15 22,9 C 10,6 C 34 % 1000,8 hPa 0,0 l/m 10,5 km/h (2 Bft) SO 128 1 min 0,000 mm 2,2 UV-I 413 W/m 6,2 C 21,7 C 17,7 km/h (3 Bft) 100,00 %
12.04.2018 14:16 22,8 C 10,6 C 35 % 1000,9 hPa 0,0 l/m 19,7 km/h (3 Bft) S-SO 160 0 min 0,000 mm 2,2 UV-I 398 W/m 6,5 C 19,9 C 24,1 km/h (4 Bft) 100,00 %
12.04.2018 14:17 22,8 C 10,6 C 34 % 1000,8 hPa 0,0 l/m 15,2 km/h (3 Bft) SO 128 0 min 0,000 mm 2,1 UV-I 383 W/m 6,1 C 20,6 C 22,5 km/h (4 Bft) 100,00 %
12.04.2018 14:18 22,7 C 10,6 C 35 % 1000,9 hPa 0,0 l/m 17,7 km/h (3 Bft) S-SO 158 0 min 0,000 mm 2,0 UV-I 366 W/m 6,4 C 20,0 C 24,1 km/h (4 Bft) 100,00 %
12.04.2018 14:19 22,7 C 10,6 C 35 % 1000,8 hPa 0,0 l/m 16,7 km/h (3 Bft) SO 128 0 min 0,000 mm 1,9 UV-I 356 W/m 6,4 C 20,2 C 19,3 km/h (3 Bft) 96,55 %
12.04.2018 14:20 22,6 C 10,6 C 36 % 1000,8 hPa 0,0 l/m 16,6 km/h (3 Bft) SO 144 0 min 0,000 mm 1,9 UV-I 347 W/m 6,8 C 20,1 C 27,4 km/h (4 Bft) 100,00 %
12.04.2018 14:21 22,6 C 10,6 C 35 % 1000,8 hPa 0,0 l/m 19,0 km/h (3 Bft) SO 140 0 min 0,000 mm 1,9 UV-I 341 W/m 6,4 C 19,7 C 27,4 km/h (4 Bft) 94,44 %
12.04.2018 14:22 22,5 C 10,6 C 35 % 1000,8 hPa 0,0 l/m 28,6 km/h (4 Bft) SO 139 0 min 0,000 mm 1,8 UV-I 339 W/m 6,3 C 18,4 C 35,4 km/h (5 Bft) 100,00 %
12.04.2018 14:23 22,4 C 10,6 C 34 % 1000,8 hPa 0,0 l/m 21,5 km/h (4 Bft) SO 146 0 min 0,000 mm 1,8 UV-I 339 W/m 5,8 C 19,1 C 33,8 km/h (5 Bft) 92,59 %
12.04.2018 14:24 22,4 C 10,6 C 36 % 1000,8 hPa 0,0 l/m 17,5 km/h (3 Bft) SO 127 0 min 0,000 mm 1,8 UV-I 340 W/m 6,6 C 19,7 C 22,5 km/h (4 Bft) 95,65 %
12.04.2018 14:25 22,4 C 10,6 C 35 % 1000,8 hPa 0,0 l/m 15,9 km/h (3 Bft) SO 131 0 min 0,000 mm 1,8 UV-I 344 W/m 6,2 C 20,0 C 24,1 km/h (4 Bft) 100,00 %
12.04.2018 14:26 22,3 C 10,6 C 35 % 1000,9 hPa 0,0 l/m 18,6 km/h (3 Bft) SO 146 0 min 0,000 mm 1,8 UV-I 347 W/m 6,1 C 19,4 C 24,1 km/h (4 Bft) 96,30 %
12.04.2018 14:27 22,3 C 10,6 C 36 % 1000,8 hPa 0,0 l/m 14,8 km/h (3 Bft) SO 143 0 min 0,000 mm 1,8 UV-I 355 W/m 6,5 C 20,1 C 22,5 km/h (4 Bft) 100,00 %
12.04.2018 14:28 22,3 C 10,6 C 35 % 1000,8 hPa 0,0 l/m 14,5 km/h (3 Bft) SO 130 0 min 0,000 mm 1,9 UV-I 364 W/m 6,1 C 20,1 C 19,3 km/h (3 Bft) 96,55 %
12.04.2018 14:29 22,3 C 10,6 C 37 % 1000,8 hPa 0,0 l/m 9,3 km/h (2 Bft) SO 132 0 min 0,000 mm 1,9 UV-I 395 W/m 6,9 C 21,4 C 16,1 km/h (3 Bft) 96,30 %
12.04.2018 14:30 22,3 C 10,6 C 36 % 1000,8 hPa 0,0 l/m 16,4 km/h (3 Bft) SO 139 1 min 0,000 mm 2,1 UV-I 431 W/m 6,5 C 19,8 C 25,7 km/h (4 Bft) 100,00 %
12.04.2018 14:31 22,3 C 10,6 C 37 % 1000,8 hPa 0,0 l/m 16,8 km/h (3 Bft) SO 138 1 min 0,000 mm 2,2 UV-I 455 W/m 6,9 C 19,7 C 33,8 km/h (5 Bft) 100,00 %
12.04.2018 14:32 22,3 C 10,6 C 37 % 1000,7 hPa 0,0 l/m 21,8 km/h (4 Bft) SO 129 1 min 0,000 mm 2,2 UV-I 465 W/m 6,9 C 18,9 C 30,6 km/h (5 Bft) 98,02 %
12.04.2018 14:33 22,4 C 10,6 C 36 % 1000,8 hPa 0,0 l/m 21,9 km/h (4 Bft) SO 134 1 min 0,000 mm 2,2 UV-I 465 W/m 6,6 C 19,0 C 32,2 km/h (5 Bft) 96,23 %
12.04.2018 14:34 22,4 C 10,0 C 37 % 1000,8 hPa 0,0 l/m 17,9 km/h (3 Bft) SO 144 1 min 0,000 mm 2,3 UV-I 465 W/m 7,0 C 19,6 C 25,7 km/h (4 Bft) 95,65 %
12.04.2018 14:35 22,4 C 10,6 C 36 % 1000,9 hPa 0,0 l/m 24,5 km/h (4 Bft) SO 145 1 min 0,000 mm 2,2 UV-I 455 W/m 6,6 C 18,7 C 32,2 km/h (5 Bft) 93,33 %
12.04.2018 14:36 22,4 C 10,6 C 35 % 1000,8 hPa 0,0 l/m 24,1 km/h (4 Bft) S-SO 148 1 min 0,000 mm 2,2 UV-I 454 W/m 6,2 C 18,7 C 32,2 km/h (5 Bft) 100,00 %
12.04.2018 14:37 22,4 C 10,6 C 36 % 1000,9 hPa 0,0 l/m 22,1 km/h (4 Bft) SO 128 1 min 0,000 mm 2,2 UV-I 438 W/m 6,6 C 19,0 C 30,6 km/h (5 Bft) 92,59 %
12.04.2018 14:38 22,4 C 10,6 C 35 % 1000,9 hPa 0,0 l/m 25,1 km/h (4 Bft) S-SO 163 1 min 0,000 mm 2,2 UV-I 425 W/m 6,2 C 18,6 C 35,4 km/h (5 Bft) 100,00 %
12.04.2018 14:39 22,4 C 10,6 C 37 % 1000,8 hPa 0,0 l/m 19,8 km/h (3 Bft) O-SO 117 1 min 0,000 mm 2,2 UV-I 419 W/m 7,0 C 19,3 C 29,0 km/h (5 Bft) 96,30 %
12.04.2018 14:40 22,3 C 10,6 C 37 % 1000,9 hPa 0,0 l/m 23,5 km/h (4 Bft) O-SO 123 1 min 0,000 mm 2,1 UV-I 406 W/m 6,9 C 18,7 C 33,8 km/h (5 Bft) 100,00 %
12.04.2018 14:41 22,3 C 10,6 C 37 % 1000,9 hPa 0,0 l/m 24,1 km/h (4 Bft) SO 136 1 min 0,000 mm 2,0 UV-I 395 W/m 6,9 C 18,6 C 33,8 km/h (5 Bft) 92,59 %
12.04.2018 14:43 22,3 C 10,6 C 37 % 1000,9 hPa 0,0 l/m 18,7 km/h (3 Bft) S-SO 166 0 min 0,000 mm 2,0 UV-I 368 W/m 6,9 C 19,4 C 27,4 km/h (4 Bft) 98,00 %
12.04.2018 14:44 22,3 C 10,6 C 36 % 1000,9 hPa 0,0 l/m 23,6 km/h (4 Bft) S 187 0 min 0,000 mm 1,9 UV-I 346 W/m 6,5 C 18,7 C 29,0 km/h (5 Bft) 95,24 %
12.04.2018 14:45 22,3 C 10,6 C 36 % 1000,9 hPa 0,0 l/m 21,3 km/h (4 Bft) S 182 0 min 0,000 mm 1,8 UV-I 342 W/m 6,5 C 19,0 C 30,6 km/h (5 Bft) 100,00 %
12.04.2018 14:46 22,3 C 10,6 C 36 % 1000,9 hPa 0,0 l/m 19,9 km/h (4 Bft) SO 145 0 min 0,000 mm 1,8 UV-I 339 W/m 6,5 C 19,2 C 30,6 km/h (5 Bft) 91,30 %
12.04.2018 14:47 22,2 C 10,6 C 38 % 1000,9 hPa 0,0 l/m 15,0 km/h (3 Bft) SO 137 0 min 0,000 mm 1,8 UV-I 342 W/m 7,2 C 19,9 C 24,1 km/h (4 Bft) 100,00 %
12.04.2018 14:48 22,2 C 10,6 C 38 % 1000,9 hPa 0,0 l/m 17,7 km/h (3 Bft) SO 142 0 min 0,000 mm 1,8 UV-I 347 W/m 7,2 C 19,4 C 25,7 km/h (4 Bft) 96,30 %
12.04.2018 14:49 22,2 C 10,6 C 39 % 1000,9 hPa 0,0 l/m 16,4 km/h (3 Bft) SO 138 0 min 0,000 mm 1,8 UV-I 354 W/m 7,6 C 19,6 C 22,5 km/h (4 Bft) 97,98 %
12.04.2018 14:50 22,3 C 10,6 C 39 % 1000,9 hPa 0,0 l/m 14,8 km/h (3 Bft) SO 145 0 min 0,000 mm 1,8 UV-I 364 W/m 7,7 C 20,1 C 19,3 km/h (3 Bft) 97,87 %
12.04.2018 14:51 22,2 C 10,6 C 39 % 1000,9 hPa 0,0 l/m 16,7 km/h (3 Bft) SO 139 0 min 0,000 mm 1,9 UV-I 375 W/m 7,6 C 19,6 C 22,5 km/h (4 Bft) 100,00 %
12.04.2018 14:52 22,2 C 10,6 C 37 % 1000,8 hPa 0,0 l/m 17,1 km/h (3 Bft) SO 138 0 min 0,000 mm 1,9 UV-I 382 W/m 6,8 C 19,5 C 22,5 km/h (4 Bft) 93,33 %
12.04.2018 14:53 22,2 C 10,6 C 37 % 1000,9 hPa 0,0 l/m 18,0 km/h (3 Bft) S 178 0 min 0,000 mm 1,9 UV-I 380 W/m 6,8 C 19,4 C 24,1 km/h (4 Bft) 100,00 %
12.04.2018 14:54 22,2 C 10,6 C 37 % 1000,9 hPa 0,0 l/m 19,3 km/h (3 Bft) O-SO 118 0 min 0,000 mm 1,9 UV-I 372 W/m 6,8 C 19,2 C 24,1 km/h (4 Bft) 96,67 %
12.04.2018 14:55 22,2 C 10,6 C 38 % 1000,9 hPa 0,0 l/m 16,1 km/h (3 Bft) SO 143 0 min 0,000 mm 1,8 UV-I 363 W/m 7,2 C 19,7 C 19,3 km/h (3 Bft) 97,14 %
12.04.2018 14:56 22,1 C 10,6 C 38 % 1000,8 hPa 0,0 l/m 15,4 km/h (3 Bft) S 179 0 min 0,000 mm 1,8 UV-I 352 W/m 7,1 C 19,7 C 19,3 km/h (3 Bft) 100,00 %
12.04.2018 14:57 22,2 C 10,6 C 38 % 1000,8 hPa 0,0 l/m 15,9 km/h (3 Bft) S-SO 153 0 min 0,000 mm 1,8 UV-I 348 W/m 7,2 C 19,7 C 22,5 km/h (4 Bft) 97,97 %
12.04.2018 14:58 22,2 C 10,6 C 39 % 1000,8 hPa 0,0 l/m 16,3 km/h (3 Bft) S-SO 149 0 min 0,000 mm 1,8 UV-I 342 W/m 7,6 C 19,7 C 25,7 km/h (4 Bft) 97,56 %
12.04.2018 14:59 22,2 C 10,6 C 39 % 1000,8 hPa 0,0 l/m 19,4 km/h (3 Bft) SO 146 0 min 0,000 mm 1,7 UV-I 334 W/m 7,6 C 19,1 C 25,7 km/h (4 Bft) 96,15 %
12.04.2018 15:00 22,1 C 10,6 C 38 % 1000,8 hPa 0,0 l/m 18,6 km/h (3 Bft) SO 134 0 min 0,000 mm 1,7 UV-I 329 W/m 7,1 C 19,1 C 24,1 km/h (4 Bft) 100,00 %
12.04.2018 15:01 22,1 C 10,6 C 38 % 1000,8 hPa 0,0 l/m 15,3 km/h (3 Bft) S-SO 148 0 min 0,432 mm 1,6 UV-I 327 W/m 7,1 C 19,7 C 19,3 km/h (3 Bft) 96,55 %
12.04.2018 15:02 22,1 C 10,6 C 39 % 1000,8 hPa 0,0 l/m 18,5 km/h (3 Bft) S-SO 150 0 min 0,000 mm 1,6 UV-I 322 W/m 7,5 C 19,2 C 25,7 km/h (4 Bft) 100,00 %
12.04.2018 15:03 22,1 C 10,6 C 39 % 1000,7 hPa 0,0 l/m 18,3 km/h (3 Bft) S-SO 167 0 min 0,000 mm 1,6 UV-I 319 W/m 7,5 C 19,2 C 22,5 km/h (4 Bft) 91,67 %
12.04.2018 15:04 22,1 C 10,6 C 37 % 1000,8 hPa 0,0 l/m 23,6 km/h (4 Bft) S-SO 163 0 min 0,000 mm 1,6 UV-I 317 W/m 6,7 C 18,4 C 29,0 km/h (5 Bft) 97,14 %
12.04.2018 15:05 22,1 C 10,6 C 38 % 1000,7 hPa 0,0 l/m 21,6 km/h (4 Bft) SO 133 0 min 0,000 mm 1,6 UV-I 318 W/m 7,1 C 18,7 C 27,4 km/h (4 Bft) 91,67 %
12.04.2018 15:10 21,8 C 10,6 C 37 % 1000,7 hPa 0,0 l/m 25,4 km/h (4 Bft) SO 142 0 min 0,000 mm 1,5 UV-I 312 W/m 6,5 C 17,8 C 30,6 km/h (5 Bft) 96,97 %
12.04.2018 15:11 21,7 C 10,6 C 37 % 1000,7 hPa 0,0 l/m 21,8 km/h (4 Bft) SO 140 0 min 0,000 mm 1,4 UV-I 308 W/m 6,4 C 18,1 C 29,0 km/h (5 Bft) 100,00 %
12.04.2018 15:12 21,7 C 10,6 C 38 % 1000,6 hPa 0,0 l/m 20,2 km/h (4 Bft) O-SO 117 0 min 0,000 mm 1,4 UV-I 308 W/m 6,8 C 18,4 C 25,7 km/h (4 Bft) 92,31 %
12.04.2018 15:13 21,7 C 10,6 C 38 % 1000,6 hPa 0,0 l/m 20,1 km/h (4 Bft) S-SO 159 0 min 0,000 mm 1,4 UV-I 304 W/m 6,8 C 18,4 C 27,4 km/h (4 Bft) 96,30 %
12.04.2018 15:14 21,7 C 10,6 C 39 % 1000,6 hPa 0,0 l/m 20,4 km/h (4 Bft) S-SO 157 0 min 0,000 mm 1,4 UV-I 305 W/m 7,1 C 18,3 C 29,0 km/h (5 Bft) 85,71 %
12.04.2018 15:15 21,7 C 10,6 C 38 % 1000,6 hPa 0,0 l/m 22,7 km/h (4 Bft) SO 135 0 min 0,000 mm 1,4 UV-I 308 W/m 6,8 C 18,0 C 29,0 km/h (5 Bft) 100,00 %
12.04.2018 15:16 21,7 C 10,6 C 39 % 1000,5 hPa 0,0 l/m 18,2 km/h (3 Bft) S 175 0 min 0,000 mm 1,4 UV-I 310 W/m 7,1 C 18,7 C 27,4 km/h (4 Bft) 91,30 %
12.04.2018 15:18 21,7 C 10,6 C 38 % 1000,6 hPa 0,0 l/m 18,9 km/h (3 Bft) SO 140 0 min 0,000 mm 1,5 UV-I 321 W/m 6,8 C 18,6 C 30,6 km/h (5 Bft) 96,23 %
12.04.2018 15:19 21,7 C 10,6 C 38 % 1000,6 hPa 0,0 l/m 17,3 km/h (3 Bft) S-SW 204 0 min 0,000 mm 1,5 UV-I 326 W/m 6,8 C 18,9 C 24,1 km/h (4 Bft) 86,67 %
12.04.2018 15:20 21,7 C 10,6 C 38 % 1000,6 hPa 0,0 l/m 22,6 km/h (4 Bft) SO 140 0 min 0,000 mm 1,5 UV-I 333 W/m 6,8 C 18,0 C 29,0 km/h (5 Bft) 100,00 %
12.04.2018 15:21 21,7 C 10,6 C 38 % 1000,5 hPa 0,0 l/m 24,9 km/h (4 Bft) S-SO 161 0 min 0,000 mm 1,5 UV-I 331 W/m 6,8 C 17,7 C 33,8 km/h (5 Bft) 91,67 %
12.04.2018 15:22 21,7 C 10,6 C 39 % 1000,5 hPa 0,0 l/m 21,1 km/h (4 Bft) SO 134 0 min 0,000 mm 1,5 UV-I 329 W/m 7,1 C 18,2 C 29,0 km/h (5 Bft) 96,15 %
12.04.2018 15:23 21,7 C 10,6 C 39 % 1000,5 hPa 0,0 l/m 21,9 km/h (4 Bft) SO 132 0 min 0,000 mm 1,5 UV-I 330 W/m 7,1 C 18,1 C 32,2 km/h (5 Bft) 83,33 %
12.04.2018 15:24 21,7 C 10,6 C 39 % 1000,4 hPa 0,0 l/m 23,4 km/h (4 Bft) SO 142 0 min 0,000 mm 1,5 UV-I 324 W/m 7,1 C 17,9 C 29,0 km/h (5 Bft) 100,00 %
12.04.2018 15:25 21,6 C 10,6 C 39 % 1000,4 hPa 0,0 l/m 22,9 km/h (4 Bft) SO 140 0 min 0,000 mm 1,5 UV-I 324 W/m 7,0 C 17,8 C 32,2 km/h (5 Bft) 95,65 %
12.04.2018 15:26 21,7 C 10,6 C 39 % 1000,4 hPa 0,0 l/m 17,6 km/h (3 Bft) SO 140 0 min 0,000 mm 1,5 UV-I 334 W/m 7,1 C 18,8 C 25,7 km/h (4 Bft) 100,00 %
12.04.2018 15:27 21,7 C 10,6 C 39 % 1000,4 hPa 0,0 l/m 18,0 km/h (3 Bft) O-SO 114 0 min 0,000 mm 1,5 UV-I 356 W/m 7,1 C 18,7 C 24,1 km/h (4 Bft) 96,15 %
12.04.2018 15:28 21,7 C 10,6 C 39 % 1000,4 hPa 0,0 l/m 26,9 km/h (4 Bft) SO 135 1 min 0,000 mm 1,6 UV-I 385 W/m 7,1 C 17,5 C 35,4 km/h (5 Bft) 92,59 %
12.04.2018 15:29 21,7 C 10,6 C 39 % 1000,4 hPa 0,0 l/m 22,8 km/h (4 Bft) O-SO 105 1 min 0,000 mm 1,7 UV-I 415 W/m 7,1 C 18,0 C 30,6 km/h (5 Bft) 100,00 %
12.04.2018 15:30 21,7 C 10,6 C 38 % 1000,3 hPa 0,0 l/m 29,3 km/h (5 Bft) SO 134 1 min 0,000 mm 1,7 UV-I 411 W/m 6,8 C 17,2 C 37,0 km/h (5 Bft) 94,44 %
12.04.2018 15:31 21,7 C 10,6 C 39 % 1000,4 hPa 0,0 l/m 26,3 km/h (4 Bft) SO 139 1 min 0,000 mm 1,7 UV-I 394 W/m 7,1 C 17,5 C 35,4 km/h (5 Bft) 96,30 %
12.04.2018 15:32 21,7 C 10,6 C 39 % 1000,3 hPa 0,0 l/m 30,2 km/h (5 Bft) O-SO 123 1 min 0,000 mm 1,7 UV-I 419 W/m 7,1 C 17,1 C 38,6 km/h (5 Bft) 96,15 %
12.04.2018 15:33 21,7 C 10,6 C 38 % 1000,3 hPa 0,0 l/m 24,8 km/h (4 Bft) SO 126 1 min 0,000 mm 1,8 UV-I 436 W/m 6,8 C 17,7 C 30,6 km/h (5 Bft) 100,00 %
12.04.2018 15:34 21,7 C 10,6 C 38 % 1000,3 hPa 0,0 l/m 23,3 km/h (4 Bft) O-SO 112 1 min 0,000 mm 1,8 UV-I 449 W/m 6,8 C 17,9 C 32,2 km/h (5 Bft) 96,15 %
12.04.2018 15:35 21,7 C 10,6 C 38 % 1000,3 hPa 0,0 l/m 24,5 km/h (4 Bft) SO 139 1 min 0,000 mm 1,9 UV-I 460 W/m 6,8 C 17,8 C 37,0 km/h (5 Bft) 96,97 %
12.04.2018 15:36 21,7 C 10,6 C 38 % 1000,3 hPa 0,0 l/m 21,7 km/h (4 Bft) SO 143 1 min 0,000 mm 1,9 UV-I 473 W/m 6,8 C 18,1 C 30,6 km/h (5 Bft) 100,00 %
12.04.2018 15:37 21,7 C 10,6 C 38 % 1000,3 hPa 0,0 l/m 23,8 km/h (4 Bft) O-SO 107 1 min 0,000 mm 1,9 UV-I 476 W/m 6,8 C 17,8 C 29,0 km/h (5 Bft) 91,67 %
12.04.2018 15:38 21,8 C 10,6 C 40 % 1000,3 hPa 0,0 l/m 22,9 km/h (4 Bft) O-SO 123 1 min 0,000 mm 1,9 UV-I 468 W/m 7,6 C 18,1 C 29,0 km/h (5 Bft) 97,14 %
12.04.2018 15:39 21,8 C 10,6 C 39 % 1000,3 hPa 0,0 l/m 16,5 km/h (3 Bft) S-SO 153 1 min 0,000 mm 1,9 UV-I 469 W/m 7,2 C 19,1 C 20,9 km/h (4 Bft) 91,67 %
12.04.2018 15:40 21,9 C 10,6 C 38 % 1000,2 hPa 0,0 l/m 19,7 km/h (3 Bft) S-SO 162 1 min 0,000 mm 1,9 UV-I 479 W/m 6,9 C 18,7 C 32,2 km/h (5 Bft) 96,15 %
12.04.2018 15:41 21,9 C 10,6 C 38 % 1000,3 hPa 0,0 l/m 24,7 km/h (4 Bft) SO 139 1 min 0,000 mm 1,9 UV-I 519 W/m 6,9 C 18,0 C 29,0 km/h (5 Bft) 96,30 %
12.04.2018 15:42 22,1 C 10,6 C 39 % 1000,3 hPa 0,0 l/m 15,7 km/h (3 Bft) SO 146 1 min 0,000 mm 1,9 UV-I 508 W/m 7,5 C 19,7 C 24,1 km/h (4 Bft) 96,55 %
12.04.2018 15:43 22,1 C 10,6 C 38 % 1000,3 hPa 0,0 l/m 21,7 km/h (4 Bft) SO 138 1 min 0,000 mm 1,8 UV-I 429 W/m 7,1 C 18,7 C 27,4 km/h (4 Bft) 100,00 %
12.04.2018 15:44 22,1 C 10,6 C 38 % 1000,3 hPa 0,0 l/m 25,4 km/h (4 Bft) SO 134 1 min 0,000 mm 1,7 UV-I 384 W/m 7,1 C 18,2 C 32,2 km/h (5 Bft) 100,00 %
12.04.2018 15:45 22,1 C 10,6 C 37 % 1000,3 hPa 0,0 l/m 24,9 km/h (4 Bft) S-SO 165 1 min 0,000 mm 1,6 UV-I 365 W/m 6,7 C 18,2 C 32,2 km/h (5 Bft) 100,00 %
12.04.2018 15:46 22,0 C 10,6 C 38 % 1000,3 hPa 0,0 l/m 17,0 km/h (3 Bft) S-SO 157 1 min 0,000 mm 1,5 UV-I 344 W/m 7,0 C 19,3 C 24,1 km/h (4 Bft) 95,83 %
12.04.2018 15:47 21,9 C 10,6 C 39 % 1000,3 hPa 0,0 l/m 14,0 km/h (3 Bft) SO 142 0 min 0,000 mm 1,4 UV-I 325 W/m 7,3 C 19,8 C 19,3 km/h (3 Bft) 100,00 %
12.04.2018 15:48 21,9 C 10,6 C 39 % 1000,3 hPa 0,0 l/m 14,7 km/h (3 Bft) S 177 0 min 0,000 mm 1,4 UV-I 321 W/m 7,3 C 19,6 C 20,9 km/h (4 Bft) 100,00 %
12.04.2018 15:49 21,8 C 10,6 C 39 % 1000,3 hPa 0,0 l/m 14,5 km/h (3 Bft) SO 130 1 min 0,000 mm 1,4 UV-I 358 W/m 7,2 C 19,5 C 22,5 km/h (4 Bft) 100,00 %
12.04.2018 15:50 21,8 C 10,6 C 40 % 1000,2 hPa 0,0 l/m 14,8 km/h (3 Bft) S-SO 163 1 min 0,000 mm 1,4 UV-I 338 W/m 7,6 C 19,5 C 22,5 km/h (4 Bft) 100,00 %
12.04.2018 15:51 21,8 C 10,6 C 40 % 1000,2 hPa 0,0 l/m 9,6 km/h (2 Bft) SO 144 1 min 0,000 mm 1,4 UV-I 334 W/m 7,6 C 20,7 C 14,5 km/h (3 Bft) 96,15 %
12.04.2018 15:52 21,9 C 10,6 C 40 % 1000,3 hPa 0,0 l/m 13,0 km/h (3 Bft) S-SO 147 0 min 0,000 mm 1,3 UV-I 311 W/m 7,7 C 20,0 C 19,3 km/h (3 Bft) 100,00 %
12.04.2018 15:53 21,8 C 10,6 C 40 % 1000,2 hPa 0,0 l/m 20,4 km/h (4 Bft) SO 137 0 min 0,000 mm 1,3 UV-I 301 W/m 7,6 C 18,5 C 24,1 km/h (4 Bft) 96,15 %
12.04.2018 15:54 21,8 C 10,6 C 39 % 1000,3 hPa 0,0 l/m 22,0 km/h (4 Bft) SO 134 0 min 0,000 mm 1,3 UV-I 301 W/m 7,2 C 18,2 C 30,6 km/h (5 Bft) 100,00 %
12.04.2018 15:55 21,7 C 10,6 C 39 % 1000,2 hPa 0,0 l/m 21,4 km/h (4 Bft) SO 131 1 min 0,000 mm 1,3 UV-I 330 W/m 7,1 C 18,2 C 29,0 km/h (5 Bft) 95,65 %
12.04.2018 15:56 21,7 C 10,6 C 39 % 1000,2 hPa 0,0 l/m 17,8 km/h (3 Bft) S-SO 165 1 min 0,000 mm 1,3 UV-I 330 W/m 7,1 C 18,8 C 27,4 km/h (4 Bft) 100,00 %
12.04.2018 15:57 21,7 C 10,6 C 39 % 1000,3 hPa 0,0 l/m 22,5 km/h (4 Bft) SO 145 0 min 0,000 mm 1,3 UV-I 309 W/m 7,1 C 18,0 C 30,6 km/h (5 Bft) 100,00 %
12.04.2018 15:58 21,6 C 10,6 C 40 % 1000,2 hPa 0,0 l/m 21,0 km/h (4 Bft) SO 142 0 min 0,000 mm 1,3 UV-I 313 W/m 7,4 C 18,1 C 30,6 km/h (5 Bft) 100,00 %
12.04.2018 15:59 21,6 C 10,6 C 41 % 1000,2 hPa 0,0 l/m 20,5 km/h (4 Bft) S-SO 165 1 min 0,000 mm 1,3 UV-I 340 W/m 7,8 C 18,2 C 27,4 km/h (4 Bft) 100,00 %
12.04.2018 16:00 21,6 C 10,6 C 40 % 1000,2 hPa 0,0 l/m 19,9 km/h (4 Bft) SO 145 1 min 0,000 mm 1,3 UV-I 325 W/m 7,4 C 18,3 C 24,1 km/h (4 Bft) 100,00 %
12.04.2018 16:02 21,6 C 10,6 C 40 % 1000,2 hPa 0,0 l/m 18,7 km/h (3 Bft) SO 125 2 min 0,406 mm 1,5 UV-I 416 W/m 7,4 C 18,5 C 27,4 km/h (4 Bft) 98,31 %
12.04.2018 16:03 21,7 C 10,6 C 41 % 1000,2 hPa 0,0 l/m 10,8 km/h (2 Bft) S-SO 161 1 min 0,000 mm 1,5 UV-I 437 W/m 7,9 C 20,3 C 17,7 km/h (3 Bft) 100,00 %
12.04.2018 16:04 21,7 C 10,6 C 41 % 1000,2 hPa 0,0 l/m 14,8 km/h (3 Bft) S 174 1 min 0,000 mm 1,5 UV-I 423 W/m 7,9 C 19,4 C 24,1 km/h (4 Bft) 96,15 %
12.04.2018 16:05 21,8 C 10,6 C 40 % 1000,2 hPa 0,0 l/m 18,3 km/h (3 Bft) SO 144 1 min 0,000 mm 1,4 UV-I 401 W/m 7,6 C 18,8 C 30,6 km/h (5 Bft) 100,00 %
12.04.2018 16:06 21,8 C 10,6 C 39 % 1000,2 hPa 0,0 l/m 19,3 km/h (3 Bft) S-SO 163 1 min 0,000 mm 1,4 UV-I 381 W/m 7,2 C 18,6 C 27,4 km/h (4 Bft) 100,00 %
12.04.2018 16:07 21,8 C 10,6 C 40 % 1000,2 hPa 0,0 l/m 21,4 km/h (4 Bft) SO 146 1 min 0,000 mm 1,3 UV-I 357 W/m 7,6 C 18,3 C 29,0 km/h (5 Bft) 100,00 %
12.04.2018 16:09 21,7 C 10,6 C 40 % 1000,2 hPa 0,0 l/m 21,8 km/h (4 Bft) S-SO 166 2 min 0,000 mm 1,3 UV-I 331 W/m 7,5 C 18,1 C 29,0 km/h (5 Bft) 100,00 %
12.04.2018 16:10 21,7 C 10,6 C 39 % 1000,2 hPa 0,0 l/m 21,1 km/h (4 Bft) S-SO 148 0 min 0,000 mm 1,3 UV-I 309 W/m 7,1 C 18,2 C 29,0 km/h (5 Bft) 100,00 %
12.04.2018 16:11 21,7 C 10,6 C 40 % 1000,2 hPa 0,0 l/m 21,7 km/h (4 Bft) S-SO 156 0 min 0,000 mm 1,3 UV-I 305 W/m 7,5 C 18,1 C 29,0 km/h (5 Bft) 96,30 %
12.04.2018 16:12 21,7 C 10,6 C 40 % 1000,2 hPa 0,0 l/m 11,4 km/h (2 Bft) SO 128 0 min 0,000 mm 1,2 UV-I 291 W/m 7,5 C 20,1 C 17,7 km/h (3 Bft) 95,65 %
12.04.2018 16:13 21,7 C 10,6 C 41 % 1000,2 hPa 0,0 l/m 18,8 km/h (3 Bft) SO 134 0 min 0,000 mm 1,2 UV-I 288 W/m 7,9 C 18,6 C 24,1 km/h (4 Bft) 97,90 %
12.04.2018 16:14 21,6 C 10,6 C 40 % 1000,2 hPa 0,0 l/m 19,3 km/h (3 Bft) S 175 0 min 0,000 mm 1,2 UV-I 282 W/m 7,4 C 18,4 C 24,1 km/h (4 Bft) 96,00 %
12.04.2018 16:15 21,6 C 10,6 C 40 % 1000,2 hPa 0,0 l/m 15,3 km/h (3 Bft) S-SO 166 0 min 0,000 mm 1,2 UV-I 282 W/m 7,4 C 19,1 C 22,5 km/h (4 Bft) 100,00 %
12.04.2018 16:16 21,6 C 10,6 C 40 % 1000,2 hPa 0,0 l/m 16,9 km/h (3 Bft) SO 129 0 min 0,000 mm 1,2 UV-I 287 W/m 7,4 C 18,8 C 25,7 km/h (4 Bft) 100,00 %
12.04.2018 16:17 21,6 C 10,6 C 39 % 1000,2 hPa 0,0 l/m 24,3 km/h (4 Bft) O-SO 105 1 min 0,000 mm 1,2 UV-I 310 W/m 7,0 C 17,6 C 30,6 km/h (5 Bft) 93,33 %
12.04.2018 16:18 21,6 C 10,6 C 40 % 1000,3 hPa 0,0 l/m 19,9 km/h (4 Bft) SO 126 1 min 0,000 mm 1,3 UV-I 343 W/m 7,4 C 18,3 C 24,1 km/h (4 Bft) 100,00 %
12.04.2018 16:19 21,6 C 10,6 C 40 % 1000,2 hPa 0,0 l/m 19,6 km/h (3 Bft) SO 132 1 min 0,000 mm 1,3 UV-I 380 W/m 7,4 C 18,3 C 22,5 km/h (4 Bft) 100,00 %
12.04.2018 16:20 21,6 C 10,6 C 39 % 1000,2 hPa 0,0 l/m 17,2 km/h (3 Bft) SO 144 1 min 0,000 mm 1,3 UV-I 373 W/m 7,0 C 18,8 C 24,1 km/h (4 Bft) 100,00 %
12.04.2018 16:21 21,6 C 10,6 C 40 % 1000,2 hPa 0,0 l/m 16,3 km/h (3 Bft) S-SO 163 1 min 0,000 mm 1,3 UV-I 347 W/m 7,4 C 18,9 C 20,9 km/h (4 Bft) 100,00 %
12.04.2018 16:22 21,6 C 10,6 C 41 % 1000,2 hPa 0,0 l/m 18,2 km/h (3 Bft) SO 125 1 min 0,000 mm 1,2 UV-I 330 W/m 7,8 C 18,6 C 25,7 km/h (4 Bft) 100,00 %
12.04.2018 16:23 21,6 C 10,6 C 41 % 1000,1 hPa 0,0 l/m 17,5 km/h (3 Bft) SO 141 1 min 0,000 mm 1,2 UV-I 312 W/m 7,8 C 18,7 C 25,7 km/h (4 Bft) 96,15 %
12.04.2018 16:24 21,7 C 10,6 C 41 % 1000,2 hPa 0,0 l/m 20,2 km/h (4 Bft) SO 140 0 min 0,000 mm 1,2 UV-I 261 W/m 7,9 C 18,4 C 29,0 km/h (5 Bft) 100,00 %
12.04.2018 16:25 21,6 C 10,6 C 40 % 1000,2 hPa 0,0 l/m 22,8 km/h (4 Bft) O-SO 117 0 min 0,000 mm 1,1 UV-I 225 W/m 7,4 C 17,8 C 29,0 km/h (5 Bft) 100,00 %
12.04.2018 16:26 21,6 C 10,6 C 41 % 1000,1 hPa 0,0 l/m 18,7 km/h (3 Bft) SO 124 0 min 0,000 mm 1,0 UV-I 207 W/m 7,8 C 18,5 C 24,1 km/h (4 Bft) 100,00 %
12.04.2018 16:27 21,4 C 10,6 C 40 % 1000,2 hPa 0,0 l/m 21,6 km/h (4 Bft) S-SO 147 0 min 0,000 mm 1,0 UV-I 195 W/m 7,2 C 17,8 C 25,7 km/h (4 Bft) 100,00 %
12.04.2018 16:28 21,4 C 10,6 C 39 % 1000,1 hPa 0,0 l/m 25,0 km/h (4 Bft) SO 145 0 min 0,000 mm 0,9 UV-I 187 W/m 6,9 C 17,3 C 32,2 km/h (5 Bft) 100,00 %
12.04.2018 16:29 21,3 C 10,6 C 39 % 1000,2 hPa 0,0 l/m 23,0 km/h (4 Bft) SO 124 0 min 0,000 mm 0,9 UV-I 181 W/m 6,8 C 17,4 C 27,4 km/h (4 Bft) 97,92 %
12.04.2018 16:30 21,3 C 10,6 C 39 % 1000,2 hPa 0,0 l/m 19,7 km/h (3 Bft) S-SO 154 0 min 0,000 mm 0,9 UV-I 177 W/m 6,8 C 17,9 C 27,4 km/h (4 Bft) 100,00 %
12.04.2018 16:31 21,2 C 10,6 C 40 % 1000,2 hPa 0,0 l/m 18,5 km/h (3 Bft) SO 142 0 min 0,000 mm 0,9 UV-I 175 W/m 7,1 C 18,0 C 25,7 km/h (4 Bft) 96,30 %
12.04.2018 16:32 21,2 C 10,6 C 41 % 1000,3 hPa 0,0 l/m 15,0 km/h (3 Bft) S-SO 159 0 min 0,000 mm 0,8 UV-I 172 W/m 7,4 C 18,7 C 19,3 km/h (3 Bft) 100,00 %
12.04.2018 16:33 21,2 C 10,6 C 42 % 1000,3 hPa 0,0 l/m 14,5 km/h (3 Bft) S 171 0 min 0,000 mm 0,8 UV-I 168 W/m 7,8 C 18,8 C 20,9 km/h (4 Bft) 100,00 %
12.04.2018 16:34 21,1 C 10,6 C 42 % 1000,4 hPa 0,0 l/m 10,0 km/h (2 Bft) S-SO 156 0 min 0,000 mm 0,8 UV-I 165 W/m 7,7 C 19,9 C 16,1 km/h (3 Bft) 96,15 %
12.04.2018 16:35 21,1 C 10,6 C 42 % 1000,4 hPa 0,0 l/m 8,8 km/h (2 Bft) S-SO 163 0 min 0,000 mm 0,8 UV-I 165 W/m 7,7 C 20,2 C 12,9 km/h (3 Bft) 96,30 %
12.04.2018 16:36 21,1 C 10,6 C 42 % 1000,4 hPa 0,0 l/m 13,3 km/h (3 Bft) SO 128 0 min 0,000 mm 0,8 UV-I 166 W/m 7,7 C 19,0 C 24,1 km/h (4 Bft) 92,86 %
12.04.2018 16:37 21,0 C 10,6 C 42 % 1000,5 hPa 0,0 l/m 17,8 km/h (3 Bft) SO 142 0 min 0,000 mm 0,7 UV-I 166 W/m 7,6 C 17,9 C 24,1 km/h (4 Bft) 100,00 %
12.04.2018 16:38 20,9 C 10,6 C 42 % 1000,4 hPa 0,0 l/m 18,8 km/h (3 Bft) SO 130 0 min 0,000 mm 0,7 UV-I 162 W/m 7,5 C 17,6 C 25,7 km/h (4 Bft) 100,00 %
12.04.2018 16:39 20,9 C 10,6 C 41 % 1000,4 hPa 0,0 l/m 23,2 km/h (4 Bft) SO 131 0 min 0,000 mm 0,7 UV-I 160 W/m 7,2 C 16,9 C 29,0 km/h (5 Bft) 100,00 %
12.04.2018 16:40 20,9 C 10,6 C 41 % 1000,4 hPa 0,0 l/m 18,2 km/h (3 Bft) O-SO 109 0 min 0,000 mm 0,7 UV-I 160 W/m 7,2 C 17,7 C 29,0 km/h (5 Bft) 100,00 %
12.04.2018 16:41 20,8 C 10,6 C 41 % 1000,5 hPa 0,0 l/m 13,7 km/h (3 Bft) SO 129 0 min 0,000 mm 0,7 UV-I 160 W/m 7,1 C 18,5 C 20,9 km/h (4 Bft) 96,67 %
12.04.2018 16:42 20,8 C 10,6 C 42 % 1000,5 hPa 0,0 l/m 22,0 km/h (4 Bft) SO 132 0 min 0,000 mm 0,7 UV-I 163 W/m 7,4 C 16,9 C 27,4 km/h (4 Bft) 100,00 %
12.04.2018 16:43 20,8 C 10,6 C 41 % 1000,5 hPa 0,0 l/m 11,6 km/h (2 Bft) O-SO 119 0 min 0,000 mm 0,7 UV-I 170 W/m 7,1 C 19,1 C 17,7 km/h (3 Bft) 96,15 %
12.04.2018 16:44 20,8 C 10,6 C 42 % 1000,5 hPa 0,0 l/m 14,5 km/h (3 Bft) O-SO 113 0 min 0,000 mm 0,7 UV-I 175 W/m 7,4 C 18,3 C 22,5 km/h (4 Bft) 95,83 %
12.04.2018 16:45 20,7 C 10,6 C 43 % 1000,5 hPa 0,0 l/m 16,3 km/h (3 Bft) O-SO 106 0 min 0,000 mm 0,7 UV-I 178 W/m 7,7 C 17,8 C 25,7 km/h (4 Bft) 100,00 %
12.04.2018 16:46 20,7 C 10,6 C 42 % 1000,5 hPa 0,0 l/m 16,7 km/h (3 Bft) O-SO 122 0 min 0,000 mm 0,7 UV-I 181 W/m 7,3 C 17,7 C 22,5 km/h (4 Bft) 100,00 %
12.04.2018 16:47 20,7 C 10,6 C 43 % 1000,4 hPa 0,0 l/m 13,4 km/h (3 Bft) O-SO 117 0 min 0,000 mm 0,7 UV-I 180 W/m 7,7 C 18,5 C 24,1 km/h (4 Bft) 100,00 %
12.04.2018 16:48 20,6 C 10,6 C 43 % 1000,4 hPa 0,0 l/m 13,5 km/h (3 Bft) O-SO 123 0 min 0,000 mm 0,7 UV-I 177 W/m 7,6 C 18,3 C 19,3 km/h (3 Bft) 100,00 %
12.04.2018 16:49 20,6 C 10,6 C 43 % 1000,4 hPa 0,0 l/m 21,6 km/h (4 Bft) O-SO 106 0 min 0,000 mm 0,7 UV-I 174 W/m 7,6 C 16,7 C 32,2 km/h (5 Bft) 100,00 %
12.04.2018 16:50 20,6 C 10,6 C 43 % 1000,4 hPa 0,0 l/m 24,1 km/h (4 Bft) S-SO 149 0 min 0,000 mm 0,7 UV-I 170 W/m 7,6 C 16,3 C 30,6 km/h (5 Bft) 100,00 %
12.04.2018 16:51 20,5 C 10,6 C 43 % 1000,3 hPa 0,0 l/m 20,3 km/h (4 Bft) SO 126 0 min 0,000 mm 0,7 UV-I 168 W/m 7,5 C 16,8 C 32,2 km/h (5 Bft) 100,00 %
12.04.2018 16:52 20,4 C 10,6 C 42 % 1000,4 hPa 0,0 l/m 19,9 km/h (4 Bft) SO 136 0 min 0,000 mm 0,6 UV-I 163 W/m 7,1 C 16,7 C 24,1 km/h (4 Bft) 100,00 %
12.04.2018 16:53 20,4 C 10,6 C 43 % 1000,4 hPa 0,0 l/m 17,1 km/h (3 Bft) O-SO 102 0 min 0,000 mm 0,6 UV-I 160 W/m 7,4 C 17,3 C 25,7 km/h (4 Bft) 100,00 %
12.04.2018 16:54 20,3 C 10,6 C 43 % 1000,3 hPa 0,0 l/m 20,3 km/h (4 Bft) SO 140 0 min 0,000 mm 0,6 UV-I 157 W/m 7,3 C 16,5 C 24,1 km/h (4 Bft) 100,00 %
12.04.2018 16:55 20,3 C 10,6 C 42 % 1000,3 hPa 0,0 l/m 22,7 km/h (4 Bft) O-SO 107 0 min 0,000 mm 0,6 UV-I 156 W/m 7,0 C 16,1 C 27,4 km/h (4 Bft) 100,00 %
12.04.2018 16:56 20,3 C 10,6 C 43 % 1000,4 hPa 0,0 l/m 21,2 km/h (4 Bft) O-SO 119 0 min 0,000 mm 0,6 UV-I 156 W/m 7,3 C 16,4 C 25,7 km/h (4 Bft) 96,15 %
12.04.2018 16:57 20,2 C 10,6 C 44 % 1000,3 hPa 0,0 l/m 17,5 km/h (3 Bft) O-SO 115 0 min 0,000 mm 0,6 UV-I 158 W/m 7,6 C 16,9 C 25,7 km/h (4 Bft) 100,00 %
12.04.2018 16:58 20,2 C 10,6 C 44 % 1000,3 hPa 0,0 l/m 21,2 km/h (4 Bft) O-SO 117 0 min 0,000 mm 0,6 UV-I 162 W/m 7,6 C 16,3 C 27,4 km/h (4 Bft) 96,15 %
12.04.2018 16:59 20,2 C 10,6 C 44 % 1000,3 hPa 0,0 l/m 19,6 km/h (3 Bft) SO 132 0 min 0,000 mm 0,6 UV-I 162 W/m 7,6 C 16,5 C 27,4 km/h (4 Bft) 100,00 %
12.04.2018 17:00 20,2 C 10,6 C 45 % 1000,4 hPa 0,0 l/m 14,2 km/h (3 Bft) S-SO 147 0 min 0,305 mm 0,6 UV-I 162 W/m 7,9 C 17,7 C 17,7 km/h (3 Bft) 100,00 %
12.04.2018 17:01 20,2 C 10,6 C 45 % 1000,3 hPa 0,0 l/m 16,2 km/h (3 Bft) SO 136 0 min 0,000 mm 0,6 UV-I 162 W/m 7,9 C 17,2 C 20,9 km/h (4 Bft) 100,00 %
12.04.2018 17:05 20,1 C 10,6 C 45 % 1000,3 hPa 0,0 l/m 16,1 km/h (3 Bft) SO 135 0 min 0,000 mm 0,5 UV-I 163 W/m 7,8 C 17,1 C 25,7 km/h (4 Bft) 100,00 %
12.04.2018 17:10 20,1 C 10,6 C 45 % 1000,3 hPa 0,0 l/m 17,7 km/h (3 Bft) SO 135 0 min 0,000 mm 0,5 UV-I 170 W/m 7,8 C 16,8 C 29,0 km/h (5 Bft) 100,00 %
12.04.2018 17:15 20,0 C 10,6 C 45 % 1000,3 hPa 0,0 l/m 17,7 km/h (3 Bft) SO 135 0 min 0,000 mm 0,5 UV-I 179 W/m 7,7 C 16,7 C 25,7 km/h (4 Bft) 100,00 %
12.04.2018 17:20 19,9 C 10,6 C 44 % 1000,3 hPa 0,0 l/m 19,3 km/h (3 Bft) SO 135 0 min 0,000 mm 0,5 UV-I 187 W/m 7,3 C 16,2 C 30,6 km/h (5 Bft) 100,00 %
12.04.2018 17:25 19,8 C 10,6 C 43 % 1000,4 hPa 0,0 l/m 17,7 km/h (3 Bft) SO 135 0 min 0,000 mm 0,5 UV-I 192 W/m 6,9 C 16,4 C 29,0 km/h (5 Bft) 100,00 %
12.04.2018 17:30 19,8 C 10,6 C 44 % 1000,5 hPa 0,0 l/m 19,3 km/h (3 Bft) SO 135 0 min 0,000 mm 0,5 UV-I 171 W/m 7,2 C 16,1 C 30,6 km/h (5 Bft) 100,00 %
12.04.2018 17:35 19,7 C 10,6 C 44 % 1000,5 hPa 0,0 l/m 19,3 km/h (3 Bft) SO 135 0 min 0,000 mm 0,0 UV-I 148 W/m 7,1 C 16,0 C 29,0 km/h (5 Bft) 99,12 %
12.04.2018 17:40 19,5 C 10,6 C 47 % 1000,5 hPa 0,0 l/m 16,1 km/h (3 Bft) SO 135 0 min 0,000 mm 0,0 UV-I 129 W/m 7,9 C 16,4 C 24,1 km/h (4 Bft) 100,00 %
12.04.2018 17:45 19,3 C 10,6 C 47 % 1000,5 hPa 0,0 l/m 19,3 km/h (3 Bft) O-SO 112 0 min 0,000 mm 0,0 UV-I 117 W/m 7,7 C 15,4 C 32,2 km/h (5 Bft) 98,25 %
12.04.2018 17:50 19,1 C 10,6 C 47 % 1000,4 hPa 0,0 l/m 19,3 km/h (3 Bft) O-SO 112 0 min 0,000 mm 0,0 UV-I 110 W/m 7,5 C 15,2 C 27,4 km/h (4 Bft) 97,37 %
12.04.2018 17:55 19,0 C 10,6 C 47 % 1000,3 hPa 0,0 l/m 17,7 km/h (3 Bft) O-SO 112 0 min 0,000 mm 0,0 UV-I 106 W/m 7,4 C 15,4 C 32,2 km/h (5 Bft) 96,49 %
12.04.2018 18:00 18,9 C 10,6 C 48 % 1000,4 hPa 0,0 l/m 12,9 km/h (3 Bft) O-SO 112 0 min 0,229 mm 0,0 UV-I 103 W/m 7,6 C 16,5 C 24,1 km/h (4 Bft) 94,74 %
12.04.2018 18:05 18,8 C 10,6 C 48 % 1000,3 hPa 0,0 l/m 19,3 km/h (3 Bft) O-SO 112 0 min 0,000 mm 0,0 UV-I 95 W/m 7,6 C 14,8 C 27,4 km/h (4 Bft) 95,61 %
12.04.2018 18:10 18,7 C 10,6 C 48 % 1000,4 hPa 0,0 l/m 19,3 km/h (3 Bft) SO 135 0 min 0,000 mm 0,0 UV-I 93 W/m 7,5 C 14,7 C 30,6 km/h (5 Bft) 94,74 %
12.04.2018 18:15 18,6 C 10,6 C 48 % 1000,4 hPa 0,0 l/m 22,5 km/h (4 Bft) O-SO 112 0 min 0,000 mm 0,0 UV-I 91 W/m 7,4 C 13,9 C 32,2 km/h (5 Bft) 97,37 %
12.04.2018 18:20 18,4 C 10,6 C 49 % 1000,5 hPa 0,0 l/m 22,5 km/h (4 Bft) SO 135 0 min 0,000 mm 0,0 UV-I 86 W/m 7,5 C 13,7 C 35,4 km/h (5 Bft) 100,00 %
12.04.2018 18:21 18,3 C 10,6 C 48 % 1000,5 hPa 0,0 l/m 9,9 km/h (2 Bft) S-SO 153 0 min 0,000 mm 0,0 UV-I 82 W/m 7,1 C 16,8 C 12,9 km/h (3 Bft) 100,00 %
12.04.2018 18:22 18,3 C 10,6 C 49 % 1000,5 hPa 0,0 l/m 15,2 km/h (3 Bft) O-SO 116 0 min 0,000 mm 0,0 UV-I 80 W/m 7,4 C 15,1 C 19,3 km/h (3 Bft) 97,14 %
12.04.2018 18:23 18,3 C 10,6 C 49 % 1000,5 hPa 0,0 l/m 11,4 km/h (2 Bft) SO 142 0 min 0,000 mm 0,0 UV-I 78 W/m 7,4 C 16,3 C 19,3 km/h (3 Bft) 100,00 %
12.04.2018 18:24 18,3 C 10,6 C 49 % 1000,5 hPa 0,0 l/m 17,8 km/h (3 Bft) O-SO 116 0 min 0,000 mm 0,0 UV-I 75 W/m 7,4 C 14,5 C 32,2 km/h (5 Bft) 96,15 %
12.04.2018 18:25 18,2 C 10,6 C 49 % 1000,5 hPa 0,0 l/m 20,3 km/h (4 Bft) S-SO 148 0 min 0,000 mm 0,0 UV-I 72 W/m 7,3 C 13,8 C 33,8 km/h (5 Bft) 96,67 %
12.04.2018 18:26 18,2 C 10,6 C 49 % 1000,5 hPa 0,0 l/m 15,8 km/h (3 Bft) O-SO 110 0 min 0,000 mm 0,0 UV-I 69 W/m 7,3 C 14,9 C 20,9 km/h (4 Bft) 100,00 %
12.04.2018 18:27 18,2 C 10,6 C 49 % 1000,5 hPa 0,0 l/m 19,7 km/h (3 Bft) O-SO 122 0 min 0,000 mm 0,0 UV-I 65 W/m 7,3 C 13,9 C 22,5 km/h (4 Bft) 96,15 %
12.04.2018 18:28 18,1 C 10,0 C 50 % 1000,4 hPa 0,0 l/m 15,0 km/h (3 Bft) O-SO 108 0 min 0,000 mm 0,0 UV-I 64 W/m 7,5 C 14,9 C 20,9 km/h (4 Bft) 95,83 %
12.04.2018 18:29 18,1 C 10,6 C 49 % 1000,5 hPa 0,0 l/m 18,1 km/h (3 Bft) SO 130 0 min 0,000 mm 0,0 UV-I 59 W/m 7,2 C 14,2 C 25,7 km/h (4 Bft) 96,15 %
12.04.2018 18:30 18,1 C 10,6 C 49 % 1000,5 hPa 0,0 l/m 22,6 km/h (4 Bft) O-SO 109 0 min 0,000 mm 0,0 UV-I 57 W/m 7,2 C 13,2 C 33,8 km/h (5 Bft) 100,00 %
12.04.2018 18:31 18,0 C 10,6 C 49 % 1000,5 hPa 0,0 l/m 24,8 km/h (4 Bft) O-SO 110 0 min 0,000 mm 0,0 UV-I 55 W/m 7,1 C 12,7 C 29,0 km/h (5 Bft) 97,14 %
12.04.2018 18:32 17,9 C 10,0 C 49 % 1000,5 hPa 0,0 l/m 18,6 km/h (3 Bft) O-SO 120 0 min 0,000 mm 0,0 UV-I 53 W/m 7,0 C 13,8 C 29,0 km/h (5 Bft) 100,00 %
12.04.2018 18:33 17,9 C 10,6 C 49 % 1000,5 hPa 0,0 l/m 26,7 km/h (4 Bft) O-SO 111 0 min 0,000 mm 0,0 UV-I 53 W/m 7,0 C 12,3 C 40,2 km/h (6 Bft) 90,91 %
12.04.2018 18:34 17,9 C 10,6 C 50 % 1000,5 hPa 0,0 l/m 18,4 km/h (3 Bft) O-SO 115 0 min 0,000 mm 0,0 UV-I 53 W/m 7,3 C 13,8 C 24,1 km/h (4 Bft) 100,00 %
12.04.2018 18:35 17,8 C 10,6 C 50 % 1000,6 hPa 0,0 l/m 24,0 km/h (4 Bft) O-SO 119 0 min 0,000 mm 0,0 UV-I 53 W/m 7,2 C 12,6 C 27,4 km/h (4 Bft) 97,44 %
12.04.2018 18:36 17,8 C 10,0 C 50 % 1000,6 hPa 0,0 l/m 20,4 km/h (4 Bft) O-SO 113 0 min 0,000 mm 0,0 UV-I 53 W/m 7,2 C 13,3 C 29,0 km/h (5 Bft) 95,74 %
12.04.2018 18:37 17,8 C 10,6 C 50 % 1000,6 hPa 0,0 l/m 22,0 km/h (4 Bft) O-SO 115 0 min 0,000 mm 0,0 UV-I 53 W/m 7,2 C 13,0 C 30,6 km/h (5 Bft) 97,22 %
12.04.2018 18:38 17,8 C 10,6 C 51 % 1000,6 hPa 0,0 l/m 22,1 km/h (4 Bft) O 86 0 min 0,000 mm 0,0 UV-I 53 W/m 7,5 C 12,9 C 32,2 km/h (5 Bft) 93,88 %
12.04.2018 18:39 17,8 C 10,6 C 50 % 1000,7 hPa 0,0 l/m 20,3 km/h (4 Bft) SO 129 0 min 0,000 mm 0,0 UV-I 54 W/m 7,2 C 13,3 C 29,0 km/h (5 Bft) 93,10 %
12.04.2018 18:40 17,7 C 10,6 C 50 % 1000,7 hPa 0,0 l/m 19,4 km/h (3 Bft) O-SO 103 0 min 0,000 mm 0,0 UV-I 54 W/m 7,1 C 13,4 C 25,7 km/h (4 Bft) 100,00 %
12.04.2018 18:41 17,7 C 10,6 C 51 % 1000,7 hPa 0,0 l/m 17,6 km/h (3 Bft) O-SO 103 0 min 0,000 mm 0,0 UV-I 57 W/m 7,4 C 13,8 C 20,9 km/h (4 Bft) 94,44 %
12.04.2018 18:42 17,7 C 10,6 C 52 % 1000,7 hPa 0,0 l/m 15,3 km/h (3 Bft) O-SO 123 0 min 0,000 mm 0,0 UV-I 58 W/m 7,7 C 14,4 C 20,9 km/h (4 Bft) 95,12 %
12.04.2018 18:43 17,7 C 10,6 C 51 % 1000,7 hPa 0,0 l/m 16,2 km/h (3 Bft) O-SO 117 0 min 0,000 mm 0,0 UV-I 60 W/m 7,4 C 14,1 C 22,5 km/h (4 Bft) 100,00 %
12.04.2018 18:44 17,6 C 10,6 C 51 % 1000,6 hPa 0,0 l/m 15,0 km/h (3 Bft) O-SO 105 0 min 0,000 mm 0,0 UV-I 62 W/m 7,3 C 14,3 C 19,3 km/h (3 Bft) 95,65 %
12.04.2018 18:45 17,6 C 10,6 C 52 % 1000,7 hPa 0,0 l/m 12,6 km/h (3 Bft) O 101 0 min 0,000 mm 0,0 UV-I 63 W/m 7,6 C 15,1 C 16,1 km/h (3 Bft) 100,00 %
12.04.2018 18:46 17,6 C 10,6 C 51 % 1000,7 hPa 0,0 l/m 11,0 km/h (2 Bft) O 93 0 min 0,000 mm 0,0 UV-I 65 W/m 7,3 C 15,6 C 14,5 km/h (3 Bft) 90,00 %
12.04.2018 18:47 17,6 C 10,6 C 52 % 1000,6 hPa 0,0 l/m 13,6 km/h (3 Bft) O 84 0 min 0,000 mm 0,0 UV-I 65 W/m 7,6 C 14,8 C 16,1 km/h (3 Bft) 100,00 %
12.04.2018 18:48 17,5 C 10,6 C 52 % 1000,6 hPa 0,0 l/m 10,4 km/h (2 Bft) O 86 0 min 0,000 mm 0,0 UV-I 65 W/m 7,5 C 15,7 C 14,5 km/h (3 Bft) 96,15 %
12.04.2018 18:49 17,4 C 10,6 C 52 % 1000,7 hPa 0,0 l/m 14,2 km/h (3 Bft) O 82 0 min 0,000 mm 0,0 UV-I 65 W/m 7,4 C 14,3 C 19,3 km/h (3 Bft) 100,00 %
12.04.2018 18:50 17,4 C 10,6 C 53 % 1000,6 hPa 0,0 l/m 13,4 km/h (3 Bft) O 89 0 min 0,000 mm 0,0 UV-I 63 W/m 7,7 C 14,6 C 19,3 km/h (3 Bft) 93,10 %
12.04.2018 18:51 17,3 C 10,6 C 53 % 1000,6 hPa 0,0 l/m 15,7 km/h (3 Bft) O 86 0 min 0,000 mm 0,0 UV-I 64 W/m 7,6 C 13,8 C 20,9 km/h (4 Bft) 96,30 %
12.04.2018 18:52 17,3 C 10,6 C 53 % 1000,6 hPa 0,0 l/m 14,3 km/h (3 Bft) O 92 0 min 0,000 mm 0,0 UV-I 65 W/m 7,6 C 14,2 C 17,7 km/h (3 Bft) 95,65 %
12.04.2018 18:53 17,3 C 10,6 C 53 % 1000,6 hPa 0,0 l/m 13,3 km/h (3 Bft) O 94 0 min 0,000 mm 0,0 UV-I 66 W/m 7,6 C 14,5 C 17,7 km/h (3 Bft) 96,48 %
12.04.2018 18:54 17,3 C 10,6 C 53 % 1000,6 hPa 0,0 l/m 14,7 km/h (3 Bft) O-SO 117 0 min 0,000 mm 0,0 UV-I 68 W/m 7,6 C 14,1 C 20,9 km/h (4 Bft) 97,73 %
12.04.2018 18:55 17,3 C 10,6 C 53 % 1000,7 hPa 0,0 l/m 14,5 km/h (3 Bft) SO 130 0 min 0,000 mm 0,0 UV-I 70 W/m 7,6 C 14,1 C 17,7 km/h (3 Bft) 96,30 %
12.04.2018 18:56 17,3 C 10,6 C 53 % 1000,6 hPa 0,0 l/m 14,3 km/h (3 Bft) SO 129 0 min 0,000 mm 0,0 UV-I 72 W/m 7,6 C 14,2 C 20,9 km/h (4 Bft) 100,00 %
12.04.2018 18:57 17,3 C 10,6 C 53 % 1000,6 hPa 0,0 l/m 11,8 km/h (2 Bft) SO 126 0 min 0,000 mm 0,0 UV-I 74 W/m 7,6 C 15,0 C 17,7 km/h (3 Bft) 96,30 %
12.04.2018 18:58 17,3 C 10,6 C 53 % 1000,7 hPa 0,0 l/m 11,6 km/h (2 Bft) SO 130 1 min 0,000 mm 0,0 UV-I 76 W/m 7,6 C 15,1 C 17,7 km/h (3 Bft) 100,00 %
12.04.2018 18:59 17,3 C 10,6 C 53 % 1000,7 hPa 0,0 l/m 14,9 km/h (3 Bft) SO 137 1 min 0,000 mm 0,0 UV-I 76 W/m 7,6 C 14,0 C 24,1 km/h (4 Bft) 96,30 %
12.04.2018 19:00 17,3 C 10,0 C 53 % 1000,7 hPa 0,0 l/m 14,2 km/h (3 Bft) SO 132 1 min 0,152 mm 0,0 UV-I 76 W/m 7,6 C 14,2 C 19,3 km/h (3 Bft) 95,65 %
12.04.2018 19:01 17,3 C 10,6 C 53 % 1000,7 hPa 0,0 l/m 11,7 km/h (2 Bft) SO 142 1 min 0,000 mm 0,0 UV-I 76 W/m 7,6 C 15,0 C 16,1 km/h (3 Bft) 100,00 %
12.04.2018 19:02 17,3 C 10,6 C 53 % 1000,7 hPa 0,0 l/m 16,7 km/h (3 Bft) SO 127 1 min 0,000 mm 0,0 UV-I 74 W/m 7,6 C 13,5 C 22,5 km/h (4 Bft) 100,00 %
12.04.2018 19:03 17,2 C 10,6 C 53 % 1000,7 hPa 0,0 l/m 16,4 km/h (3 Bft) SO 129 1 min 0,000 mm 0,0 UV-I 71 W/m 7,5 C 13,5 C 22,5 km/h (4 Bft) 92,31 %
12.04.2018 19:04 17,3 C 10,6 C 53 % 1000,8 hPa 0,0 l/m 10,9 km/h (2 Bft) SO 146 1 min 0,000 mm 0,0 UV-I 70 W/m 7,6 C 15,3 C 16,1 km/h (3 Bft) 96,30 %
12.04.2018 19:05 17,2 C 10,6 C 53 % 1000,8 hPa 0,0 l/m 18,1 km/h (3 Bft) SO 132 1 min 0,000 mm 0,0 UV-I 68 W/m 7,5 C 13,0 C 20,9 km/h (4 Bft) 96,15 %
12.04.2018 19:06 17,2 C 10,6 C 53 % 1000,8 hPa 0,0 l/m 17,9 km/h (3 Bft) SO 138 1 min 0,000 mm 0,0 UV-I 65 W/m 7,5 C 13,1 C 22,5 km/h (4 Bft) 91,67 %
12.04.2018 19:07 17,2 C 10,6 C 53 % 1000,8 hPa 0,0 l/m 13,8 km/h (3 Bft) S 169 1 min 0,000 mm 0,0 UV-I 65 W/m 7,5 C 14,2 C 19,3 km/h (3 Bft) 96,15 %
12.04.2018 19:08 17,2 C 10,6 C 54 % 1000,8 hPa 0,0 l/m 20,2 km/h (4 Bft) S-SO 149 1 min 0,000 mm 0,0 UV-I 63 W/m 7,8 C 12,5 C 25,7 km/h (4 Bft) 92,59 %
12.04.2018 19:10 17,2 C 10,6 C 53 % 1000,8 hPa 0,0 l/m 14,9 km/h (3 Bft) SO 132 2 min 0,000 mm 0,0 UV-I 63 W/m 7,5 C 13,9 C 20,9 km/h (4 Bft) 92,00 %
12.04.2018 19:11 17,2 C 10,6 C 53 % 1000,8 hPa 0,0 l/m 13,5 km/h (3 Bft) SO 124 1 min 0,000 mm 0,0 UV-I 62 W/m 7,5 C 14,3 C 20,9 km/h (4 Bft) 100,00 %
12.04.2018 19:12 17,1 C 10,6 C 54 % 1000,9 hPa 0,0 l/m 13,2 km/h (3 Bft) S-SO 165 1 min 0,000 mm 0,0 UV-I 59 W/m 7,7 C 14,3 C 16,1 km/h (3 Bft) 95,83 %
12.04.2018 19:13 17,1 C 10,6 C 54 % 1000,8 hPa 0,0 l/m 16,0 km/h (3 Bft) O-SO 118 1 min 0,000 mm 0,0 UV-I 56 W/m 7,7 C 13,5 C 24,1 km/h (4 Bft) 96,15 %
12.04.2018 19:14 17,0 C 10,6 C 54 % 1000,8 hPa 0,0 l/m 16,6 km/h (3 Bft) S-SO 159 1 min 0,000 mm 0,0 UV-I 55 W/m 7,6 C 13,2 C 24,1 km/h (4 Bft) 91,67 %
12.04.2018 19:15 17,0 C 10,6 C 53 % 1000,8 hPa 0,0 l/m 15,0 km/h (3 Bft) O-SO 108 1 min 0,000 mm 0,0 UV-I 54 W/m 7,4 C 13,6 C 19,3 km/h (3 Bft) 95,65 %
12.04.2018 19:16 17,0 C 10,6 C 54 % 1000,8 hPa 0,0 l/m 13,4 km/h (3 Bft) O-SO 123 1 min 0,000 mm 0,0 UV-I 50 W/m 7,6 C 14,1 C 16,1 km/h (3 Bft) 96,30 %
12.04.2018 19:17 16,9 C 10,6 C 54 % 1000,8 hPa 0,0 l/m 12,9 km/h (3 Bft) SO 130 1 min 0,000 mm 0,0 UV-I 48 W/m 7,5 C 14,2 C 16,1 km/h (3 Bft) 95,65 %
12.04.2018 19:18 16,9 C 10,6 C 54 % 1000,9 hPa 0,0 l/m 10,7 km/h (2 Bft) SO 143 1 min 0,000 mm 0,0 UV-I 46 W/m 7,5 C 14,9 C 12,9 km/h (3 Bft) 96,30 %
12.04.2018 19:19 16,9 C 10,6 C 54 % 1000,9 hPa 0,0 l/m 13,3 km/h (3 Bft) SO 138 1 min 0,000 mm 0,0 UV-I 44 W/m 7,5 C 14,0 C 17,7 km/h (3 Bft) 91,67 %
12.04.2018 19:20 16,9 C 10,6 C 54 % 1000,9 hPa 0,0 l/m 15,8 km/h (3 Bft) SO 136 1 min 0,000 mm 0,0 UV-I 42 W/m 7,5 C 13,3 C 19,3 km/h (3 Bft) 96,15 %
12.04.2018 19:21 16,9 C 10,6 C 54 % 1000,9 hPa 0,0 l/m 13,9 km/h (3 Bft) SO 137 1 min 0,000 mm 0,0 UV-I 40 W/m 7,5 C 13,8 C 19,3 km/h (3 Bft) 93,10 %
12.04.2018 19:22 16,9 C 10,6 C 54 % 1000,9 hPa 0,0 l/m 16,5 km/h (3 Bft) SO 128 1 min 0,000 mm 0,0 UV-I 38 W/m 7,5 C 13,1 C 20,9 km/h (4 Bft) 92,59 %
12.04.2018 19:23 16,8 C 10,6 C 55 % 1000,9 hPa 0,0 l/m 12,4 km/h (3 Bft) SO 129 1 min 0,000 mm 0,0 UV-I 36 W/m 7,7 C 14,2 C 17,7 km/h (3 Bft) 91,67 %
12.04.2018 19:24 16,8 C 10,6 C 55 % 1000,9 hPa 0,0 l/m 12,4 km/h (3 Bft) SO 128 1 min 0,000 mm 0,0 UV-I 33 W/m 7,7 C 14,2 C 14,5 km/h (3 Bft) 96,55 %
12.04.2018 19:25 16,8 C 10,6 C 56 % 1000,9 hPa 0,0 l/m 11,4 km/h (2 Bft) O-SO 117 1 min 0,000 mm 0,0 UV-I 32 W/m 8,0 C 14,6 C 14,5 km/h (3 Bft) 96,30 %
12.04.2018 19:26 16,8 C 10,6 C 55 % 1000,9 hPa 0,0 l/m 12,3 km/h (3 Bft) O-SO 109 1 min 0,000 mm 0,0 UV-I 30 W/m 7,7 C 14,2 C 16,1 km/h (3 Bft) 95,65 %
12.04.2018 19:27 16,7 C 10,6 C 55 % 1001,0 hPa 0,0 l/m 13,8 km/h (3 Bft) O-SO 111 1 min 0,000 mm 0,0 UV-I 29 W/m 7,6 C 13,6 C 17,7 km/h (3 Bft) 96,30 %
12.04.2018 19:28 16,7 C 10,6 C 56 % 1001,0 hPa 0,0 l/m 9,5 km/h (2 Bft) SO 132 1 min 0,000 mm 0,0 UV-I 27 W/m 7,9 C 15,2 C 14,5 km/h (3 Bft) 92,86 %
12.04.2018 19:29 16,7 C 10,6 C 55 % 1001,0 hPa 0,0 l/m 13,3 km/h (3 Bft) O-SO 117 1 min 0,000 mm 0,0 UV-I 25 W/m 7,6 C 13,8 C 16,1 km/h (3 Bft) 95,83 %
12.04.2018 19:30 16,7 C 10,6 C 55 % 1001,0 hPa 0,0 l/m 12,6 km/h (3 Bft) S-SO 153 1 min 0,000 mm 0,0 UV-I 23 W/m 7,6 C 14,0 C 14,5 km/h (3 Bft) 96,15 %
12.04.2018 19:31 16,7 C 10,6 C 55 % 1000,9 hPa 0,0 l/m 8,9 km/h (2 Bft) SO 144 1 min 0,000 mm 0,0 UV-I 21 W/m 7,6 C 15,5 C 12,9 km/h (3 Bft) 100,00 %
12.04.2018 19:32 16,7 C 10,6 C 55 % 1000,9 hPa 0,0 l/m 8,4 km/h (2 Bft) O 84 1 min 0,000 mm 0,0 UV-I 20 W/m 7,6 C 15,7 C 11,3 km/h (2 Bft) 90,91 %
12.04.2018 19:33 16,6 C 10,6 C 56 % 1001,0 hPa 0,0 l/m 8,2 km/h (2 Bft) SO 141 1 min 0,000 mm 0,0 UV-I 19 W/m 7,8 C 15,7 C 17,7 km/h (3 Bft) 100,00 %
12.04.2018 19:34 16,6 C 10,6 C 55 % 1001,0 hPa 0,0 l/m 14,6 km/h (3 Bft) S-SO 154 0 min 0,000 mm 0,0 UV-I 16 W/m 7,5 C 13,3 C 19,3 km/h (3 Bft) 92,86 %
12.04.2018 19:35 16,6 C 10,6 C 54 % 1000,9 hPa 0,0 l/m 12,3 km/h (3 Bft) SO 134 1 min 0,000 mm 0,0 UV-I 16 W/m 7,3 C 14,0 C 22,5 km/h (4 Bft) 96,30 %
12.04.2018 19:36 16,7 C 10,6 C 55 % 1001,0 hPa 0,0 l/m 12,3 km/h (3 Bft) SO 128 1 min 0,000 mm 0,0 UV-I 14 W/m 7,6 C 14,1 C 16,1 km/h (3 Bft) 93,33 %
12.04.2018 19:38 16,7 C 10,6 C 54 % 1001,0 hPa 0,0 l/m 12,2 km/h (2 Bft) SO 139 2 min 0,000 mm 0,0 UV-I 13 W/m 7,3 C 14,2 C 19,3 km/h (3 Bft) 100,00 %
12.04.2018 19:39 16,7 C 10,6 C 54 % 1000,9 hPa 0,0 l/m 10,8 km/h (2 Bft) SO 133 1 min 0,000 mm 0,0 UV-I 12 W/m 7,3 C 14,7 C 16,1 km/h (3 Bft) 100,00 %
12.04.2018 19:40 16,7 C 10,6 C 54 % 1000,9 hPa 0,0 l/m 21,7 km/h (4 Bft) SO 146 0 min 0,000 mm 0,0 UV-I 11 W/m 7,3 C 11,6 C 35,4 km/h (5 Bft) 96,67 %
12.04.2018 19:41 16,6 C 10,6 C 54 % 1000,8 hPa 0,0 l/m 24,9 km/h (4 Bft) S-SO 149 0 min 0,000 mm 0,0 UV-I 9 W/m 7,3 C 10,8 C 30,6 km/h (5 Bft) 100,00 %
12.04.2018 19:42 16,7 C 10,6 C 54 % 1000,8 hPa 0,0 l/m 21,8 km/h (4 Bft) S-SO 148 0 min 0,000 mm 0,0 UV-I 9 W/m 7,3 C 11,5 C 27,4 km/h (4 Bft) 96,29 %
12.04.2018 19:43 16,6 C 10,6 C 54 % 1000,8 hPa 0,0 l/m 20,2 km/h (4 Bft) SO 142 0 min 0,000 mm 0,0 UV-I 9 W/m 7,3 C 11,8 C 30,6 km/h (5 Bft) 100,00 %
12.04.2018 19:44 16,6 C 10,6 C 54 % 1000,9 hPa 0,0 l/m 25,0 km/h (4 Bft) SO 144 0 min 0,000 mm 0,0 UV-I 7 W/m 7,3 C 10,8 C 30,6 km/h (5 Bft) 100,00 %
12.04.2018 19:45 16,7 C 10,6 C 54 % 1000,9 hPa 0,0 l/m 22,7 km/h (4 Bft) SO 134 0 min 0,000 mm 0,0 UV-I 7 W/m 7,3 C 11,4 C 32,2 km/h (5 Bft) 100,00 %
12.04.2018 19:46 16,7 C 10,6 C 53 % 1000,9 hPa 0,0 l/m 23,7 km/h (4 Bft) SO 144 0 min 0,000 mm 0,0 UV-I 6 W/m 7,1 C 11,2 C 27,4 km/h (4 Bft) 100,00 %
12.04.2018 19:48 16,8 C 10,6 C 53 % 1001,0 hPa 0,0 l/m 22,5 km/h (4 Bft) SO 141 0 min 0,000 mm 0,0 UV-I 5 W/m 7,2 C 11,5 C 29,0 km/h (5 Bft) 98,11 %
12.04.2018 19:49 16,8 C 10,6 C 53 % 1001,0 hPa 0,0 l/m 25,5 km/h (4 Bft) SO 146 0 min 0,000 mm 0,0 UV-I 5 W/m 7,2 C 11,0 C 29,0 km/h (5 Bft) 96,55 %
12.04.2018 19:50 16,8 C 10,6 C 53 % 1001,1 hPa 0,0 l/m 21,2 km/h (4 Bft) SO 142 0 min 0,000 mm 0,0 UV-I 5 W/m 7,2 C 11,8 C 29,0 km/h (5 Bft) 100,00 %
12.04.2018 19:51 16,9 C 10,6 C 52 % 1001,1 hPa 0,0 l/m 21,5 km/h (4 Bft) SO 128 0 min 0,000 mm 0,0 UV-I 5 W/m 7,0 C 11,9 C 25,7 km/h (4 Bft) 100,00 %
12.04.2018 19:52 16,9 C 10,6 C 52 % 1001,1 hPa 0,0 l/m 18,0 km/h (3 Bft) SO 131 0 min 0,000 mm 0,0 UV-I 5 W/m 7,0 C 12,7 C 20,9 km/h (4 Bft) 96,30 %
12.04.2018 19:53 16,9 C 10,6 C 52 % 1001,2 hPa 0,0 l/m 18,3 km/h (3 Bft) SO 135 0 min 0,000 mm 0,0 UV-I 1 W/m 7,0 C 12,6 C 20,9 km/h (4 Bft) 100,00 %
12.04.2018 19:54 16,9 C 10,6 C 52 % 1001,2 hPa 0,0 l/m 19,3 km/h (3 Bft) SO 125 0 min 0,000 mm 0,0 UV-I 0 W/m 7,0 C 12,4 C 22,5 km/h (4 Bft) 100,00 %
12.04.2018 19:55 16,9 C 10,6 C 52 % 1001,2 hPa 0,0 l/m 16,3 km/h (3 Bft) O-SO 109 0 min 0,000 mm 0,0 UV-I 0 W/m 7,0 C 13,1 C 25,7 km/h (4 Bft) 100,00 %
12.04.2018 19:56 16,8 C 10,6 C 52 % 1001,2 hPa 0,0 l/m 18,1 km/h (3 Bft) SO 126 0 min 0,000 mm 0,0 UV-I 0 W/m 6,9 C 12,5 C 24,1 km/h (4 Bft) 100,00 %
12.04.2018 19:57 16,8 C 10,6 C 53 % 1001,1 hPa 0,0 l/m 15,8 km/h (3 Bft) SO 124 0 min 0,000 mm 0,0 UV-I 0 W/m 7,2 C 13,1 C 19,3 km/h (3 Bft) 96,79 %
12.04.2018 19:58 16,8 C 10,6 C 53 % 1001,1 hPa 0,0 l/m 18,3 km/h (3 Bft) O-SO 119 0 min 0,000 mm 0,0 UV-I 0 W/m 7,2 C 12,5 C 24,1 km/h (4 Bft) 100,00 %
12.04.2018 19:59 16,7 C 10,6 C 53 % 1001,1 hPa 0,0 l/m 17,5 km/h (3 Bft) O-SO 113 0 min 0,000 mm 0,0 UV-I 0 W/m 7,1 C 12,6 C 20,9 km/h (4 Bft) 100,00 %
12.04.2018 20:00 16,7 C 10,6 C 53 % 1001,1 hPa 0,0 l/m 17,0 km/h (3 Bft) O-SO 104 0 min 0,000 mm 0,0 UV-I 0 W/m 7,1 C 12,7 C 20,9 km/h (4 Bft) 100,00 %
12.04.2018 20:01 16,6 C 10,6 C 53 % 1001,1 hPa 0,0 l/m 12,3 km/h (3 Bft) SO 128 0 min 0,101 mm 0,0 UV-I 0 W/m 7,0 C 14,0 C 19,3 km/h (3 Bft) 100,00 %
12.04.2018 20:02 16,6 C 10,6 C 54 % 1001,1 hPa 0,0 l/m 17,5 km/h (3 Bft) SO 132 0 min 0,000 mm 0,0 UV-I 0 W/m 7,3 C 12,4 C 22,5 km/h (4 Bft) 100,00 %
12.04.2018 20:03 16,5 C 10,6 C 54 % 1001,2 hPa 0,0 l/m 18,6 km/h (3 Bft) O-SO 106 0 min 0,000 mm 0,0 UV-I 0 W/m 7,2 C 12,0 C 25,7 km/h (4 Bft) 96,97 %
12.04.2018 20:04 16,5 C 10,6 C 54 % 1001,1 hPa 0,0 l/m 14,7 km/h (3 Bft) SO 126 0 min 0,000 mm 0,0 UV-I 0 W/m 7,2 C 13,1 C 19,3 km/h (3 Bft) 100,00 %
12.04.2018 20:05 16,4 C 10,6 C 54 % 1001,0 hPa 0,0 l/m 17,5 km/h (3 Bft) O-SO 105 0 min 0,000 mm 0,0 UV-I 0 W/m 7,1 C 12,2 C 25,7 km/h (4 Bft) 100,00 %
12.04.2018 20:06 16,4 C 10,6 C 54 % 1000,9 hPa 0,0 l/m 18,8 km/h (3 Bft) NO 52 0 min 0,000 mm 0,0 UV-I 0 W/m 7,1 C 11,8 C 27,4 km/h (4 Bft) 100,00 %
12.04.2018 20:07 16,4 C 10,6 C 54 % 1001,0 hPa 0,0 l/m 21,6 km/h (4 Bft) SO 137 0 min 0,000 mm 0,0 UV-I 0 W/m 7,1 C 11,2 C 29,0 km/h (5 Bft) 100,00 %
12.04.2018 20:08 16,4 C 10,6 C 54 % 1001,0 hPa 0,0 l/m 24,1 km/h (4 Bft) SO 131 0 min 0,000 mm 0,0 UV-I 0 W/m 7,1 C 10,7 C 32,2 km/h (5 Bft) 100,00 %
12.04.2018 20:09 16,4 C 10,6 C 54 % 1001,0 hPa 0,0 l/m 23,5 km/h (4 Bft) O 95 0 min 0,000 mm 0,0 UV-I 0 W/m 7,1 C 10,8 C 29,0 km/h (5 Bft) 100,00 %
12.04.2018 20:10 16,4 C 10,6 C 54 % 1001,0 hPa 0,0 l/m 21,7 km/h (4 Bft) O 100 0 min 0,000 mm 0,0 UV-I 0 W/m 7,1 C 11,2 C 30,6 km/h (5 Bft) 100,00 %
12.04.2018 20:11 16,4 C 10,6 C 54 % 1001,0 hPa 0,0 l/m 27,8 km/h (4 Bft) SO 132 0 min 0,000 mm 0,0 UV-I 0 W/m 7,1 C 10,0 C 33,8 km/h (5 Bft) 100,00 %
12.04.2018 20:13 16,3 C 10,6 C 54 % 1001,0 hPa 0,0 l/m 21,3 km/h (4 Bft) O-SO 112 0 min 0,000 mm 0,0 UV-I 0 W/m 7,0 C 11,1 C 27,4 km/h (4 Bft) 100,00 %
12.04.2018 20:14 16,3 C 10,6 C 54 % 1001,0 hPa 0,0 l/m 23,8 km/h (4 Bft) O-SO 113 0 min 0,000 mm 0,0 UV-I 0 W/m 7,0 C 10,6 C 32,2 km/h (5 Bft) 100,00 %
12.04.2018 20:15 16,3 C 10,6 C 55 % 1001,0 hPa 0,0 l/m 17,7 km/h (3 Bft) O-SO 110 0 min 0,000 mm 0,0 UV-I 0 W/m 7,2 C 12,0 C 24,1 km/h (4 Bft) 100,00 %
12.04.2018 20:16 16,3 C 10,6 C 55 % 1001,1 hPa 0,0 l/m 23,5 km/h (4 Bft) O-SO 121 0 min 0,000 mm 0,0 UV-I 0 W/m 7,2 C 10,7 C 27,4 km/h (4 Bft) 100,00 %
12.04.2018 20:17 16,2 C 10,6 C 55 % 1001,0 hPa 0,0 l/m 23,6 km/h (4 Bft) SO 131 0 min 0,000 mm 0,0 UV-I 0 W/m 7,2 C 10,5 C 27,4 km/h (4 Bft) 100,00 %
12.04.2018 20:18 16,2 C 10,6 C 55 % 1001,1 hPa 0,0 l/m 21,0 km/h (4 Bft) SO 125 0 min 0,000 mm 0,0 UV-I 0 W/m 7,2 C 11,1 C 25,7 km/h (4 Bft) 96,30 %
12.04.2018 20:19 16,2 C 10,6 C 55 % 1001,1 hPa 0,0 l/m 23,5 km/h (4 Bft) SO 124 0 min 0,000 mm 0,0 UV-I 0 W/m 7,2 C 10,5 C 29,0 km/h (5 Bft) 100,00 %
12.04.2018 20:20 16,2 C 10,6 C 55 % 1001,0 hPa 0,0 l/m 23,3 km/h (4 Bft) SO 131 0 min 0,000 mm 0,0 UV-I 0 W/m 7,2 C 10,6 C 30,6 km/h (5 Bft) 96,67 %
12.04.2018 20:21 16,2 C 10,6 C 55 % 1001,0 hPa 0,0 l/m 18,8 km/h (3 Bft) O-SO 121 0 min 0,000 mm 0,0 UV-I 0 W/m 7,2 C 11,6 C 22,5 km/h (4 Bft) 100,00 %
12.04.2018 20:22 16,2 C 10,6 C 55 % 1001,1 hPa 0,0 l/m 20,3 km/h (4 Bft) O-SO 116 0 min 0,000 mm 0,0 UV-I 0 W/m 7,2 C 11,2 C 25,7 km/h (4 Bft) 100,00 %
12.04.2018 20:23 16,2 C 10,6 C 55 % 1001,1 hPa 0,0 l/m 18,2 km/h (3 Bft) SO 128 0 min 0,000 mm 0,0 UV-I 0 W/m 7,2 C 11,7 C 20,9 km/h (4 Bft) 100,00 %
12.04.2018 20:24 16,1 C 10,6 C 55 % 1001,1 hPa 0,0 l/m 19,5 km/h (3 Bft) O-SO 121 0 min 0,000 mm 0,0 UV-I 0 W/m 7,1 C 11,3 C 27,4 km/h (4 Bft) 100,00 %
12.04.2018 20:25 16,1 C 10,6 C 55 % 1001,0 hPa 0,0 l/m 18,4 km/h (3 Bft) O-SO 105 0 min 0,000 mm 0,0 UV-I 0 W/m 7,1 C 11,6 C 22,5 km/h (4 Bft) 100,00 %
12.04.2018 20:26 16,1 C 10,6 C 55 % 1001,0 hPa 0,0 l/m 19,5 km/h (3 Bft) SO 135 0 min 0,000 mm 0,0 UV-I 0 W/m 7,1 C 11,3 C 27,4 km/h (4 Bft) 100,00 %
12.04.2018 20:27 16,1 C 10,6 C 55 % 1001,0 hPa 0,0 l/m 21,7 km/h (4 Bft) O-SO 117 0 min 0,000 mm 0,0 UV-I 0 W/m 7,1 C 10,8 C 25,7 km/h (4 Bft) 97,49 %
12.04.2018 20:28 16,1 C 10,6 C 55 % 1001,0 hPa 0,0 l/m 17,9 km/h (3 Bft) O-SO 123 0 min 0,000 mm 0,0 UV-I 0 W/m 7,1 C 11,7 C 30,6 km/h (5 Bft) 100,00 %
12.04.2018 20:29 16,1 C 10,6 C 55 % 1001,0 hPa 0,0 l/m 21,2 km/h (4 Bft) SO 131 0 min 0,000 mm 0,0 UV-I 0 W/m 7,1 C 10,9 C 27,4 km/h (4 Bft) 100,00 %
12.04.2018 20:30 16,1 C 10,6 C 55 % 1001,0 hPa 0,0 l/m 22,3 km/h (4 Bft) SO 134 0 min 0,000 mm 0,0 UV-I 0 W/m 7,1 C 10,6 C 30,6 km/h (5 Bft) 100,00 %
12.04.2018 20:31 16,1 C 10,6 C 55 % 1001,0 hPa 0,0 l/m 22,2 km/h (4 Bft) O-SO 123 0 min 0,000 mm 0,0 UV-I 0 W/m 7,1 C 10,7 C 30,6 km/h (5 Bft) 100,00 %
12.04.2018 20:32 16,1 C 10,6 C 55 % 1001,0 hPa 0,0 l/m 21,7 km/h (4 Bft) O-SO 117 0 min 0,000 mm 0,0 UV-I 0 W/m 7,1 C 10,8 C 27,4 km/h (4 Bft) 100,00 %
12.04.2018 20:33 16,1 C 10,6 C 55 % 1001,0 hPa 0,0 l/m 21,0 km/h (4 Bft) S-SO 147 0 min 0,000 mm 0,0 UV-I 0 W/m 7,1 C 10,9 C 27,4 km/h (4 Bft) 97,60 %
12.04.2018 20:34 16,1 C 10,6 C 55 % 1001,0 hPa 0,0 l/m 17,3 km/h (3 Bft) SO 138 0 min 0,000 mm 0,0 UV-I 0 W/m 7,1 C 11,9 C 22,5 km/h (4 Bft) 100,00 %
12.04.2018 20:35 16,1 C 10,6 C 55 % 1001,1 hPa 0,0 l/m 19,8 km/h (3 Bft) SO 130 0 min 0,000 mm 0,0 UV-I 0 W/m 7,1 C 11,2 C 30,6 km/h (5 Bft) 95,83 %
12.04.2018 20:36 16,1 C 10,6 C 55 % 1001,1 hPa 0,0 l/m 16,7 km/h (3 Bft) SO 134 0 min 0,000 mm 0,0 UV-I 0 W/m 7,1 C 12,0 C 22,5 km/h (4 Bft) 100,00 %
12.04.2018 20:37 16,1 C 10,6 C 55 % 1001,1 hPa 0,0 l/m 18,0 km/h (3 Bft) SO 131 0 min 0,000 mm 0,0 UV-I 0 W/m 7,1 C 11,7 C 22,5 km/h (4 Bft) 100,00 %
12.04.2018 20:38 16,1 C 10,6 C 55 % 1001,2 hPa 0,0 l/m 16,3 km/h (3 Bft) O-SO 121 0 min 0,000 mm 0,0 UV-I 0 W/m 7,1 C 12,1 C 22,5 km/h (4 Bft) 100,00 %
12.04.2018 20:39 16,1 C 10,6 C 54 % 1001,2 hPa 0,0 l/m 23,2 km/h (4 Bft) SO 134 0 min 0,000 mm 0,0 UV-I 0 W/m 6,8 C 10,5 C 29,0 km/h (5 Bft) 100,00 %
12.04.2018 20:40 16,1 C 10,6 C 55 % 1001,2 hPa 0,0 l/m 15,8 km/h (3 Bft) O-SO 112 0 min 0,000 mm 0,0 UV-I 0 W/m 7,1 C 12,3 C 20,9 km/h (4 Bft) 95,65 %
12.04.2018 20:41 16,1 C 10,6 C 54 % 1001,2 hPa 0,0 l/m 16,5 km/h (3 Bft) O-SO 122 0 min 0,000 mm 0,0 UV-I 0 W/m 6,8 C 12,1 C 20,9 km/h (4 Bft) 100,00 %
12.04.2018 20:42 16,1 C 10,6 C 54 % 1001,2 hPa 0,0 l/m 17,8 km/h (3 Bft) SO 130 0 min 0,000 mm 0,0 UV-I 0 W/m 6,8 C 11,7 C 22,5 km/h (4 Bft) 100,00 %
12.04.2018 20:43 16,1 C 10,6 C 54 % 1001,3 hPa 0,0 l/m 19,6 km/h (3 Bft) O-SO 120 0 min 0,000 mm 0,0 UV-I 0 W/m 6,8 C 11,3 C 25,7 km/h (4 Bft) 100,00 %
12.04.2018 20:44 16,1 C 10,6 C 55 % 1001,3 hPa 0,0 l/m 17,1 km/h (3 Bft) SO 129 0 min 0,000 mm 0,0 UV-I 0 W/m 7,1 C 11,9 C 24,1 km/h (4 Bft) 100,00 %
12.04.2018 20:45 16,1 C 10,6 C 54 % 1001,3 hPa 0,0 l/m 19,8 km/h (3 Bft) O-SO 119 0 min 0,000 mm 0,0 UV-I 0 W/m 6,8 C 11,2 C 29,0 km/h (5 Bft) 100,00 %
12.04.2018 20:46 16,1 C 10,6 C 54 % 1001,3 hPa 0,0 l/m 21,5 km/h (4 Bft) O-SO 122 0 min 0,000 mm 0,0 UV-I 0 W/m 6,8 C 10,8 C 29,0 km/h (5 Bft) 96,15 %
12.04.2018 20:48 16,1 C 10,6 C 54 % 1001,3 hPa 0,0 l/m 18,6 km/h (3 Bft) O 79 0 min 0,000 mm 0,0 UV-I 0 W/m 6,8 C 11,5 C 30,6 km/h (5 Bft) 100,00 %
12.04.2018 20:49 16,1 C 10,6 C 54 % 1001,3 hPa 0,0 l/m 18,4 km/h (3 Bft) O-SO 121 0 min 0,000 mm 0,0 UV-I 0 W/m 6,8 C 11,6 C 22,5 km/h (4 Bft) 100,00 %
12.04.2018 20:50 16,1 C 10,6 C 54 % 1001,4 hPa 0,0 l/m 18,1 km/h (3 Bft) O-SO 120 0 min 0,000 mm 0,0 UV-I 0 W/m 6,8 C 11,6 C 24,1 km/h (4 Bft) 100,00 %
12.04.2018 20:51 16,1 C 10,6 C 55 % 1001,3 hPa 0,0 l/m 22,1 km/h (4 Bft) O 98 0 min 0,000 mm 0,0 UV-I 0 W/m 7,1 C 10,7 C 27,4 km/h (4 Bft) 100,00 %
12.04.2018 20:52 16,1 C 10,6 C 54 % 1001,4 hPa 0,0 l/m 19,8 km/h (3 Bft) O 85 0 min 0,000 mm 0,0 UV-I 0 W/m 6,8 C 11,2 C 25,7 km/h (4 Bft) 91,30 %
12.04.2018 20:53 16,1 C 10,6 C 54 % 1001,4 hPa 0,0 l/m 21,0 km/h (4 Bft) O 101 0 min 0,000 mm 0,0 UV-I 0 W/m 6,8 C 10,9 C 32,2 km/h (5 Bft) 100,00 %
12.04.2018 20:54 16,1 C 10,6 C 54 % 1001,4 hPa 0,0 l/m 21,6 km/h (4 Bft) O-SO 107 0 min 0,000 mm 0,0 UV-I 0 W/m 6,8 C 10,8 C 27,4 km/h (4 Bft) 100,00 %
12.04.2018 20:55 16,1 C 10,6 C 54 % 1001,4 hPa 0,0 l/m 20,4 km/h (4 Bft) O-SO 109 0 min 0,000 mm 0,0 UV-I 0 W/m 6,8 C 11,1 C 29,0 km/h (5 Bft) 100,00 %
12.04.2018 20:56 16,1 C 10,6 C 54 % 1001,4 hPa 0,0 l/m 18,9 km/h (3 Bft) O-SO 103 0 min 0,000 mm 0,0 UV-I 0 W/m 6,8 C 11,4 C 22,5 km/h (4 Bft) 100,00 %
12.04.2018 20:57 16,1 C 10,6 C 54 % 1001,4 hPa 0,0 l/m 19,0 km/h (3 Bft) SO 124 0 min 0,000 mm 0,0 UV-I 0 W/m 6,8 C 11,4 C 24,1 km/h (4 Bft) 100,00 %
12.04.2018 20:58 16,1 C 10,6 C 54 % 1001,4 hPa 0,0 l/m 19,2 km/h (3 Bft) O-SO 103 0 min 0,000 mm 0,0 UV-I 0 W/m 6,8 C 11,4 C 24,1 km/h (4 Bft) 100,00 %
12.04.2018 20:59 16,1 C 10,6 C 54 % 1001,4 hPa 0,0 l/m 16,7 km/h (3 Bft) O-SO 123 0 min 0,000 mm 0,0 UV-I 0 W/m 6,8 C 12,0 C 22,5 km/h (4 Bft) 100,00 %
12.04.2018 21:00 16,0 C 10,6 C 54 % 1001,4 hPa 0,0 l/m 14,6 km/h (3 Bft) O-SO 103 0 min 0,127 mm 0,0 UV-I 0 W/m 6,7 C 12,5 C 17,7 km/h (3 Bft) 100,00 %
12.04.2018 21:01 15,9 C 10,6 C 55 % 1001,4 hPa 0,0 l/m 17,7 km/h (3 Bft) SO 128 0 min 0,000 mm 0,0 UV-I 0 W/m 6,9 C 11,5 C 22,5 km/h (4 Bft) 100,00 %
12.04.2018 21:03 15,8 C 10,6 C 55 % 1001,4 hPa 0,0 l/m 15,6 km/h (3 Bft) O-SO 113 0 min 0,000 mm 0,0 UV-I 0 W/m 6,8 C 12,0 C 20,9 km/h (4 Bft) 97,87 %
12.04.2018 21:04 15,8 C 10,6 C 55 % 1001,4 hPa 0,0 l/m 16,7 km/h (3 Bft) O 87 0 min 0,000 mm 0,0 UV-I 0 W/m 6,8 C 11,7 C 25,7 km/h (4 Bft) 92,59 %
12.04.2018 21:05 15,8 C 10,6 C 55 % 1001,4 hPa 0,0 l/m 11,9 km/h (2 Bft) O-SO 117 0 min 0,000 mm 0,0 UV-I 0 W/m 6,8 C 13,2 C 14,5 km/h (3 Bft) 95,65 %
12.04.2018 21:06 15,8 C 10,6 C 55 % 1001,4 hPa 0,0 l/m 10,5 km/h (2 Bft) SO 134 0 min 0,000 mm 0,0 UV-I 0 W/m 6,8 C 13,8 C 14,5 km/h (3 Bft) 100,00 %
12.04.2018 21:07 15,8 C 10,6 C 55 % 1001,4 hPa 0,0 l/m 16,4 km/h (3 Bft) O-SO 110 0 min 0,000 mm 0,0 UV-I 0 W/m 6,8 C 11,7 C 20,9 km/h (4 Bft) 94,12 %
12.04.2018 21:08 15,8 C 10,6 C 55 % 1001,4 hPa 0,0 l/m 14,4 km/h (3 Bft) O-SO 104 0 min 0,000 mm 0,0 UV-I 0 W/m 6,8 C 12,4 C 16,1 km/h (3 Bft) 100,00 %
12.04.2018 21:09 15,8 C 10,6 C 55 % 1001,5 hPa 0,0 l/m 13,9 km/h (3 Bft) O-SO 123 0 min 0,000 mm 0,0 UV-I 0 W/m 6,8 C 12,5 C 19,3 km/h (3 Bft) 93,10 %
12.04.2018 21:10 15,8 C 10,6 C 55 % 1001,5 hPa 0,0 l/m 10,9 km/h (2 Bft) O 93 0 min 0,000 mm 0,0 UV-I 0 W/m 6,8 C 13,6 C 17,7 km/h (3 Bft) 100,00 %
12.04.2018 21:11 15,8 C 10,6 C 55 % 1001,4 hPa 0,0 l/m 16,2 km/h (3 Bft) O 80 0 min 0,000 mm 0,0 UV-I 0 W/m 6,8 C 11,8 C 20,9 km/h (4 Bft) 96,15 %
12.04.2018 21:12 15,8 C 10,6 C 55 % 1001,4 hPa 0,0 l/m 11,0 km/h (2 Bft) O-SO 111 0 min 0,000 mm 0,0 UV-I 0 W/m 6,8 C 13,6 C 19,3 km/h (3 Bft) 96,30 %
12.04.2018 21:13 15,8 C 10,6 C 56 % 1001,4 hPa 0,0 l/m 18,0 km/h (3 Bft) O 100 0 min 0,000 mm 0,0 UV-I 0 W/m 7,0 C 11,3 C 22,5 km/h (4 Bft) 100,00 %
12.04.2018 21:14 15,8 C 10,6 C 55 % 1001,3 hPa 0,0 l/m 18,7 km/h (3 Bft) O-SO 115 0 min 0,000 mm 0,0 UV-I 0 W/m 6,8 C 11,1 C 24,1 km/h (4 Bft) 93,33 %
12.04.2018 21:15 15,8 C 10,6 C 56 % 1001,3 hPa 0,0 l/m 17,6 km/h (3 Bft) O 99 0 min 0,000 mm 0,0 UV-I 0 W/m 7,0 C 11,4 C 24,1 km/h (4 Bft) 100,00 %
12.04.2018 21:16 15,8 C 10,6 C 56 % 1001,3 hPa 0,0 l/m 21,8 km/h (4 Bft) O 91 0 min 0,000 mm 0,0 UV-I 0 W/m 7,0 C 10,4 C 29,0 km/h (5 Bft) 96,15 %
12.04.2018 21:18 15,8 C 10,6 C 56 % 1001,3 hPa 0,0 l/m 21,4 km/h (4 Bft) O-SO 107 0 min 0,000 mm 0,0 UV-I 0 W/m 7,0 C 10,5 C 27,4 km/h (4 Bft) 95,12 %
12.04.2018 21:19 15,8 C 10,6 C 56 % 1001,3 hPa 0,0 l/m 20,7 km/h (4 Bft) O-SO 106 0 min 0,000 mm 0,0 UV-I 0 W/m 7,0 C 10,6 C 29,0 km/h (5 Bft) 92,59 %
12.04.2018 21:20 15,8 C 10,6 C 56 % 1001,3 hPa 0,0 l/m 20,5 km/h (4 Bft) O-SO 117 0 min 0,000 mm 0,0 UV-I 0 W/m 7,0 C 10,7 C 27,4 km/h (4 Bft) 95,65 %
12.04.2018 21:21 15,8 C 10,6 C 56 % 1001,3 hPa 0,0 l/m 24,5 km/h (4 Bft) O-SO 104 0 min 0,000 mm 0,0 UV-I 0 W/m 7,0 C 9,8 C 30,6 km/h (5 Bft) 95,83 %
12.04.2018 21:22 15,8 C 10,6 C 56 % 1001,2 hPa 0,0 l/m 23,5 km/h (4 Bft) SO 128 0 min 0,000 mm 0,0 UV-I 0 W/m 7,0 C 10,0 C 30,6 km/h (5 Bft) 95,65 %
12.04.2018 21:23 15,8 C 10,6 C 56 % 1001,2 hPa 0,0 l/m 20,6 km/h (4 Bft) O-SO 107 0 min 0,000 mm 0,0 UV-I 0 W/m 7,0 C 10,6 C 25,7 km/h (4 Bft) 95,83 %
12.04.2018 21:24 15,8 C 10,6 C 56 % 1001,2 hPa 0,0 l/m 23,8 km/h (4 Bft) O-SO 120 0 min 0,000 mm 0,0 UV-I 0 W/m 7,0 C 9,9 C 27,4 km/h (4 Bft) 100,00 %
12.04.2018 21:25 15,8 C 10,6 C 56 % 1001,2 hPa 0,0 l/m 21,6 km/h (4 Bft) O-SO 112 0 min 0,000 mm 0,0 UV-I 0 W/m 7,0 C 10,4 C 30,6 km/h (5 Bft) 96,15 %
12.04.2018 21:26 15,8 C 10,6 C 57 % 1001,2 hPa 0,0 l/m 17,5 km/h (3 Bft) O-SO 111 0 min 0,000 mm 0,0 UV-I 0 W/m 7,3 C 11,4 C 24,1 km/h (4 Bft) 100,00 %
12.04.2018 21:27 15,7 C 10,6 C 57 % 1001,2 hPa 0,0 l/m 20,0 km/h (4 Bft) O-SO 113 0 min 0,000 mm 0,0 UV-I 0 W/m 7,2 C 10,7 C 25,7 km/h (4 Bft) 95,83 %
12.04.2018 21:28 15,7 C 10,6 C 57 % 1001,2 hPa 0,0 l/m 17,9 km/h (3 Bft) O-SO 110 0 min 0,000 mm 0,0 UV-I 0 W/m 7,2 C 11,2 C 22,5 km/h (4 Bft) 96,15 %
12.04.2018 21:29 15,7 C 10,6 C 57 % 1001,2 hPa 0,0 l/m 21,8 km/h (4 Bft) O-SO 105 0 min 0,000 mm 0,0 UV-I 0 W/m 7,2 C 10,2 C 29,0 km/h (5 Bft) 96,30 %
12.04.2018 21:30 15,7 C 10,6 C 57 % 1001,2 hPa 0,0 l/m 21,9 km/h (4 Bft) O 94 0 min 0,000 mm 0,0 UV-I 0 W/m 7,2 C 10,2 C 30,6 km/h (5 Bft) 100,00 %
12.04.2018 21:31 15,6 C 10,6 C 57 % 1001,3 hPa 0,0 l/m 16,2 km/h (3 Bft) O-SO 111 0 min 0,000 mm 0,0 UV-I 0 W/m 7,1 C 11,5 C 25,7 km/h (4 Bft) 96,15 %
12.04.2018 21:32 15,6 C 10,6 C 58 % 1001,3 hPa 0,0 l/m 20,2 km/h (4 Bft) O 100 0 min 0,000 mm 0,0 UV-I 0 W/m 7,4 C 10,5 C 25,7 km/h (4 Bft) 96,67 %
12.04.2018 21:33 15,5 C 10,0 C 58 % 1001,3 hPa 0,0 l/m 20,0 km/h (4 Bft) O 96 0 min 0,000 mm 0,0 UV-I 0 W/m 7,3 C 10,4 C 27,4 km/h (4 Bft) 100,00 %
12.04.2018 21:34 15,5 C 10,6 C 58 % 1001,3 hPa 0,0 l/m 17,9 km/h (3 Bft) O-SO 105 0 min 0,000 mm 0,0 UV-I 0 W/m 7,3 C 10,9 C 22,5 km/h (4 Bft) 93,33 %
12.04.2018 21:35 15,5 C 10,6 C 58 % 1001,4 hPa 0,0 l/m 16,1 km/h (3 Bft) SO 124 0 min 0,000 mm 0,0 UV-I 0 W/m 7,3 C 11,5 C 22,5 km/h (4 Bft) 100,00 %
12.04.2018 21:36 15,4 C 10,6 C 58 % 1001,4 hPa 0,0 l/m 8,7 km/h (2 Bft) O-NO 62 0 min 0,000 mm 0,0 UV-I 0 W/m 7,2 C 14,2 C 12,9 km/h (3 Bft) 95,83 %
12.04.2018 21:38 15,3 C 10,6 C 59 % 1001,4 hPa 0,0 l/m 11,9 km/h (2 Bft) O 85 0 min 0,000 mm 0,0 UV-I 0 W/m 7,3 C 12,7 C 17,7 km/h (3 Bft) 100,00 %
12.04.2018 21:39 15,3 C 10,6 C 59 % 1001,4 hPa 0,0 l/m 16,3 km/h (3 Bft) O 91 0 min 0,000 mm 0,0 UV-I 0 W/m 7,3 C 11,1 C 19,3 km/h (3 Bft) 95,65 %
12.04.2018 21:40 15,2 C 10,6 C 59 % 1001,4 hPa 0,0 l/m 14,3 km/h (3 Bft) O 93 0 min 0,000 mm 0,0 UV-I 0 W/m 7,2 C 11,7 C 17,7 km/h (3 Bft) 100,00 %
12.04.2018 21:41 15,2 C 10,6 C 59 % 1001,4 hPa 0,0 l/m 13,6 km/h (3 Bft) O 79 0 min 0,000 mm 0,0 UV-I 0 W/m 7,2 C 11,9 C 16,1 km/h (3 Bft) 100,00 %
12.04.2018 21:42 15,1 C 10,6 C 60 % 1001,4 hPa 0,0 l/m 10,5 km/h (2 Bft) O 89 0 min 0,000 mm 0,0 UV-I 0 W/m 7,4 C 13,0 C 14,5 km/h (3 Bft) 100,00 %
12.04.2018 21:43 15,1 C 10,6 C 60 % 1001,4 hPa 0,0 l/m 6,8 km/h (2 Bft) O-NO 78 0 min 0,000 mm 0,0 UV-I 0 W/m 7,4 C 14,9 C 9,7 km/h (2 Bft) 100,00 %
12.04.2018 21:44 15,0 C 10,6 C 60 % 1001,4 hPa 0,0 l/m 6,9 km/h (2 Bft) O 83 0 min 0,000 mm 0,0 UV-I 0 W/m 7,3 C 14,7 C 11,3 km/h (2 Bft) 100,00 %
12.04.2018 21:45 14,9 C 10,6 C 61 % 1001,4 hPa 0,0 l/m 6,4 km/h (2 Bft) O 90 0 min 0,000 mm 0,0 UV-I 0 W/m 7,4 C 14,9 C 11,3 km/h (2 Bft) 96,15 %
12.04.2018 21:46 14,9 C 10,6 C 61 % 1001,4 hPa 0,0 l/m 8,5 km/h (2 Bft) O-SO 109 0 min 0,000 mm 0,0 UV-I 0 W/m 7,4 C 13,7 C 11,3 km/h (2 Bft) 100,00 %
12.04.2018 21:48 14,9 C 10,6 C 60 % 1001,4 hPa 0,0 l/m 7,6 km/h (2 Bft) O 83 0 min 0,000 mm 0,0 UV-I 0 W/m 7,2 C 14,2 C 11,3 km/h (2 Bft) 93,18 %
12.04.2018 21:49 15,0 C 10,6 C 60 % 1001,4 hPa 0,0 l/m 5,9 km/h (2 Bft) O-SO 115 0 min 0,000 mm 0,0 UV-I 0 W/m 7,3 C 15,0 C 9,7 km/h (2 Bft) 100,00 %
12.04.2018 21:50 15,1 C 10,6 C 59 % 1001,4 hPa 0,0 l/m 7,8 km/h (2 Bft) O-NO 76 0 min 0,000 mm 0,0 UV-I 0 W/m 7,1 C 14,3 C 11,3 km/h (2 Bft) 100,00 %
12.04.2018 21:51 15,2 C 10,6 C 59 % 1001,4 hPa 0,0 l/m 15,5 km/h (3 Bft) O 90 0 min 0,000 mm 0,0 UV-I 0 W/m 7,2 C 11,3 C 25,7 km/h (4 Bft) 100,00 %
12.04.2018 21:52 15,3 C 10,6 C 58 % 1001,4 hPa 0,0 l/m 16,0 km/h (3 Bft) O-SO 109 0 min 0,000 mm 0,0 UV-I 0 W/m 7,1 C 11,2 C 20,9 km/h (4 Bft) 100,00 %
12.04.2018 21:53 15,4 C 10,6 C 58 % 1001,4 hPa 0,0 l/m 17,6 km/h (3 Bft) O-SO 104 0 min 0,000 mm 0,0 UV-I 0 W/m 7,2 C 10,9 C 25,7 km/h (4 Bft) 100,00 %
12.04.2018 21:54 15,7 C 10,6 C 56 % 1001,4 hPa 0,0 l/m 21,6 km/h (4 Bft) O 98 0 min 0,000 mm 0,0 UV-I 0 W/m 6,9 C 10,3 C 32,2 km/h (5 Bft) 100,00 %
12.04.2018 21:55 15,8 C 10,6 C 55 % 1001,5 hPa 0,0 l/m 15,3 km/h (3 Bft) O 84 0 min 0,000 mm 0,0 UV-I 0 W/m 6,8 C 12,1 C 22,5 km/h (4 Bft) 100,00 %
12.04.2018 21:56 16,0 C 10,6 C 55 % 1001,5 hPa 0,0 l/m 11,6 km/h (2 Bft) O-NO 67 0 min 0,000 mm 0,0 UV-I 0 W/m 7,0 C 13,6 C 16,1 km/h (3 Bft) 100,00 %
12.04.2018 21:57 16,1 C 10,6 C 55 % 1001,5 hPa 0,0 l/m 16,7 km/h (3 Bft) O 100 0 min 0,000 mm 0,0 UV-I 0 W/m 7,1 C 12,0 C 29,0 km/h (5 Bft) 100,00 %
12.04.2018 21:58 16,2 C 10,6 C 54 % 1001,4 hPa 0,0 l/m 17,2 km/h (3 Bft) O 84 0 min 0,000 mm 0,0 UV-I 0 W/m 6,9 C 12,0 C 22,5 km/h (4 Bft) 100,00 %
12.04.2018 21:59 16,2 C 10,6 C 54 % 1001,4 hPa 0,0 l/m 16,3 km/h (3 Bft) O 92 0 min 0,000 mm 0,0 UV-I 0 W/m 6,9 C 12,3 C 19,3 km/h (3 Bft) 100,00 %
12.04.2018 22:00 16,2 C 10,6 C 54 % 1001,4 hPa 0,0 l/m 17,1 km/h (3 Bft) O 101 0 min 0,102 mm 0,0 UV-I 0 W/m 6,9 C 12,0 C 20,9 km/h (4 Bft) 100,00 %
12.04.2018 22:02 16,2 C 10,6 C 54 % 1001,4 hPa 0,0 l/m 22,2 km/h (4 Bft) O 93 0 min 0,000 mm 0,0 UV-I 0 W/m 6,9 C 10,8 C 30,6 km/h (5 Bft) 100,00 %
12.04.2018 22:03 16,3 C 10,6 C 54 % 1001,4 hPa 0,0 l/m 16,2 km/h (3 Bft) O-NO 68 0 min 0,000 mm 0,0 UV-I 0 W/m 7,0 C 12,4 C 22,5 km/h (4 Bft) 100,00 %
12.04.2018 22:04 16,3 C 10,6 C 54 % 1001,4 hPa 0,0 l/m 16,4 km/h (3 Bft) O 92 0 min 0,000 mm 0,0 UV-I 0 W/m 7,0 C 12,4 C 22,5 km/h (4 Bft) 100,00 %
12.04.2018 22:05 16,3 C 10,6 C 54 % 1001,3 hPa 0,0 l/m 19,8 km/h (3 Bft) O 90 0 min 0,000 mm 0,0 UV-I 0 W/m 7,0 C 11,5 C 29,0 km/h (5 Bft) 100,00 %
12.04.2018 22:06 16,3 C 10,6 C 54 % 1001,3 hPa 0,0 l/m 21,9 km/h (4 Bft) O-NO 64 0 min 0,000 mm 0,0 UV-I 0 W/m 7,0 C 11,0 C 27,4 km/h (4 Bft) 100,00 %
12.04.2018 22:07 16,3 C 10,6 C 54 % 1001,4 hPa 0,0 l/m 19,4 km/h (3 Bft) O-SO 111 0 min 0,000 mm 0,0 UV-I 0 W/m 7,0 C 11,6 C 25,7 km/h (4 Bft) 100,00 %
12.04.2018 22:08 16,3 C 10,6 C 54 % 1001,4 hPa 0,0 l/m 18,5 km/h (3 Bft) O-SO 119 0 min 0,000 mm 0,0 UV-I 0 W/m 7,0 C 11,8 C 22,5 km/h (4 Bft) 96,97 %
12.04.2018 22:09 16,3 C 10,6 C 54 % 1001,4 hPa 0,0 l/m 20,2 km/h (4 Bft) O 87 0 min 0,000 mm 0,0 UV-I 0 W/m 7,0 C 11,4 C 27,4 km/h (4 Bft) 100,00 %
12.04.2018 22:10 16,2 C 10,6 C 55 % 1001,4 hPa 0,0 l/m 15,0 km/h (3 Bft) O 91 0 min 0,000 mm 0,0 UV-I 0 W/m 7,2 C 12,6 C 20,9 km/h (4 Bft) 100,00 %
12.04.2018 22:11 16,2 C 10,6 C 55 % 1001,3 hPa 0,0 l/m 13,3 km/h (3 Bft) O 82 0 min 0,000 mm 0,0 UV-I 0 W/m 7,2 C 13,2 C 16,1 km/h (3 Bft) 100,00 %
12.04.2018 22:12 16,1 C 10,6 C 55 % 1001,3 hPa 0,0 l/m 9,4 km/h (2 Bft) O-SO 109 0 min 0,000 mm 0,0 UV-I 0 W/m 7,1 C 14,6 C 12,9 km/h (3 Bft) 100,00 %
12.04.2018 22:13 16,0 C 10,6 C 56 % 1001,3 hPa 0,0 l/m 7,6 km/h (2 Bft) O-SO 114 0 min 0,000 mm 0,0 UV-I 0 W/m 7,2 C 15,4 C 12,9 km/h (3 Bft) 100,00 %
12.04.2018 22:14 15,9 C 10,0 C 56 % 1001,3 hPa 0,0 l/m 8,6 km/h (2 Bft) O-SO 115 0 min 0,000 mm 0,0 UV-I 0 W/m 7,1 C 14,8 C 16,1 km/h (3 Bft) 100,00 %
12.04.2018 22:15 15,9 C 10,6 C 56 % 1001,4 hPa 0,0 l/m 10,9 km/h (2 Bft) O 101 0 min 0,000 mm 0,0 UV-I 0 W/m 7,1 C 13,7 C 14,5 km/h (3 Bft) 100,00 %
12.04.2018 22:16 15,8 C 10,6 C 57 % 1001,4 hPa 0,0 l/m 10,4 km/h (2 Bft) O 98 0 min 0,000 mm 0,0 UV-I 0 W/m 7,3 C 13,8 C 11,3 km/h (2 Bft) 96,67 %
12.04.2018 22:17 15,8 C 10,6 C 57 % 1001,3 hPa 0,0 l/m 13,0 km/h (3 Bft) O-SO 119 0 min 0,000 mm 0,0 UV-I 0 W/m 7,3 C 12,8 C 19,3 km/h (3 Bft) 100,00 %
12.04.2018 22:18 15,8 C 10,6 C 57 % 1001,3 hPa 0,0 l/m 15,0 km/h (3 Bft) O 86 0 min 0,000 mm 0,0 UV-I 0 W/m 7,3 C 12,2 C 20,9 km/h (4 Bft) 100,00 %
12.04.2018 22:19 15,8 C 10,6 C 57 % 1001,3 hPa 0,0 l/m 11,9 km/h (2 Bft) O 81 0 min 0,000 mm 0,0 UV-I 0 W/m 7,3 C 13,2 C 16,1 km/h (3 Bft) 100,00 %
12.04.2018 22:20 15,8 C 10,6 C 57 % 1001,3 hPa 0,0 l/m 13,4 km/h (3 Bft) O 88 0 min 0,000 mm 0,0 UV-I 0 W/m 7,3 C 12,7 C 17,7 km/h (3 Bft) 96,30 %
12.04.2018 22:21 15,8 C 10,6 C 57 % 1001,3 hPa 0,0 l/m 13,8 km/h (3 Bft) O-SO 113 0 min 0,000 mm 0,0 UV-I 0 W/m 7,3 C 12,6 C 16,1 km/h (3 Bft) 96,15 %
12.04.2018 22:23 15,9 C 10,6 C 56 % 1001,3 hPa 0,0 l/m 14,7 km/h (3 Bft) SO 129 0 min 0,000 mm 0,0 UV-I 0 W/m 7,1 C 12,4 C 22,5 km/h (4 Bft) 100,00 %
12.04.2018 22:24 15,9 C 10,6 C 56 % 1001,3 hPa 0,0 l/m 13,1 km/h (3 Bft) O 94 0 min 0,000 mm 0,0 UV-I 0 W/m 7,1 C 12,9 C 17,7 km/h (3 Bft) 100,00 %
12.04.2018 22:25 16,0 C 10,6 C 56 % 1001,3 hPa 0,0 l/m 15,7 km/h (3 Bft) O-SO 107 0 min 0,000 mm 0,0 UV-I 0 W/m 7,2 C 12,2 C 17,7 km/h (3 Bft) 96,77 %
12.04.2018 22:26 16,1 C 10,6 C 55 % 1001,3 hPa 0,0 l/m 12,9 km/h (3 Bft) O 101 0 min 0,000 mm 0,0 UV-I 0 W/m 7,1 C 13,2 C 16,1 km/h (3 Bft) 100,00 %
12.04.2018 22:27 16,1 C 10,6 C 56 % 1001,3 hPa 0,0 l/m 9,2 km/h (2 Bft) O-SO 123 0 min 0,000 mm 0,0 UV-I 0 W/m 7,3 C 14,7 C 14,5 km/h (3 Bft) 100,00 %
12.04.2018 22:28 16,0 C 10,6 C 56 % 1001,3 hPa 0,0 l/m 13,0 km/h (3 Bft) SO 127 0 min 0,000 mm 0,0 UV-I 0 W/m 7,2 C 13,1 C 16,1 km/h (3 Bft) 100,00 %
12.04.2018 22:29 15,9 C 10,6 C 56 % 1001,3 hPa 0,0 l/m 10,9 km/h (2 Bft) O-SO 123 0 min 0,000 mm 0,0 UV-I 0 W/m 7,1 C 13,7 C 17,7 km/h (3 Bft) 100,00 %
12.04.2018 22:30 16,0 C 10,6 C 56 % 1001,3 hPa 0,0 l/m 12,8 km/h (3 Bft) O 98 0 min 0,000 mm 0,0 UV-I 0 W/m 7,2 C 13,1 C 17,7 km/h (3 Bft) 97,37 %
12.04.2018 22:31 16,1 C 10,6 C 56 % 1001,2 hPa 0,0 l/m 11,1 km/h (2 Bft) O-NO 60 0 min 0,000 mm 0,0 UV-I 0 W/m 7,3 C 13,9 C 14,5 km/h (3 Bft) 100,00 %
12.04.2018 22:33 16,1 C 10,6 C 56 % 1001,2 hPa 0,0 l/m 12,4 km/h (3 Bft) O 90 0 min 0,000 mm 0,0 UV-I 0 W/m 7,3 C 13,4 C 17,7 km/h (3 Bft) 97,56 %
12.04.2018 22:34 16,2 C 10,6 C 55 % 1001,2 hPa 0,0 l/m 13,0 km/h (3 Bft) NO 47 0 min 0,000 mm 0,0 UV-I 0 W/m 7,2 C 13,3 C 22,5 km/h (4 Bft) 96,55 %
12.04.2018 22:35 16,2 C 10,6 C 55 % 1001,1 hPa 0,0 l/m 19,1 km/h (3 Bft) O-NO 69 0 min 0,000 mm 0,0 UV-I 0 W/m 7,2 C 11,5 C 24,1 km/h (4 Bft) 100,00 %
12.04.2018 22:36 16,3 C 10,6 C 55 % 1001,2 hPa 0,0 l/m 21,1 km/h (4 Bft) O 81 0 min 0,000 mm 0,0 UV-I 0 W/m 7,2 C 11,2 C 25,7 km/h (4 Bft) 100,00 %
12.04.2018 22:37 16,3 C 10,6 C 55 % 1001,2 hPa 0,0 l/m 16,9 km/h (3 Bft) O 84 0 min 0,000 mm 0,0 UV-I 0 W/m 7,2 C 12,2 C 20,9 km/h (4 Bft) 94,44 %
12.04.2018 22:38 16,2 C 10,0 C 56 % 1001,3 hPa 0,0 l/m 22,2 km/h (4 Bft) O 98 0 min 0,000 mm 0,0 UV-I 0 W/m 7,4 C 10,8 C 30,6 km/h (5 Bft) 100,00 %
12.04.2018 22:39 16,2 C 10,6 C 56 % 1001,2 hPa 0,0 l/m 20,1 km/h (4 Bft) O-SO 109 0 min 0,000 mm 0,0 UV-I 0 W/m 7,4 C 11,3 C 27,4 km/h (4 Bft) 97,56 %
12.04.2018 22:40 16,2 C 10,6 C 56 % 1001,2 hPa 0,0 l/m 18,0 km/h (3 Bft) O-NO 71 0 min 0,000 mm 0,0 UV-I 0 W/m 7,4 C 11,8 C 27,4 km/h (4 Bft) 95,65 %
12.04.2018 22:41 16,1 C 10,6 C 56 % 1001,3 hPa 0,0 l/m 18,7 km/h (3 Bft) O-NO 77 0 min 0,000 mm 0,0 UV-I 0 W/m 7,3 C 11,5 C 24,1 km/h (4 Bft) 91,67 %
12.04.2018 22:42 16,1 C 10,6 C 56 % 1001,3 hPa 0,0 l/m 16,4 km/h (3 Bft) O 100 0 min 0,000 mm 0,0 UV-I 0 W/m 7,3 C 12,1 C 19,3 km/h (3 Bft) 96,88 %
12.04.2018 22:43 16,1 C 10,6 C 57 % 1001,2 hPa 0,0 l/m 18,4 km/h (3 Bft) O 94 0 min 0,000 mm 0,0 UV-I 0 W/m 7,6 C 11,6 C 24,1 km/h (4 Bft) 100,00 %
12.04.2018 22:44 16,0 C 10,6 C 57 % 1001,3 hPa 0,0 l/m 19,8 km/h (3 Bft) O-SO 107 0 min 0,000 mm 0,0 UV-I 0 W/m 7,5 C 11,1 C 25,7 km/h (4 Bft) 96,15 %
12.04.2018 22:45 15,9 C 10,6 C 57 % 1001,3 hPa 0,0 l/m 16,5 km/h (3 Bft) O-SO 104 0 min 0,000 mm 0,0 UV-I 0 W/m 7,4 C 11,8 C 20,9 km/h (4 Bft) 100,00 %
12.04.2018 22:46 15,9 C 10,6 C 57 % 1001,2 hPa 0,0 l/m 15,1 km/h (3 Bft) O-SO 119 0 min 0,000 mm 0,0 UV-I 0 W/m 7,4 C 12,3 C 22,5 km/h (4 Bft) 96,30 %
12.04.2018 22:47 15,8 C 10,6 C 57 % 1001,3 hPa 0,0 l/m 17,0 km/h (3 Bft) O 94 0 min 0,000 mm 0,0 UV-I 0 W/m 7,3 C 11,6 C 22,5 km/h (4 Bft) 95,65 %
12.04.2018 22:48 15,8 C 10,6 C 57 % 1001,2 hPa 0,0 l/m 18,5 km/h (3 Bft) O-SO 109 0 min 0,000 mm 0,0 UV-I 0 W/m 7,3 C 11,2 C 25,7 km/h (4 Bft) 100,00 %
12.04.2018 22:49 15,9 C 10,6 C 57 % 1001,2 hPa 0,0 l/m 21,9 km/h (4 Bft) O 84 0 min 0,000 mm 0,0 UV-I 0 W/m 7,4 C 10,5 C 30,6 km/h (5 Bft) 91,30 %
12.04.2018 22:50 15,9 C 10,6 C 57 % 1001,2 hPa 0,0 l/m 19,5 km/h (3 Bft) O 98 0 min 0,000 mm 0,0 UV-I 0 W/m 7,4 C 11,0 C 27,4 km/h (4 Bft) 100,00 %
12.04.2018 22:51 16,0 C 10,6 C 57 % 1001,2 hPa 0,0 l/m 18,2 km/h (3 Bft) O-SO 103 0 min 0,000 mm 0,0 UV-I 0 W/m 7,5 C 11,5 C 24,1 km/h (4 Bft) 95,65 %
12.04.2018 22:52 16,0 C 10,6 C 57 % 1001,3 hPa 0,0 l/m 16,2 km/h (3 Bft) O 90 0 min 0,000 mm 0,0 UV-I 0 W/m 7,5 C 12,0 C 20,9 km/h (4 Bft) 97,95 %
12.04.2018 22:53 16,0 C 10,6 C 57 % 1001,3 hPa 0,0 l/m 18,5 km/h (3 Bft) O-SO 116 0 min 0,000 mm 0,0 UV-I 0 W/m 7,5 C 11,4 C 22,5 km/h (4 Bft) 97,56 %
12.04.2018 22:54 16,0 C 10,6 C 57 % 1001,3 hPa 0,0 l/m 20,2 km/h (4 Bft) O 81 0 min 0,000 mm 0,0 UV-I 0 W/m 7,5 C 11,0 C 37,0 km/h (5 Bft) 96,30 %
12.04.2018 22:55 16,1 C 10,6 C 56 % 1001,2 hPa 0,0 l/m 21,0 km/h (4 Bft) O-SO 109 0 min 0,000 mm 0,0 UV-I 0 W/m 7,3 C 10,9 C 25,7 km/h (4 Bft) 95,65 %
12.04.2018 22:56 16,1 C 10,6 C 56 % 1001,2 hPa 0,0 l/m 17,5 km/h (3 Bft) O 87 0 min 0,000 mm 0,0 UV-I 0 W/m 7,3 C 11,8 C 25,7 km/h (4 Bft) 96,30 %
12.04.2018 22:57 16,0 C 10,6 C 57 % 1001,2 hPa 0,0 l/m 14,6 km/h (3 Bft) O-NO 69 0 min 0,000 mm 0,0 UV-I 0 W/m 7,5 C 12,5 C 17,7 km/h (3 Bft) 100,00 %
12.04.2018 22:58 15,9 C 10,6 C 57 % 1001,2 hPa 0,0 l/m 15,8 km/h (3 Bft) O-SO 119 0 min 0,000 mm 0,0 UV-I 0 W/m 7,4 C 12,0 C 27,4 km/h (4 Bft) 96,30 %
12.04.2018 22:59 15,9 C 10,6 C 57 % 1001,2 hPa 0,0 l/m 15,7 km/h (3 Bft) O 93 0 min 0,000 mm 0,0 UV-I 0 W/m 7,4 C 12,1 C 19,3 km/h (3 Bft) 100,00 %
12.04.2018 23:00 15,9 C 10,6 C 57 % 1001,2 hPa 0,0 l/m 18,4 km/h (3 Bft) O 82 0 min 0,102 mm 0,0 UV-I 0 W/m 7,4 C 11,3 C 25,7 km/h (4 Bft) 92,59 %
12.04.2018 23:01 15,8 C 10,6 C 58 % 1001,2 hPa 0,0 l/m 20,0 km/h (4 Bft) O 96 0 min 0,000 mm 0,0 UV-I 0 W/m 7,6 C 10,8 C 35,4 km/h (5 Bft) 100,00 %
12.04.2018 23:02 15,8 C 10,6 C 57 % 1001,2 hPa 0,0 l/m 19,9 km/h (4 Bft) O 95 0 min 0,000 mm 0,0 UV-I 0 W/m 7,3 C 10,8 C 27,4 km/h (4 Bft) 96,15 %
12.04.2018 23:03 15,8 C 10,6 C 58 % 1001,2 hPa 0,0 l/m 23,5 km/h (4 Bft) O 101 0 min 0,000 mm 0,0 UV-I 0 W/m 7,6 C 10,0 C 33,8 km/h (5 Bft) 100,00 %
12.04.2018 23:04 15,9 C 10,6 C 57 % 1001,2 hPa 0,0 l/m 17,0 km/h (3 Bft) O-SO 103 0 min 0,000 mm 0,0 UV-I 0 W/m 7,4 C 11,7 C 24,1 km/h (4 Bft) 92,31 %
12.04.2018 23:05 15,9 C 10,6 C 57 % 1001,1 hPa 0,0 l/m 22,2 km/h (4 Bft) O 98 0 min 0,000 mm 0,0 UV-I 0 W/m 7,4 C 10,4 C 27,4 km/h (4 Bft) 100,00 %
12.04.2018 23:06 15,9 C 10,6 C 57 % 1001,1 hPa 0,0 l/m 13,6 km/h (3 Bft) O-SO 107 0 min 0,000 mm 0,0 UV-I 0 W/m 7,4 C 12,7 C 22,5 km/h (4 Bft) 92,31 %
12.04.2018 23:07 15,8 C 10,6 C 58 % 1001,1 hPa 0,0 l/m 14,1 km/h (3 Bft) O 91 0 min 0,000 mm 0,0 UV-I 0 W/m 7,6 C 12,5 C 20,9 km/h (4 Bft) 92,59 %
12.04.2018 23:08 15,8 C 10,6 C 58 % 1001,0 hPa 0,0 l/m 18,8 km/h (3 Bft) O-SO 119 0 min 0,000 mm 0,0 UV-I 0 W/m 7,6 C 11,1 C 22,5 km/h (4 Bft) 96,15 %
12.04.2018 23:09 15,8 C 10,6 C 58 % 1001,0 hPa 0,0 l/m 11,6 km/h (2 Bft) O 94 0 min 0,000 mm 0,0 UV-I 0 W/m 7,6 C 13,3 C 16,1 km/h (3 Bft) 91,67 %
12.04.2018 23:10 15,8 C 10,6 C 58 % 1000,9 hPa 0,0 l/m 14,3 km/h (3 Bft) O-SO 107 0 min 0,000 mm 0,0 UV-I 0 W/m 7,6 C 12,4 C 19,3 km/h (3 Bft) 96,88 %
12.04.2018 23:11 15,8 C 10,6 C 58 % 1000,9 hPa 0,0 l/m 20,0 km/h (4 Bft) O-SO 116 0 min 0,000 mm 0,0 UV-I 0 W/m 7,6 C 10,8 C 27,4 km/h (4 Bft) 92,59 %
12.04.2018 23:12 15,8 C 10,6 C 58 % 1000,9 hPa 0,0 l/m 17,4 km/h (3 Bft) O-SO 102 0 min 0,000 mm 0,0 UV-I 0 W/m 7,6 C 11,5 C 22,5 km/h (4 Bft) 97,81 %
12.04.2018 23:13 15,8 C 10,6 C 58 % 1000,9 hPa 0,0 l/m 18,6 km/h (3 Bft) O-SO 107 0 min 0,000 mm 0,0 UV-I 0 W/m 7,6 C 11,1 C 25,7 km/h (4 Bft) 95,12 %
12.04.2018 23:14 15,8 C 10,6 C 58 % 1000,9 hPa 0,0 l/m 17,9 km/h (3 Bft) O 101 0 min 0,000 mm 0,0 UV-I 0 W/m 7,6 C 11,3 C 22,5 km/h (4 Bft) 96,15 %
12.04.2018 23:15 15,8 C 10,6 C 58 % 1000,9 hPa 0,0 l/m 19,9 km/h (4 Bft) O 83 0 min 0,000 mm 0,0 UV-I 0 W/m 7,6 C 10,8 C 25,7 km/h (4 Bft) 91,67 %
12.04.2018 23:16 15,8 C 10,6 C 58 % 1000,9 hPa 0,0 l/m 17,1 km/h (3 Bft) O-SO 121 0 min 0,000 mm 0,0 UV-I 0 W/m 7,6 C 11,5 C 22,5 km/h (4 Bft) 94,44 %
12.04.2018 23:17 15,8 C 10,6 C 58 % 1000,9 hPa 0,0 l/m 18,4 km/h (3 Bft) O-SO 113 0 min 0,000 mm 0,0 UV-I 0 W/m 7,6 C 11,2 C 27,4 km/h (4 Bft) 95,83 %
12.04.2018 23:18 15,8 C 10,6 C 58 % 1000,9 hPa 0,0 l/m 14,5 km/h (3 Bft) O 94 0 min 0,000 mm 0,0 UV-I 0 W/m 7,6 C 12,3 C 19,3 km/h (3 Bft) 92,86 %
12.04.2018 23:19 15,8 C 10,6 C 58 % 1000,9 hPa 0,0 l/m 18,4 km/h (3 Bft) O 100 0 min 0,000 mm 0,0 UV-I 0 W/m 7,6 C 11,2 C 24,1 km/h (4 Bft) 95,83 %
12.04.2018 23:20 15,8 C 10,6 C 58 % 1000,9 hPa 0,0 l/m 19,3 km/h (3 Bft) O 88 0 min 0,000 mm 0,0 UV-I 0 W/m 7,6 C 11,0 C 24,1 km/h (4 Bft) 92,31 %
12.04.2018 23:21 15,8 C 10,6 C 58 % 1000,9 hPa 0,0 l/m 22,9 km/h (4 Bft) O 99 0 min 0,000 mm 0,0 UV-I 0 W/m 7,6 C 10,1 C 27,4 km/h (4 Bft) 92,59 %
12.04.2018 23:23 15,8 C 10,6 C 58 % 1000,8 hPa 0,0 l/m 22,2 km/h (4 Bft) O 97 0 min 0,000 mm 0,0 UV-I 0 W/m 7,6 C 10,3 C 32,2 km/h (5 Bft) 95,45 %
12.04.2018 23:24 15,8 C 10,6 C 59 % 1000,8 hPa 0,0 l/m 16,9 km/h (3 Bft) O-SO 109 0 min 0,000 mm 0,0 UV-I 0 W/m 7,8 C 11,6 C 19,3 km/h (3 Bft) 96,15 %
12.04.2018 23:25 15,7 C 10,6 C 59 % 1000,8 hPa 0,0 l/m 18,9 km/h (3 Bft) O 90 0 min 0,000 mm 0,0 UV-I 0 W/m 7,7 C 10,9 C 25,7 km/h (4 Bft) 96,30 %
12.04.2018 23:26 15,6 C 10,6 C 60 % 1000,8 hPa 0,0 l/m 15,0 km/h (3 Bft) O 96 0 min 0,000 mm 0,0 UV-I 0 W/m 7,9 C 11,9 C 20,9 km/h (4 Bft) 93,33 %
12.04.2018 23:27 15,6 C 10,6 C 60 % 1000,9 hPa 0,0 l/m 13,0 km/h (3 Bft) O-SO 110 0 min 0,000 mm 0,0 UV-I 0 W/m 7,9 C 12,6 C 19,3 km/h (3 Bft) 96,15 %
12.04.2018 23:28 15,5 C 10,6 C 60 % 1000,9 hPa 0,0 l/m 10,1 km/h (2 Bft) O-SO 113 0 min 0,000 mm 0,0 UV-I 0 W/m 7,8 C 13,6 C 14,5 km/h (3 Bft) 96,30 %
12.04.2018 23:29 15,4 C 10,6 C 60 % 1000,9 hPa 0,0 l/m 17,0 km/h (3 Bft) O 93 0 min 0,000 mm 0,0 UV-I 0 W/m 7,7 C 11,1 C 20,9 km/h (4 Bft) 91,30 %
12.04.2018 23:30 15,4 C 10,6 C 60 % 1000,9 hPa 0,0 l/m 19,5 km/h (3 Bft) O-SO 102 0 min 0,000 mm 0,0 UV-I 0 W/m 7,7 C 10,4 C 24,1 km/h (4 Bft) 94,44 %
12.04.2018 23:31 15,4 C 10,6 C 60 % 1000,9 hPa 0,0 l/m 13,9 km/h (3 Bft) O 87 0 min 0,000 mm 0,0 UV-I 0 W/m 7,7 C 12,0 C 19,3 km/h (3 Bft) 88,46 %
12.04.2018 23:32 15,5 C 10,6 C 60 % 1000,9 hPa 0,0 l/m 15,6 km/h (3 Bft) O 99 0 min 0,000 mm 0,0 UV-I 0 W/m 7,8 C 11,6 C 19,3 km/h (3 Bft) 95,83 %
12.04.2018 23:33 15,5 C 10,6 C 60 % 1000,9 hPa 0,0 l/m 15,4 km/h (3 Bft) SO 129 0 min 0,000 mm 0,0 UV-I 0 W/m 7,8 C 11,7 C 19,3 km/h (3 Bft) 95,65 %
12.04.2018 23:34 15,5 C 10,6 C 60 % 1000,9 hPa 0,0 l/m 12,8 km/h (3 Bft) O 101 0 min 0,000 mm 0,0 UV-I 0 W/m 7,8 C 12,5 C 16,1 km/h (3 Bft) 93,33 %
12.04.2018 23:35 15,4 C 10,6 C 60 % 1000,9 hPa 0,0 l/m 19,1 km/h (3 Bft) SO 124 0 min 0,000 mm 0,0 UV-I 0 W/m 7,7 C 10,5 C 27,4 km/h (4 Bft) 96,15 %
12.04.2018 23:36 15,5 C 10,6 C 60 % 1000,9 hPa 0,0 l/m 16,6 km/h (3 Bft) O 99 0 min 0,000 mm 0,0 UV-I 0 W/m 7,8 C 11,3 C 25,7 km/h (4 Bft) 92,59 %
12.04.2018 23:37 15,5 C 10,6 C 60 % 1000,9 hPa 0,0 l/m 15,8 km/h (3 Bft) O-SO 109 0 min 0,000 mm 0,0 UV-I 0 W/m 7,8 C 11,5 C 19,3 km/h (3 Bft) 93,10 %
12.04.2018 23:38 15,5 C 10,6 C 60 % 1000,9 hPa 0,0 l/m 18,0 km/h (3 Bft) O 84 0 min 0,000 mm 0,0 UV-I 0 W/m 7,8 C 10,9 C 22,5 km/h (4 Bft) 91,67 %
12.04.2018 23:39 15,6 C 10,6 C 60 % 1000,8 hPa 0,0 l/m 16,6 km/h (3 Bft) O 101 0 min 0,000 mm 0,0 UV-I 0 W/m 7,9 C 11,4 C 20,9 km/h (4 Bft) 100,00 %
12.04.2018 23:40 15,6 C 10,6 C 60 % 1000,8 hPa 0,0 l/m 14,2 km/h (3 Bft) O-SO 116 0 min 0,000 mm 0,0 UV-I 0 W/m 7,9 C 12,2 C 20,9 km/h (4 Bft) 97,56 %
12.04.2018 23:41 15,6 C 10,6 C 60 % 1000,8 hPa 0,0 l/m 15,4 km/h (3 Bft) O-SO 114 0 min 0,000 mm 0,0 UV-I 0 W/m 7,9 C 11,8 C 19,3 km/h (3 Bft) 92,31 %
12.04.2018 23:42 15,6 C 10,0 C 60 % 1000,9 hPa 0,0 l/m 18,7 km/h (3 Bft) O-SO 107 0 min 0,000 mm 0,0 UV-I 0 W/m 7,9 C 10,9 C 22,5 km/h (4 Bft) 97,51 %
12.04.2018 23:43 15,6 C 10,6 C 60 % 1000,9 hPa 0,0 l/m 12,8 km/h (3 Bft) O-SO 119 0 min 0,000 mm 0,0 UV-I 0 W/m 7,9 C 12,7 C 17,7 km/h (3 Bft) 95,45 %
12.04.2018 23:44 15,6 C 10,6 C 60 % 1000,8 hPa 0,0 l/m 14,6 km/h (3 Bft) O 88 0 min 0,000 mm 0,0 UV-I 0 W/m 7,9 C 12,0 C 17,7 km/h (3 Bft) 100,00 %
12.04.2018 23:45 15,6 C 10,6 C 60 % 1000,8 hPa 0,0 l/m 17,5 km/h (3 Bft) O 94 0 min 0,000 mm 0,0 UV-I 0 W/m 7,9 C 11,2 C 22,5 km/h (4 Bft) 97,51 %
12.04.2018 23:46 15,5 C 10,6 C 60 % 1000,8 hPa 0,0 l/m 17,8 km/h (3 Bft) O 84 0 min 0,000 mm 0,0 UV-I 0 W/m 7,8 C 11,0 C 22,5 km/h (4 Bft) 100,00 %
12.04.2018 23:47 15,5 C 10,6 C 60 % 1000,8 hPa 0,0 l/m 22,3 km/h (4 Bft) O 84 0 min 0,000 mm 0,0 UV-I 0 W/m 7,8 C 9,9 C 29,0 km/h (5 Bft) 100,00 %
12.04.2018 23:48 15,4 C 10,6 C 60 % 1000,7 hPa 0,0 l/m 20,6 km/h (4 Bft) O 82 0 min 0,000 mm 0,0 UV-I 0 W/m 7,7 C 10,1 C 27,4 km/h (4 Bft) 100,00 %
12.04.2018 23:49 15,4 C 10,6 C 60 % 1000,8 hPa 0,0 l/m 18,8 km/h (3 Bft) O-SO 104 0 min 0,000 mm 0,0 UV-I 0 W/m 7,7 C 10,6 C 29,0 km/h (5 Bft) 100,00 %
12.04.2018 23:50 15,4 C 10,6 C 61 % 1000,8 hPa 0,0 l/m 15,3 km/h (3 Bft) O 101 0 min 0,000 mm 0,0 UV-I 0 W/m 7,9 C 11,6 C 20,9 km/h (4 Bft) 95,65 %
12.04.2018 23:51 15,3 C 10,6 C 61 % 1000,8 hPa 0,0 l/m 11,6 km/h (2 Bft) O 93 0 min 0,000 mm 0,0 UV-I 0 W/m 7,8 C 12,8 C 14,5 km/h (3 Bft) 100,00 %
12.04.2018 23:52 15,3 C 10,6 C 61 % 1000,9 hPa 0,0 l/m 13,8 km/h (3 Bft) O-SO 103 0 min 0,000 mm 0,0 UV-I 0 W/m 7,8 C 12,0 C 16,1 km/h (3 Bft) 100,00 %
12.04.2018 23:53 15,3 C 10,6 C 61 % 1000,9 hPa 0,0 l/m 15,1 km/h (3 Bft) O-SO 109 0 min 0,000 mm 0,0 UV-I 0 W/m 7,8 C 11,5 C 20,9 km/h (4 Bft) 100,00 %
12.04.2018 23:54 15,3 C 10,6 C 61 % 1000,8 hPa 0,0 l/m 20,0 km/h (4 Bft) O-SO 115 0 min 0,000 mm 0,0 UV-I 0 W/m 7,8 C 10,1 C 27,4 km/h (4 Bft) 100,00 %
12.04.2018 23:55 15,3 C 10,6 C 61 % 1000,8 hPa 0,0 l/m 17,0 km/h (3 Bft) O 94 0 min 0,000 mm 0,0 UV-I 0 W/m 7,8 C 10,9 C 20,9 km/h (4 Bft) 100,00 %
12.04.2018 23:56 15,3 C 10,6 C 61 % 1000,8 hPa 0,0 l/m 13,4 km/h (3 Bft) O 88 0 min 0,000 mm 0,0 UV-I 0 W/m 7,8 C 12,1 C 16,1 km/h (3 Bft) 100,00 %
12.04.2018 23:58 15,2 C 10,6 C 61 % 1000,7 hPa 0,0 l/m 14,5 km/h (3 Bft) O 95 0 min 0,000 mm 0,0 UV-I 0 W/m 7,7 C 11,6 C 19,3 km/h (3 Bft) 96,23 %
12.04.2018 23:59 15,2 C 10,6 C 62 % 1000,7 hPa 0,0 l/m 15,6 km/h (3 Bft) O 99 0 min 0,000 mm 0,0 UV-I 0 W/m 8,0 C 11,2 C 22,5 km/h (4 Bft) 100,00 %
_ Min-Zeit 07:22 00:00 13:56 16:23 - 06:03 - - - - - - 14:06 07:26 00:05 15:23
Minimum _ 13,1 C 10,0 C 32 % 1000,1 hPa - 2,8 km/h (1 Bft) - - - - - - 5,8 C 8,3 C 4,8 km/h (1 Bft) 83,33 %
_ Max-Zeit 13:54 09:18 07:23 00:00 00:00 15:32 - - 08:24 13:02 12:26 12:27 11:15 13:54 18:33 00:00
Maximum _ 24,1 C 10,6 C 70 % 1002,8 hPa 0,0 l/m 30,2 km/h
O-SO (5 Bft)
- - 2 min 0,508 mm 4,3 UV-I 959 W/m 9,6 C 23,6 C 40,2 km/h
O-SO (6 Bft)
100,00 %
Durchschnitt _ 17,1 C 10,3 C 54 % 1001,0 hPa #0,0 l/m 14,6 km/h (3 Bft) O - #4:47 h #4,293 mm 1,6 UV-I 262 W/m 7,4 C 14,1 C 19,9 km/h (4 Bft) 97,93 %